[[{"header":{"parameterUnit":"m.s-1","parameterCategory":1,"la1":31.0,"la2":29.5877,"lo1":-88.7671,"lo2":-86.6584,"dy":0.0162,"dx":0.0185,"nx":115,"ny":88,"refTime":"2023-04-13T06:00:00:Z","depth":0,"parameterNumber":2,"parameterNumberName":"U-component_of_WINDS"},"data":[0.0,0.0,0.0,0.0,0.0,0.0,0.0,0.0,0.0,0.0,0.0,0.0,0.0,0.0,0.0,0.0,0.0,0.0,0.0,0.0,0.0,0.0,0.0,0.0,0.0,0.0,0.0,0.0,0.0,0.0,0.0,0.0,0.0,0.0,0.0,0.0,0.0,0.0,0.0,0.0,0.0,0.0,0.0,0.0,0.0,0.0,0.0,0.0,0.0,0.0,0.0,0.0,0.0,0.0,0.0,0.0,0.0,0.0,0.0,0.0,0.0,0.0,0.0,0.0,0.0,0.0,0.0,0.0,0.0,0.0,0.0,0.0,0.0,0.0,0.0,0.0,0.0,0.0,0.0,0.0,0.0,0.0,0.0,0.0,0.0,0.0,0.0,0.0,0.0,0.0,0.0,0.0,0.0,0.0,0.0,0.0,0.0,0.0,0.0,0.0,0.0,0.0,0.0,0.0,0.0,0.0,0.0,0.0,0.0,0.0,0.0,0.0,0.0,0.0,0.0,0.0,0.0,0.0,0.0,0.0,0.0,0.0,0.0,0.0,0.0,0.0,0.0,0.0,0.0,0.0,0.0,0.0,0.0,0.0,0.0,0.0,0.0,0.0,0.0,0.0,0.0,0.0,0.0,0.0,0.0,0.0,0.0,0.0,0.0,0.0,0.0,0.0,0.0,0.0,0.0,0.0,0.0,0.0,0.0,0.0,0.0,0.0,0.0,0.0,0.0,0.0,0.0,0.0,0.0,0.0,0.0,0.0,0.0,0.0,0.0,0.0,0.0,0.0,0.0,0.0,0.0,0.0,0.0,0.0,0.0,0.0,0.0,0.0,0.0,0.0,0.0,0.0,0.0,0.0,0.0,0.0,0.0,0.0,0.0,0.0,0.0,0.0,0.0,0.0,0.0,0.0,0.0,0.0,0.0,0.0,0.0,0.0,0.0,0.0,0.0,0.0,0.0,0.0,0.0,0.0,0.0,0.0,0.0,0.0,0.0,0.0,0.0,0.0,0.0,0.0,0.0,0.0,0.0,0.0,0.0,0.0,0.0,0.0,0.0,0.0,0.0,0.0,0.0,0.0,0.0,0.0,0.0,0.0,0.0,0.0,0.0,0.0,0.0,0.0,0.0,0.0,0.0,0.0,0.0,0.0,0.0,0.0,0.0,0.0,0.0,0.0,0.0,0.0,0.0,0.0,0.0,0.0,0.0,0.0,0.0,0.0,0.0,0.0,0.0,0.0,0.0,0.0,0.0,0.0,0.0,0.0,0.0,0.0,0.0,0.0,0.0,0.0,0.0,0.0,0.0,0.0,0.0,0.0,0.0,0.0,0.0,0.0,0.0,0.0,0.0,0.0,0.0,0.0,0.0,0.0,0.0,0.0,0.0,0.0,0.0,0.0,0.0,0.0,0.0,0.0,0.0,0.0,0.0,0.0,0.0,0.0,0.0,0.0,0.0,0.0,0.0,0.0,0.0,0.0,0.0,0.0,0.0,0.0,0.0,0.0,0.0,0.0,0.0,0.0,0.0,0.0,0.0,0.0,0.0,0.0,0.0,0.0,0.0,0.0,0.0,0.0,0.0,0.0,0.0,0.0,0.0,0.0,0.0,0.0,0.0,0.0,0.0,0.0,0.0,0.0,0.0,0.0,0.0,0.0,0.0,0.0,0.0,0.0,0.0,0.0,0.0,0.0,0.0,0.0,0.0,0.0,0.0,0.0,0.0,0.0,0.0,0.0,0.0,0.0,0.0,0.0,0.0,0.0,0.0,0.0,0.0,0.0,0.0,0.0,0.0,0.0,0.0,0.0,0.0,0.0,0.0,0.0,0.0,0.0,0.0,0.0,0.0,0.0,0.0,0.0,0.0,0.0,0.0,0.0,0.0,0.0,0.0,0.0,0.0,0.0,0.0,0.0,0.0,0.0,0.0,0.0,0.0,0.0,0.0,0.0,0.0,0.0,0.0,0.0,0.0,0.0,0.0,0.0,0.0,0.0,0.0,0.0,0.0,0.0,0.0,0.0,0.0,0.0,0.0,0.0,0.0,0.0,0.0,0.0,0.0,0.0,0.0,0.0,0.0,0.0,0.0,0.0,0.0,0.0,0.0,0.0,0.0,0.0,0.0,0.0,0.0,0.0,0.0,0.0,0.0,0.0,0.0,0.0,0.0,0.0,0.0,0.0,0.0,0.0,0.0,0.0,0.0,0.0,0.0,0.0,0.0,0.0,0.0,0.0,0.0,0.0,0.0,0.0,0.0,0.0,0.0,0.0,0.0,0.0,0.0,0.0,0.0,0.0,0.0,0.0,0.0,0.0,0.0,0.0,0.0,0.0,0.0,0.0,0.0,0.0,0.0,0.0,0.0,0.0,0.0,0.0,0.0,0.0,0.0,0.0,0.0,0.0,0.0,0.0,0.0,0.0,0.0,0.0,0.0,0.0,0.0,0.0,0.0,0.0,0.0,0.0,0.0,0.0,0.0,0.0,0.0,0.0,0.0,0.0,0.0,0.0,0.0,0.0,0.0,0.0,0.0,0.0,0.0,0.0,0.0,0.0,0.0,0.0,0.0,0.0,0.0,0.0,0.0,0.0,0.0,0.0,0.0,0.0,0.0,0.0,0.0,0.0,0.0,0.0,0.0,0.0,0.0,0.0,0.0,0.0,0.0,0.0,0.0,0.0,0.0,0.0,0.0,0.0,0.0,0.0,0.0,0.0,0.0,0.0,0.0,0.0,0.0,0.0,0.0,0.0,0.0,0.0,0.0,0.0,0.0,0.0,0.0,0.0,0.0,0.0,0.0,0.0,0.0,0.0,0.0,0.0,0.0,0.0,0.0,0.0,0.0,0.0,0.0,0.0,0.0,0.0,0.0,0.0,0.0,0.0,0.0,0.0,0.0,0.0,0.0,0.0,0.0,0.0,0.0,0.0,0.0,0.0,0.0,0.0,0.0,0.0,0.0,0.0,0.0,0.0,0.0,0.0,0.0,0.0,0.0,0.0,0.0,0.0,0.0,0.0,0.0,0.0,0.0,0.0,0.0,0.0,0.0,0.0,0.0,0.0,0.0,0.0,0.0,0.0,0.0,0.0,0.0,0.0,0.0,0.0,0.0,0.0,0.0,0.0,0.0,0.0,0.0,0.0,0.0,0.0,0.0,0.0,0.0,0.0,0.0,0.0,0.0,0.0,0.0,0.0,0.0,0.0,0.0,0.0,0.0,0.0,0.0,0.0,0.0,0.0,0.0,0.0,0.0,0.0,0.0,0.0,0.0,0.0,0.0,0.0,0.0,0.0,0.0,0.0,0.0,0.0,0.0,0.0,0.0,0.0,0.0,0.0,0.0,0.0,0.0,0.0,0.0,0.0,0.0,0.0,0.0,0.0,0.0,0.0,0.0,0.0,0.0,0.0,0.0,0.0,0.0,0.0,0.0,0.0,0.0,0.0,0.0,0.0,0.0,0.0,0.0,0.0,0.0,0.0,0.0,0.0,0.0,0.0,0.0,0.0,0.0,0.0,0.0,0.0,0.0,0.0,0.0,0.0,0.0,0.0,0.0,0.0,0.0,0.0,0.0,0.0,0.0,0.0,0.0,0.0,0.0,0.0,0.0,0.0,0.0,0.0,0.0,0.0,0.0,0.0,0.0,0.0,0.0,0.0,0.0,0.0,0.0,0.0,0.0,0.0,0.0,0.0,0.0,0.0,0.0,0.0,0.0,0.0,0.0,0.0,0.0,0.0,0.0,0.0,0.0,0.0,0.0,0.0,0.0,0.0,0.0,0.0,0.0,0.0,0.0,0.0,0.0,0.0,0.0,0.0,0.0,0.0,0.0,0.0,0.0,0.0,0.0,0.0,0.0,0.0,0.0,0.0,0.0,0.0,0.0,0.0,0.0,0.0,0.0,0.0,0.0,0.0,0.0,0.0,0.0,0.0,0.0,0.0,0.0,0.0,0.0,0.0,0.0,0.0,0.0,0.0,0.0,0.0,0.0,0.0,0.0,0.0,0.0,0.0,0.0,0.0,0.0,0.0,0.0,0.0,0.0,0.0,0.0,0.0,0.0,0.0,0.0,0.0,0.0,0.0,0.0,0.0,0.0,0.0,0.0,0.0,0.0,0.0,0.0,0.0,0.0,0.0,0.0,0.0,0.0,0.0,0.0,0.0,0.0,0.0,0.0,0.0,0.0,0.0,0.0,0.0,0.0,0.0,0.0,0.0,0.0,0.0,0.0,0.0,0.0,0.0,0.0,0.0,0.0,0.0,0.0,0.0,0.0,0.0,0.0,0.0,-3.5137,0.0,0.0,0.0,0.0,0.0,0.0,0.0,0.0,0.0,0.0,0.0,0.0,0.0,0.0,0.0,0.0,0.0,0.0,0.0,0.0,0.0,0.0,0.0,0.0,0.0,0.0,0.0,0.0,0.0,0.0,0.0,0.0,0.0,0.0,0.0,0.0,0.0,0.0,0.0,0.0,0.0,0.0,0.0,0.0,0.0,0.0,0.0,0.0,0.0,0.0,0.0,0.0,0.0,0.0,0.0,0.0,0.0,0.0,0.0,0.0,0.0,0.0,0.0,0.0,0.0,0.0,0.0,0.0,0.0,0.0,0.0,0.0,0.0,0.0,0.0,0.0,0.0,0.0,0.0,0.0,0.0,0.0,0.0,0.0,0.0,0.0,0.0,0.0,0.0,0.0,0.0,0.0,0.0,0.0,0.0,0.0,0.0,0.0,0.0,0.0,0.0,0.0,0.0,0.0,0.0,0.0,0.0,0.0,0.0,0.0,-3.7742,-3.6975,-3.6261,-3.556,-3.4834,0.0,0.0,0.0,0.0,0.0,0.0,0.0,0.0,0.0,0.0,0.0,0.0,0.0,0.0,0.0,0.0,0.0,0.0,0.0,0.0,0.0,0.0,0.0,0.0,0.0,0.0,0.0,0.0,0.0,0.0,0.0,0.0,0.0,0.0,0.0,0.0,0.0,0.0,0.0,0.0,0.0,0.0,0.0,0.0,0.0,0.0,0.0,0.0,0.0,0.0,0.0,0.0,0.0,0.0,0.0,0.0,0.0,0.0,0.0,0.0,0.0,0.0,0.0,0.0,0.0,0.0,0.0,0.0,0.0,0.0,0.0,0.0,0.0,0.0,0.0,0.0,0.0,0.0,0.0,0.0,0.0,0.0,0.0,0.0,0.0,0.0,0.0,0.0,0.0,0.0,0.0,0.0,0.0,0.0,0.0,0.0,0.0,0.0,0.0,0.0,0.0,0.0,0.0,0.0,0.0,0.0,0.0,0.0,0.0,0.0,0.0,0.0,-3.5997,-3.527,-3.4295,0.0,0.0,0.0,0.0,0.0,0.0,0.0,0.0,0.0,0.0,0.0,0.0,0.0,0.0,0.0,0.0,0.0,0.0,0.0,0.0,0.0,0.0,0.0,0.0,0.0,0.0,0.0,0.0,0.0,0.0,0.0,0.0,0.0,0.0,0.0,0.0,0.0,0.0,0.0,0.0,0.0,0.0,0.0,0.0,0.0,0.0,0.0,0.0,0.0,0.0,0.0,0.0,0.0,0.0,0.0,0.0,0.0,0.0,0.0,0.0,0.0,0.0,0.0,0.0,0.0,0.0,0.0,0.0,0.0,0.0,0.0,0.0,0.0,0.0,0.0,0.0,0.0,0.0,0.0,0.0,0.0,0.0,0.0,0.0,0.0,0.0,0.0,0.0,0.0,0.0,0.0,0.0,0.0,0.0,0.0,0.0,0.0,0.0,0.0,0.0,0.0,0.0,0.0,0.0,0.0,0.0,0.0,0.0,0.0,0.0,-3.718,-3.5669,-3.5578,0.0,-3.3347,0.0,0.0,0.0,0.0,0.0,0.0,0.0,0.0,0.0,0.0,0.0,0.0,0.0,0.0,0.0,0.0,0.0,0.0,0.0,0.0,0.0,0.0,0.0,0.0,0.0,0.0,0.0,0.0,0.0,0.0,0.0,0.0,0.0,0.0,0.0,0.0,0.0,0.0,0.0,0.0,0.0,0.0,0.0,0.0,0.0,0.0,0.0,0.0,0.0,0.0,0.0,0.0,0.0,0.0,0.0,0.0,0.0,0.0,0.0,0.0,0.0,0.0,0.0,0.0,0.0,0.0,0.0,0.0,0.0,0.0,0.0,0.0,0.0,0.0,0.0,0.0,0.0,0.0,0.0,0.0,0.0,0.0,0.0,0.0,0.0,0.0,0.0,0.0,0.0,0.0,0.0,0.0,0.0,0.0,0.0,0.0,0.0,0.0,0.0,0.0,0.0,0.0,0.0,0.0,0.0,0.0,0.0,0.0,0.0,0.0,-3.7021,-3.5479,-3.451,-3.3705,0.0,0.0,0.0,0.0,0.0,0.0,0.0,0.0,0.0,0.0,0.0,0.0,0.0,0.0,0.0,0.0,0.0,0.0,0.0,0.0,0.0,0.0,0.0,0.0,0.0,0.0,0.0,0.0,0.0,0.0,0.0,0.0,0.0,0.0,0.0,0.0,0.0,0.0,0.0,0.0,0.0,0.0,0.0,0.0,0.0,0.0,0.0,0.0,0.0,0.0,0.0,0.0,0.0,0.0,0.0,0.0,0.0,0.0,0.0,0.0,0.0,0.0,0.0,0.0,0.0,0.0,0.0,0.0,0.0,0.0,0.0,0.0,0.0,0.0,0.0,0.0,0.0,0.0,0.0,0.0,0.0,0.0,0.0,0.0,0.0,0.0,0.0,0.0,0.0,0.0,0.0,0.0,0.0,0.0,0.0,0.0,0.0,0.0,0.0,0.0,0.0,0.0,0.0,0.0,0.0,0.0,0.0,0.0,0.0,0.0,-3.7344,-3.6594,-3.5092,-3.4077,-3.333,-3.2902,0.0,0.0,0.0,0.0,0.0,0.0,0.0,0.0,0.0,0.0,0.0,0.0,0.0,0.0,0.0,0.0,0.0,0.0,0.0,0.0,0.0,0.0,0.0,0.0,0.0,0.0,0.0,0.0,0.0,0.0,0.0,0.0,0.0,0.0,0.0,0.0,0.0,0.0,0.0,0.0,0.0,0.0,0.0,0.0,0.0,0.0,0.0,0.0,0.0,0.0,0.0,0.0,0.0,0.0,0.0,0.0,0.0,0.0,0.0,0.0,0.0,0.0,0.0,0.0,0.0,0.0,0.0,0.0,0.0,0.0,0.0,0.0,0.0,0.0,0.0,0.0,0.0,0.0,0.0,0.0,0.0,0.0,0.0,0.0,0.0,0.0,0.0,0.0,0.0,0.0,0.0,0.0,0.0,0.0,0.0,0.0,0.0,0.0,0.0,0.0,0.0,0.0,0.0,0.0,0.0,0.0,0.0,0.0,-3.7375,-3.6718,-3.5687,-3.4277,-3.4587,-3.4145,0.0,0.0,0.0,0.0,0.0,0.0,0.0,0.0,0.0,0.0,0.0,0.0,0.0,0.0,0.0,0.0,0.0,0.0,0.0,0.0,0.0,0.0,0.0,0.0,0.0,0.0,0.0,0.0,0.0,0.0,0.0,0.0,0.0,0.0,0.0,0.0,0.0,0.0,0.0,0.0,0.0,0.0,0.0,0.0,0.0,0.0,0.0,0.0,0.0,0.0,0.0,0.0,0.0,0.0,0.0,0.0,0.0,0.0,0.0,0.0,0.0,0.0,0.0,0.0,0.0,0.0,0.0,0.0,0.0,0.0,0.0,0.0,0.0,0.0,0.0,0.0,0.0,0.0,0.0,0.0,0.0,0.0,0.0,0.0,0.0,0.0,0.0,0.0,0.0,0.0,0.0,0.0,0.0,0.0,0.0,0.0,0.0,0.0,0.0,0.0,0.0,0.0,0.0,0.0,0.0,0.0,0.0,0.0,0.0,-3.711,-3.6385,-3.5734,-3.5188,-3.4356,-3.3617,0.0,0.0,0.0,0.0,0.0,0.0,0.0,0.0,0.0,0.0,0.0,0.0,0.0,0.0,0.0,0.0,0.0,0.0,0.0,0.0,0.0,0.0,0.0,0.0,0.0,0.0,0.0,0.0,0.0,0.0,0.0,0.0,0.0,0.0,0.0,0.0,0.0,0.0,0.0,0.0,0.0,0.0,0.0,0.0,0.0,0.0,0.0,0.0,0.0,0.0,0.0,0.0,0.0,0.0,0.0,0.0,0.0,0.0,0.0,0.0,0.0,0.0,0.0,0.0,0.0,0.0,0.0,0.0,0.0,0.0,0.0,0.0,0.0,0.0,0.0,0.0,0.0,0.0,0.0,0.0,0.0,0.0,0.0,0.0,0.0,0.0,0.0,0.0,0.0,0.0,0.0,0.0,0.0,0.0,0.0,0.0,0.0,0.0,0.0,0.0,0.0,0.0,0.0,0.0,0.0,0.0,0.0,0.0,0.0,-3.612,0.0,-3.5687,-3.5387,-3.4278,-3.3663,0.0,0.0,0.0,0.0,0.0,0.0,0.0,0.0,0.0,0.0,0.0,0.0,0.0,0.0,0.0,0.0,0.0,0.0,0.0,0.0,0.0,0.0,0.0,0.0,0.0,0.0,0.0,0.0,0.0,0.0,0.0,0.0,0.0,0.0,0.0,0.0,0.0,0.0,0.0,0.0,0.0,0.0,0.0,0.0,0.0,0.0,0.0,0.0,0.0,0.0,0.0,0.0,0.0,0.0,0.0,0.0,0.0,0.0,0.0,0.0,0.0,0.0,0.0,0.0,0.0,0.0,0.0,0.0,0.0,0.0,0.0,0.0,0.0,0.0,0.0,0.0,0.0,0.0,0.0,0.0,0.0,0.0,0.0,0.0,0.0,0.0,0.0,0.0,0.0,0.0,0.0,0.0,0.0,0.0,0.0,0.0,0.0,0.0,0.0,0.0,0.0,0.0,0.0,0.0,0.0,0.0,0.0,0.0,-3.4441,-3.4511,-3.5362,-3.5454,-3.4667,-3.4539,-3.4501,0.0,0.0,0.0,0.0,0.0,0.0,0.0,0.0,0.0,0.0,0.0,0.0,0.0,0.0,0.0,0.0,0.0,0.0,0.0,0.0,0.0,0.0,0.0,0.0,0.0,0.0,0.0,0.0,0.0,0.0,0.0,0.0,0.0,0.0,0.0,0.0,0.0,0.0,0.0,0.0,0.0,0.0,0.0,0.0,0.0,0.0,0.0,0.0,0.0,0.0,0.0,0.0,0.0,0.0,0.0,0.0,0.0,0.0,0.0,0.0,0.0,0.0,0.0,0.0,0.0,0.0,0.0,0.0,0.0,0.0,0.0,0.0,0.0,0.0,0.0,0.0,0.0,0.0,0.0,0.0,0.0,0.0,0.0,0.0,0.0,0.0,0.0,0.0,0.0,0.0,0.0,0.0,0.0,0.0,0.0,0.0,0.0,0.0,0.0,0.0,0.0,0.0,0.0,0.0,0.0,0.0,0.0,0.0,0.0,-3.5696,-3.5856,-3.5814,-3.5552,-3.5015,-3.4719,0.0,0.0,0.0,0.0,0.0,0.0,0.0,0.0,0.0,0.0,0.0,0.0,0.0,0.0,0.0,0.0,0.0,0.0,0.0,0.0,0.0,0.0,0.0,0.0,0.0,0.0,0.0,0.0,0.0,0.0,0.0,0.0,0.0,0.0,0.0,0.0,0.0,0.0,0.0,0.0,0.0,0.0,0.0,0.0,0.0,0.0,0.0,0.0,0.0,0.0,0.0,0.0,0.0,0.0,0.0,0.0,0.0,0.0,0.0,0.0,0.0,0.0,0.0,0.0,0.0,0.0,0.0,0.0,0.0,0.0,0.0,0.0,0.0,0.0,0.0,0.0,0.0,0.0,0.0,0.0,0.0,0.0,0.0,0.0,0.0,0.0,0.0,0.0,0.0,0.0,0.0,0.0,0.0,0.0,0.0,0.0,0.0,0.0,0.0,0.0,0.0,0.0,0.0,0.0,0.0,0.0,0.0,0.0,0.0,-3.6697,-3.6668,-3.6728,-3.7016,-3.6006,-3.5467,-3.547,0.0,0.0,0.0,0.0,0.0,0.0,0.0,0.0,0.0,0.0,0.0,0.0,0.0,0.0,0.0,0.0,0.0,0.0,0.0,0.0,0.0,0.0,0.0,0.0,0.0,0.0,0.0,0.0,0.0,0.0,0.0,0.0,0.0,0.0,0.0,0.0,0.0,0.0,0.0,0.0,0.0,0.0,0.0,0.0,0.0,0.0,0.0,0.0,0.0,0.0,0.0,0.0,0.0,0.0,0.0,0.0,0.0,0.0,0.0,0.0,0.0,0.0,0.0,0.0,0.0,0.0,0.0,0.0,0.0,0.0,0.0,0.0,0.0,0.0,0.0,0.0,0.0,0.0,0.0,0.0,0.0,0.0,0.0,0.0,0.0,0.0,0.0,0.0,0.0,0.0,0.0,0.0,0.0,0.0,0.0,0.0,0.0,0.0,0.0,0.0,0.0,0.0,0.0,0.0,0.0,0.0,0.0,0.0,-3.7716,-3.781,-3.813,-3.8621,-3.7269,-3.662,0.0,0.0,0.0,0.0,0.0,0.0,0.0,0.0,0.0,0.0,0.0,0.0,0.0,0.0,0.0,0.0,0.0,0.0,0.0,0.0,0.0,0.0,0.0,0.0,0.0,0.0,0.0,0.0,0.0,0.0,0.0,0.0,0.0,0.0,0.0,0.0,0.0,0.0,0.0,0.0,0.0,0.0,0.0,0.0,0.0,0.0,0.0,0.0,0.0,0.0,0.0,0.0,0.0,0.0,0.0,0.0,0.0,0.0,0.0,0.0,0.0,0.0,0.0,0.0,0.0,0.0,0.0,0.0,0.0,0.0,0.0,0.0,0.0,0.0,0.0,0.0,0.0,0.0,0.0,0.0,0.0,0.0,0.0,0.0,0.0,0.0,0.0,0.0,0.0,0.0,0.0,0.0,0.0,0.0,0.0,0.0,0.0,0.0,0.0,0.0,0.0,0.0,0.0,0.0,0.0,0.0,0.0,0.0,0.0,-4.0289,-4.06,-4.0157,-3.8968,-3.7638,-3.6962,0.0,0.0,0.0,0.0,0.0,0.0,0.0,0.0,0.0,0.0,0.0,0.0,0.0,0.0,0.0,0.0,0.0,0.0,0.0,0.0,0.0,0.0,0.0,0.0,0.0,0.0,0.0,0.0,0.0,0.0,0.0,0.0,0.0,0.0,0.0,0.0,0.0,0.0,0.0,0.0,0.0,0.0,0.0,0.0,0.0,0.0,0.0,0.0,0.0,0.0,0.0,0.0,0.0,0.0,0.0,0.0,0.0,0.0,0.0,0.0,0.0,0.0,0.0,0.0,0.0,0.0,0.0,0.0,0.0,0.0,0.0,0.0,0.0,0.0,0.0,0.0,0.0,0.0,0.0,0.0,0.0,0.0,0.0,0.0,0.0,0.0,0.0,0.0,0.0,0.0,0.0,0.0,0.0,0.0,0.0,0.0,0.0,0.0,0.0,0.0,0.0,0.0,0.0,0.0,0.0,0.0,0.0,0.0,-3.9638,-4.1218,-4.2432,-4.2392,-4.0962,-3.9181,-3.8162,0.0,0.0,0.0,0.0,0.0,0.0,0.0,0.0,0.0,0.0,0.0,0.0,0.0,0.0,0.0,0.0,0.0,0.0,0.0,0.0,0.0,0.0,0.0,0.0,0.0,0.0,0.0,0.0,0.0,0.0,0.0,0.0,0.0,0.0,0.0,0.0,0.0,0.0,0.0,0.0,0.0,0.0,0.0,0.0,0.0,0.0,0.0,0.0,0.0,0.0,0.0,0.0,0.0,0.0,0.0,0.0,0.0,0.0,0.0,0.0,0.0,0.0,0.0,0.0,0.0,0.0,0.0,0.0,0.0,0.0,0.0,0.0,0.0,0.0,0.0,0.0,0.0,0.0,0.0,0.0,0.0,0.0,0.0,0.0,0.0,0.0,0.0,0.0,0.0,0.0,0.0,0.0,0.0,0.0,0.0,0.0,0.0,0.0,0.0,0.0,0.0,0.0,0.0,0.0,0.0,0.0,0.0,0.0,-4.1336,-4.1487,-4.3726,-4.4563,-4.379,-4.1354,-3.9732,0.0,0.0,0.0,0.0,0.0,0.0,0.0,0.0,0.0,0.0,0.0,0.0,0.0,0.0,0.0,0.0,0.0,0.0,0.0,0.0,0.0,0.0,0.0,0.0,0.0,0.0,0.0,0.0,0.0,0.0,0.0,0.0,0.0,0.0,0.0,0.0,0.0,0.0,0.0,0.0,0.0,0.0,0.0,0.0,0.0,0.0,0.0,0.0,0.0,0.0,0.0,0.0,0.0,0.0,0.0,0.0,0.0,0.0,0.0,0.0,0.0,0.0,0.0,0.0,0.0,0.0,0.0,0.0,0.0,0.0,0.0,0.0,0.0,0.0,0.0,0.0,0.0,0.0,0.0,0.0,0.0,0.0,0.0,0.0,0.0,0.0,0.0,0.0,0.0,0.0,0.0,0.0,0.0,0.0,0.0,0.0,0.0,0.0,0.0,0.0,0.0,0.0,0.0,0.0,0.0,0.0,0.0,0.0,-4.2195,-4.4261,-4.5232,-4.563,-4.5329,-4.2377,-4.0169,0.0,0.0,0.0,0.0,0.0,0.0,0.0,0.0,0.0,0.0,0.0,0.0,0.0,0.0,0.0,0.0,0.0,0.0,0.0,0.0,0.0,0.0,0.0,0.0,0.0,0.0,0.0,0.0,0.0,0.0,0.0,0.0,0.0,0.0,0.0,0.0,0.0,0.0,0.0,0.0,0.0,0.0,0.0,0.0,0.0,0.0,0.0,0.0,-4.017,0.0,0.0,0.0,0.0,0.0,0.0,0.0,0.0,0.0,0.0,0.0,0.0,0.0,0.0,0.0,0.0,0.0,0.0,0.0,0.0,0.0,0.0,0.0,0.0,0.0,0.0,0.0,0.0,0.0,0.0,0.0,0.0,0.0,0.0,0.0,0.0,0.0,0.0,0.0,0.0,0.0,0.0,0.0,0.0,0.0,0.0,0.0,0.0,0.0,0.0,0.0,0.0,0.0,0.0,0.0,0.0,0.0,0.0,0.0,-4.294,-4.5198,-4.6119,-4.6368,-4.5851,-4.3897,-4.2068,0.0,0.0,0.0,0.0,0.0,0.0,0.0,0.0,0.0,0.0,0.0,0.0,0.0,0.0,0.0,0.0,0.0,0.0,0.0,0.0,0.0,0.0,0.0,0.0,0.0,0.0,0.0,0.0,0.0,0.0,0.0,0.0,0.0,0.0,0.0,0.0,0.0,0.0,0.0,0.0,0.0,0.0,0.0,0.0,0.0,0.0,0.0,0.0,0.0,0.0,0.0,0.0,0.0,0.0,0.0,0.0,0.0,0.0,0.0,0.0,0.0,0.0,0.0,0.0,0.0,0.0,0.0,0.0,0.0,0.0,0.0,0.0,0.0,0.0,0.0,0.0,0.0,0.0,0.0,0.0,0.0,0.0,0.0,0.0,0.0,0.0,0.0,0.0,0.0,0.0,0.0,0.0,0.0,0.0,0.0,0.0,0.0,0.0,0.0,0.0,0.0,0.0,0.0,0.0,0.0,0.0,0.0,-4.209,-4.3698,-4.5607,-4.6735,-4.6919,-4.6123,-4.5541,-4.43,-4.2327,0.0,0.0,0.0,0.0,0.0,0.0,0.0,0.0,0.0,0.0,0.0,0.0,0.0,0.0,0.0,0.0,0.0,0.0,0.0,0.0,0.0,0.0,0.0,0.0,0.0,0.0,0.0,0.0,0.0,0.0,0.0,0.0,0.0,0.0,0.0,0.0,0.0,0.0,-3.7325,-3.7848,0.0,0.0,0.0,0.0,0.0,0.0,0.0,0.0,-3.9165,0.0,0.0,0.0,0.0,0.0,0.0,0.0,0.0,0.0,0.0,0.0,0.0,0.0,0.0,0.0,0.0,0.0,0.0,0.0,0.0,0.0,0.0,0.0,0.0,0.0,0.0,0.0,0.0,0.0,0.0,0.0,0.0,0.0,0.0,0.0,0.0,0.0,0.0,0.0,0.0,0.0,0.0,0.0,0.0,0.0,0.0,0.0,0.0,0.0,0.0,0.0,0.0,0.0,0.0,0.0,0.0,-4.2067,-4.2927,-4.446,-4.6644,-4.7533,-4.7499,-4.6542,-4.654,-4.5303,-4.2748,0.0,0.0,0.0,0.0,0.0,0.0,0.0,0.0,0.0,0.0,0.0,0.0,0.0,0.0,0.0,0.0,0.0,0.0,0.0,0.0,0.0,0.0,0.0,0.0,0.0,0.0,0.0,0.0,0.0,0.0,0.0,0.0,0.0,0.0,0.0,0.0,0.0,0.0,0.0,-3.837,-3.8942,0.0,0.0,0.0,0.0,0.0,0.0,0.0,0.0,-3.9666,0.0,0.0,0.0,0.0,0.0,0.0,0.0,0.0,0.0,0.0,0.0,0.0,0.0,0.0,0.0,0.0,0.0,0.0,0.0,0.0,0.0,0.0,0.0,0.0,0.0,0.0,0.0,0.0,0.0,0.0,0.0,0.0,0.0,0.0,0.0,0.0,0.0,0.0,0.0,0.0,0.0,0.0,0.0,0.0,0.0,0.0,0.0,0.0,0.0,0.0,0.0,0.0,0.0,0.0,0.0,-4.2987,-4.3991,-4.5305,-4.703,-4.7654,-4.7701,-4.7227,-4.6504,-4.52,0.0,0.0,0.0,0.0,0.0,0.0,0.0,0.0,0.0,0.0,0.0,0.0,0.0,0.0,0.0,0.0,0.0,0.0,0.0,0.0,0.0,0.0,0.0,0.0,0.0,0.0,0.0,0.0,0.0,0.0,0.0,0.0,0.0,0.0,0.0,0.0,0.0,0.0,0.0,0.0,-3.8546,-3.9135,-4.057,0.0,0.0,0.0,0.0,0.0,0.0,-3.9833,-3.9781,0.0,0.0,0.0,0.0,0.0,0.0,0.0,0.0,0.0,0.0,0.0,0.0,0.0,0.0,0.0,0.0,0.0,0.0,0.0,0.0,0.0,0.0,0.0,0.0,0.0,0.0,0.0,0.0,0.0,0.0,0.0,0.0,0.0,0.0,0.0,0.0,0.0,0.0,0.0,0.0,0.0,0.0,0.0,0.0,0.0,0.0,0.0,0.0,0.0,0.0,0.0,0.0,0.0,0.0,0.0,-4.3617,-4.4753,-4.5881,-4.7088,-4.7714,-4.7946,-4.7745,-4.6439,-4.51,0.0,0.0,0.0,0.0,0.0,0.0,0.0,0.0,0.0,0.0,0.0,0.0,0.0,0.0,0.0,0.0,0.0,0.0,0.0,0.0,0.0,0.0,0.0,0.0,0.0,0.0,0.0,0.0,0.0,0.0,0.0,0.0,0.0,0.0,0.0,0.0,0.0,0.0,0.0,0.0,0.0,-3.9236,-4.107,-4.1047,0.0,0.0,0.0,0.0,-3.9327,-4.0129,0.0,0.0,0.0,0.0,0.0,0.0,0.0,0.0,0.0,0.0,0.0,0.0,0.0,0.0,0.0,0.0,0.0,0.0,0.0,0.0,0.0,0.0,0.0,0.0,0.0,0.0,0.0,0.0,0.0,0.0,0.0,0.0,0.0,0.0,0.0,0.0,0.0,0.0,0.0,0.0,0.0,0.0,0.0,0.0,0.0,0.0,0.0,0.0,0.0,0.0,0.0,0.0,0.0,0.0,0.0,0.0,-4.3533,-4.4671,-4.5788,-4.6836,-4.8139,-4.8417,-4.7657,-4.7091,-4.5939,0.0,0.0,0.0,0.0,0.0,0.0,0.0,0.0,0.0,0.0,0.0,0.0,0.0,0.0,0.0,0.0,0.0,0.0,0.0,0.0,0.0,0.0,0.0,0.0,0.0,0.0,0.0,0.0,0.0,0.0,0.0,0.0,0.0,0.0,0.0,0.0,0.0,0.0,0.0,0.0,0.0,-3.9083,-4.0975,-4.0968,-4.0782,0.0,0.0,-4.1963,-4.1728,-4.269,0.0,0.0,0.0,0.0,0.0,0.0,0.0,0.0,0.0,0.0,0.0,0.0,0.0,0.0,0.0,0.0,0.0,0.0,0.0,0.0,0.0,0.0,0.0,0.0,0.0,0.0,0.0,0.0,0.0,0.0,0.0,0.0,0.0,0.0,0.0,0.0,0.0,0.0,0.0,0.0,0.0,0.0,0.0,0.0,0.0,0.0,0.0,0.0,0.0,0.0,0.0,0.0,0.0,0.0,0.0,-4.3847,-4.4351,-4.6352,-4.7701,-4.8224,-4.9022,-4.9321,-4.9028,-4.7407,-4.5953,0.0,0.0,0.0,0.0,0.0,0.0,0.0,0.0,0.0,0.0,0.0,0.0,0.0,0.0,0.0,0.0,0.0,0.0,0.0,0.0,0.0,0.0,0.0,0.0,0.0,0.0,0.0,0.0,0.0,0.0,0.0,0.0,0.0,0.0,0.0,0.0,0.0,0.0,0.0,0.0,0.0,0.0,-4.1439,-4.1493,0.0,0.0,0.0,-4.1795,-4.1094,0.0,0.0,0.0,0.0,0.0,0.0,0.0,0.0,0.0,0.0,0.0,0.0,0.0,0.0,0.0,0.0,0.0,0.0,0.0,0.0,0.0,0.0,0.0,0.0,0.0,0.0,0.0,0.0,0.0,0.0,0.0,0.0,0.0,0.0,0.0,0.0,0.0,0.0,0.0,0.0,0.0,0.0,0.0,0.0,0.0,0.0,0.0,0.0,0.0,0.0,0.0,0.0,0.0,0.0,0.0,0.0,0.0,-4.49,-4.7711,-4.9245,-4.9293,-4.9756,-5.0044,-5.011,-4.8049,0.0,0.0,0.0,0.0,0.0,0.0,0.0,0.0,0.0,0.0,0.0,0.0,0.0,0.0,0.0,0.0,0.0,0.0,0.0,0.0,0.0,0.0,0.0,0.0,0.0,0.0,0.0,-3.6212,0.0,0.0,0.0,0.0,0.0,0.0,0.0,0.0,0.0,0.0,0.0,0.0,0.0,0.0,-4.107,-4.1781,-4.1887,-4.1927,0.0,0.0,-4.1665,-4.105,-4.2692,-4.3342,0.0,0.0,0.0,0.0,0.0,0.0,0.0,0.0,0.0,0.0,0.0,0.0,0.0,0.0,0.0,0.0,0.0,0.0,0.0,0.0,0.0,0.0,0.0,0.0,0.0,0.0,0.0,0.0,0.0,0.0,0.0,0.0,0.0,0.0,0.0,0.0,0.0,0.0,0.0,0.0,0.0,0.0,0.0,0.0,0.0,0.0,0.0,0.0,0.0,0.0,0.0,0.0,0.0,0.0,0.0,-4.4813,-4.7856,-4.9472,-4.9329,-4.9919,-5.0297,-5.0272,-4.9547,-4.8355,0.0,0.0,0.0,0.0,0.0,0.0,0.0,0.0,0.0,0.0,0.0,0.0,0.0,0.0,0.0,0.0,0.0,0.0,0.0,0.0,0.0,0.0,0.0,0.0,0.0,0.0,0.0,0.0,0.0,0.0,0.0,0.0,0.0,0.0,0.0,0.0,0.0,0.0,0.0,0.0,0.0,-4.107,-4.1781,-4.1805,-4.2039,0.0,0.0,-4.2198,-4.305,-4.4238,-4.438,-4.2287,0.0,0.0,0.0,0.0,0.0,0.0,0.0,0.0,0.0,0.0,0.0,0.0,0.0,0.0,0.0,0.0,0.0,0.0,0.0,0.0,0.0,0.0,0.0,0.0,0.0,0.0,0.0,0.0,0.0,0.0,0.0,0.0,0.0,0.0,0.0,0.0,0.0,0.0,0.0,0.0,0.0,0.0,0.0,0.0,0.0,0.0,0.0,0.0,0.0,0.0,0.0,0.0,0.0,-4.5824,-4.6149,-4.9238,-5.0829,-5.078,-5.0976,-5.1094,-5.1169,-5.0152,-4.8662,0.0,0.0,0.0,0.0,0.0,0.0,0.0,0.0,0.0,0.0,0.0,0.0,0.0,0.0,0.0,0.0,0.0,0.0,0.0,0.0,0.0,0.0,0.0,0.0,0.0,0.0,0.0,0.0,-3.7571,-3.7632,-3.7496,0.0,0.0,0.0,0.0,0.0,0.0,0.0,0.0,0.0,0.0,-4.1768,-4.2561,-4.2751,0.0,0.0,-4.3084,-4.3017,-4.3037,-4.3606,-4.3552,-4.1938,-4.154,0.0,0.0,0.0,0.0,0.0,0.0,0.0,0.0,0.0,0.0,0.0,0.0,0.0,0.0,0.0,0.0,0.0,0.0,0.0,0.0,0.0,0.0,0.0,0.0,0.0,0.0,0.0,0.0,0.0,0.0,0.0,0.0,0.0,0.0,0.0,0.0,0.0,0.0,0.0,0.0,0.0,0.0,0.0,0.0,0.0,0.0,0.0,0.0,0.0,0.0,0.0,0.0,-4.674,-4.7072,-5.0211,-5.1808,-5.1783,-5.1632,-5.1607,-5.1672,-5.0809,-4.939,0.0,0.0,0.0,0.0,0.0,0.0,0.0,0.0,0.0,0.0,0.0,0.0,0.0,0.0,0.0,0.0,0.0,0.0,0.0,0.0,0.0,0.0,0.0,0.0,0.0,0.0,0.0,0.0,-3.8152,-3.8093,-3.7909,0.0,0.0,0.0,0.0,0.0,0.0,0.0,0.0,0.0,0.0,-4.2454,-4.2757,-4.3042,-4.3176,-4.3099,-4.3014,-4.2913,-4.2869,-4.2925,-4.2644,-4.1699,0.0,0.0,0.0,0.0,0.0,0.0,0.0,0.0,0.0,0.0,0.0,0.0,0.0,0.0,0.0,0.0,0.0,0.0,0.0,0.0,0.0,0.0,0.0,0.0,0.0,0.0,0.0,0.0,0.0,0.0,-3.9926,0.0,0.0,0.0,0.0,0.0,0.0,0.0,0.0,0.0,0.0,0.0,0.0,0.0,0.0,0.0,0.0,0.0,0.0,0.0,0.0,0.0,0.0,-4.7407,-4.7226,-5.0434,-5.2029,-5.1882,-5.1783,-5.1708,-5.1708,-5.1672,-5.0941,-4.9441,0.0,0.0,0.0,0.0,0.0,0.0,0.0,0.0,0.0,0.0,0.0,0.0,0.0,0.0,0.0,0.0,0.0,0.0,0.0,0.0,0.0,0.0,0.0,0.0,0.0,0.0,-3.8265,-3.8044,-3.7923,0.0,0.0,0.0,0.0,0.0,0.0,0.0,0.0,0.0,0.0,-4.2448,-4.3017,-4.2104,-4.2434,-4.2784,-4.2851,-4.1996,-4.1674,-4.2797,-4.2378,-4.1936,0.0,0.0,0.0,0.0,0.0,0.0,0.0,0.0,0.0,0.0,0.0,0.0,0.0,0.0,0.0,0.0,0.0,0.0,0.0,0.0,0.0,0.0,0.0,0.0,0.0,0.0,0.0,-4.3388,-4.2955,0.0,0.0,0.0,0.0,0.0,0.0,0.0,0.0,0.0,0.0,0.0,-4.7367,-4.759,0.0,0.0,0.0,0.0,0.0,0.0,0.0,0.0,0.0,0.0,0.0,0.0,-4.7588,-4.8032,-5.0585,-5.1907,-5.1783,-5.1733,-5.1708,-5.1708,-5.1708,-5.1063,-4.9644,0.0,0.0,0.0,0.0,0.0,0.0,0.0,0.0,0.0,0.0,0.0,0.0,0.0,0.0,0.0,0.0,0.0,0.0,0.0,0.0,0.0,0.0,0.0,0.0,0.0,-3.9319,0.0,0.0,0.0,0.0,0.0,0.0,0.0,0.0,0.0,0.0,0.0,-4.065,-4.1673,-4.1485,-4.1472,-4.2176,-4.216,-4.2501,0.0,0.0,0.0,0.0,0.0,0.0,0.0,0.0,0.0,0.0,0.0,0.0,0.0,0.0,-4.1808,-4.2351,-4.3098,-4.3614,-4.3692,0.0,0.0,0.0,0.0,0.0,0.0,0.0,0.0,0.0,0.0,0.0,0.0,0.0,0.0,-4.5849,0.0,-4.6529,0.0,0.0,0.0,0.0,0.0,0.0,0.0,0.0,-4.8591,-4.9472,-5.0161,-5.0336,-5.0185,0.0,-4.9376,-4.7872,0.0,0.0,0.0,0.0,0.0,0.0,0.0,0.0,-4.8086,-4.8486,-5.0838,-5.198,-5.1858,-5.1808,-5.1758,-5.1708,-5.1658,-5.1231,-5.0329,-4.868,-4.7314,0.0,0.0,0.0,0.0,0.0,0.0,0.0,0.0,0.0,0.0,0.0,0.0,0.0,0.0,0.0,0.0,0.0,0.0,0.0,0.0,0.0,0.0,0.0,-4.017,0.0,0.0,0.0,0.0,0.0,0.0,0.0,0.0,0.0,-4.1342,-4.0934,-4.0894,-4.1627,-4.1686,-4.1733,-4.1763,0.0,0.0,0.0,0.0,0.0,0.0,0.0,-4.1361,-4.165,-4.1516,-4.1802,-4.3223,-4.3344,-4.3423,-4.3855,0.0,0.0,-4.3623,-4.4362,-4.5036,-4.5139,-4.5208,-4.531,-4.5436,-4.5351,-4.5358,0.0,0.0,0.0,0.0,0.0,0.0,0.0,0.0,-4.7976,-4.7133,0.0,-4.867,0.0,0.0,0.0,0.0,0.0,-4.8828,0.0,0.0,-5.4261,-5.4824,-5.311,-5.3175,-5.3214,-5.3117,-5.2119,-5.1083,-4.9988,-4.8682,0.0,0.0,0.0,0.0,0.0,0.0,-4.8866,-4.8862,-5.1119,-5.2258,-5.2102,-5.1956,-5.1833,-5.1708,-5.1582,-5.1505,-5.1444,-5.0224,-4.9644,-4.9783,-4.688,0.0,0.0,0.0,0.0,0.0,0.0,0.0,0.0,0.0,0.0,0.0,0.0,0.0,0.0,0.0,0.0,0.0,0.0,0.0,0.0,-4.086,0.0,0.0,0.0,0.0,0.0,0.0,0.0,0.0,0.0,0.0,-4.073,-4.1357,-4.1708,-4.1129,0.0,0.0,0.0,0.0,-4.2707,-4.1114,-4.0779,-4.104,-4.1634,-4.1588,-4.1866,-4.3014,0.0,0.0,-4.5373,-4.4939,-4.4633,-4.5302,-4.589,-4.5768,-4.3588,-4.3958,-4.444,-4.4432,-4.4552,-4.438,-4.4473,-4.4515,-4.4171,-4.7273,0.0,0.0,0.0,0.0,-4.7627,-4.8988,-5.1054,-5.2037,-5.1927,-5.1032,-5.3305,0.0,0.0,0.0,0.0,0.0,0.0,-5.2873,-5.4091,-5.5043,-5.5687,-5.6125,-5.6075,-5.5774,-5.5305,-5.4869,-5.4301,-5.3482,-5.3038,-5.0887,-4.7116,0.0,0.0,0.0,0.0,-4.9831,-5.0087,-5.198,-5.2726,-5.2102,-5.1882,-5.1758,-5.1708,-5.1683,-5.1658,-5.1622,-5.1076,-5.0479,-4.9785,-4.889,0.0,0.0,0.0,0.0,0.0,0.0,0.0,0.0,0.0,0.0,0.0,0.0,0.0,0.0,0.0,0.0,0.0,0.0,0.0,-4.0731,-4.1673,-4.1858,0.0,0.0,0.0,0.0,0.0,0.0,0.0,0.0,0.0,-4.1885,-4.1256,-4.1069,0.0,0.0,-4.036,-4.0071,-4.0845,-4.168,-4.2518,-4.2618,0.0,0.0,-4.3057,-4.2962,-4.3274,-4.4236,-4.5052,-4.5338,-4.5528,-4.5743,-4.593,-4.613,-4.606,-4.5546,-4.6425,-4.7305,-4.7375,-4.7553,-4.7692,-4.7815,-4.776,-4.7797,-5.138,-5.0277,-4.8809,-4.8911,-5.0073,-5.0381,-5.1691,-5.3718,-5.4611,-5.4367,-5.3485,-5.6201,-5.5434,-5.2118,-5.2921,0.0,0.0,0.0,-5.5749,-5.7028,-5.7028,-5.7103,-5.7313,-5.7338,-5.7109,-5.6697,-5.6709,-5.6297,-5.5414,-5.4967,-5.2949,-4.9507,0.0,0.0,-4.8962,-5.0545,-5.1486,-5.1718,-5.287,-5.3291,-5.2738,-5.2099,-5.1758,-5.1708,-5.1708,-5.1708,-5.1708,-5.1505,-5.1138,-5.0503,-4.9925,-4.8722,0.0,0.0,0.0,0.0,0.0,0.0,0.0,0.0,0.0,0.0,0.0,-4.2324,-4.1582,0.0,0.0,0.0,-4.1733,-4.1781,-4.1771,-4.2217,0.0,0.0,0.0,0.0,0.0,0.0,0.0,-4.3182,-4.4505,-4.5152,-4.4058,-4.3011,-4.2287,-4.2286,-4.1769,-4.1257,-4.0967,0.0,-4.2487,-4.3342,-4.3471,-4.3654,-4.4121,-4.4182,-4.4236,-4.4474,-4.5114,-4.5631,-4.5692,-4.598,-4.6189,-4.6249,-4.646,-4.6695,-4.6745,-4.7854,-4.8635,-4.8413,-4.854,-4.8758,-4.89,-4.879,-4.8807,-5.4623,-5.4444,-5.0813,-5.0472,-5.2261,-5.2477,-5.3758,-5.5677,-5.5815,-5.503,-5.3934,-5.7476,-5.6742,-5.2783,-5.3623,0.0,-5.7853,-5.7925,-5.8601,-5.9687,-5.9687,-5.8854,-5.7322,-5.7546,-5.7583,-5.7388,-5.7667,-5.7242,-5.6237,-5.5218,-5.4212,-5.3308,-5.338,-5.2788,-5.1693,-5.2673,-5.3351,-5.3592,-5.3795,-5.3842,-5.3675,-5.2522,-5.1858,-5.1733,-5.1672,-5.1708,-5.1647,-5.1556,-5.1556,-5.1647,-5.0399,-4.9688,-4.96,0.0,0.0,0.0,0.0,0.0,0.0,0.0,0.0,0.0,0.0,0.0,0.0,0.0,0.0,0.0,-4.3565,0.0,-4.3558,-4.2871,0.0,0.0,0.0,-4.4611,-4.6566,-4.6896,-4.6814,-4.6467,0.0,0.0,-4.6669,-4.5746,-4.4712,-4.3494,-4.4372,-4.4474,-4.2765,-4.3563,-4.4293,-4.3773,-4.3754,-4.4,-4.4579,-4.5013,-4.5459,-4.5935,-4.6214,-4.6189,-4.6165,-4.6189,-4.6214,-4.6214,-4.6871,-4.7412,-4.7572,-4.8261,-4.8679,-4.797,-4.7986,-4.8199,-4.8338,-4.7945,-4.7811,-5.4526,-5.4523,-5.3825,-5.3905,-5.446,-5.4645,-5.5038,-5.5566,-5.5822,-5.5801,-5.581,-5.7514,-5.8098,-5.7863,-5.9331,-5.9998,-6.007,-6.0684,-6.0811,-6.0494,-6.052,-5.9704,-5.8319,-5.8232,-5.7931,-5.7424,-5.7363,-5.7241,-5.6949,-5.6692,-5.5985,-5.4932,-5.548,-5.458,-5.2289,-5.2526,-5.3177,-5.419,-5.4141,-5.3963,-5.3532,-5.257,-5.2005,-5.1858,-5.1758,-5.1658,-5.1556,-5.1505,-5.1505,-5.1556,-5.1225,-5.0628,-4.9732,-4.8074,0.0,0.0,0.0,0.0,0.0,0.0,0.0,0.0,0.0,-4.3759,-4.3141,0.0,-4.3501,0.0,-4.4091,-4.507,-4.5752,-4.5788,0.0,0.0,-4.6035,-4.6389,-4.7405,-4.8493,-4.8624,-4.7301,-4.8483,-4.8847,-4.7282,-4.6621,-4.6533,-4.7012,-4.4966,-4.3211,-4.2792,-4.3733,-4.4445,-4.4388,-4.4981,-4.561,-4.5708,-4.5905,-4.603,-4.6154,-4.6214,-4.6214,-4.6214,-4.6214,-4.6214,-4.6249,-4.6871,-4.7377,-4.7608,-4.8321,-4.8632,-4.8127,-4.8057,-4.8245,-4.838,-4.7859,-4.7479,-5.4526,-5.4655,-5.49,-5.5048,-5.5229,-5.5413,-5.5507,-5.5507,-5.5706,-5.5993,-5.6399,-5.7559,-5.8645,-5.9687,-6.0892,-6.1245,-6.0883,-6.1643,-6.1571,-6.081,-6.0421,-5.9641,-5.8486,-5.8123,-5.7724,-5.7313,-5.7289,-5.742,-5.7732,-5.7732,-5.7593,-5.7277,-5.7719,-5.6859,-5.4812,-5.3958,-5.377,-5.4215,-5.3907,-5.3698,-5.3544,-5.2702,-5.1969,-5.1622,-5.1521,-5.1341,-5.0999,-5.0919,-5.0919,-5.0999,-5.0594,-5.0276,-5.001,-4.8556,-4.7369,0.0,0.0,0.0,0.0,0.0,0.0,0.0,0.0,0.0,0.0,0.0,-4.5041,-4.4826,-4.6049,-4.7024,-4.7413,-4.7286,-4.7477,-4.8235,-4.8034,-4.8448,-4.9862,-5.0724,-5.0728,-4.9588,-5.0363,-5.0453,-4.9047,-4.8391,-4.826,-4.8951,-4.6646,-4.4836,-4.4861,-4.5117,-4.5277,-4.5312,-4.5775,-4.6214,-4.6214,-4.6214,-4.6214,-4.6214,-4.6214,-4.6214,-4.6214,-4.6214,-4.6214,-4.6284,-4.7202,-4.8041,-4.8236,-4.9245,-4.9831,-4.9279,-4.8925,-4.8601,-4.8066,-4.7651,-4.745,-5.4658,-5.4918,-5.4965,-5.5188,-5.5449,-5.5489,-5.5507,-5.5507,-5.5654,-5.5879,-5.6316,-5.7613,-5.8589,-5.9361,-6.024,-6.0593,-6.053,-6.1435,-6.1471,-6.0747,-6.0194,-5.9506,-5.8709,-5.8112,-5.7713,-5.7514,-5.764,-5.8003,-5.8528,-5.8565,-5.8828,-5.9355,-5.9463,-5.8781,-5.7333,-5.5801,-5.4607,-5.3804,-5.3512,-5.3471,-5.3592,-5.2594,-5.1772,-5.114,-5.1061,-5.0857,-5.0369,-5.0222,-5.0222,-5.0341,-4.9597,-4.9625,-5.0523,-4.8875,-4.8174,0.0,-4.7841,0.0,0.0,0.0,0.0,0.0,0.0,0.0,0.0,-4.6856,-4.6725,-4.7487,-4.8377,-4.8987,-4.8988,-4.8332,-4.8671,-5.0509,-5.0187,-5.059,-5.249,-5.2739,-5.2522,-5.203,-5.1982,-5.1687,-5.0902,-5.0198,-4.9706,-4.9679,-4.8425,-4.7417,-4.7512,-4.675,-4.6119,-4.6214,-4.6214,-4.6214,-4.6214,-4.6214,-4.6214,-4.6214,-4.6214,-4.6214,-4.6214,-4.6214,-4.6214,-4.6354,-4.7568,-4.8741,-4.8962,-5.0303,-5.1175,-5.053,-4.9984,-4.9184,-4.7958,-4.7515,-4.7515,-5.4874,-5.5421,-5.5112,-5.5754,-5.683,-5.5884,-5.5507,-5.5507,-5.5537,-5.5857,-5.6427,-5.7532,-5.7897,-5.7768,-5.918,-5.947,-5.8963,-6.0375,-6.0955,-6.0846,-6.1317,-6.1136,-6.0375,-6.0221,-5.9822,-5.918,-5.917,-5.9243,-5.9398,-5.9361,-5.895,-5.8152,-5.8708,-5.7798,-5.5486,0.0,0.0,0.0,-5.3662,-5.3828,-5.3082,-5.1634,-5.076,-5.0624,-5.0439,0.0,-5.0022,-5.0194,-5.0278,-5.0159,-5.0174,0.0,0.0,0.0,0.0,0.0,0.0,0.0,0.0,0.0,0.0,0.0,-4.9994,-4.9504,-4.8476,-4.816,-4.8473,-4.9442,-4.9337,-4.9889,-5.1419,-5.0962,-5.0971,-5.1979,-5.1966,-5.2108,-5.2513,-5.2513,-5.2268,-5.1822,-5.1712,-5.1485,-5.0972,-5.0233,-4.9987,-5.0417,-4.9293,-4.8661,-4.9118,-4.7538,-4.6284,-4.6214,-4.6284,-4.6214,-4.6214,-4.6214,-4.6214,-4.6214,-4.6214,-4.6214,-4.6214,-4.6214,-4.6214,-4.6249,-4.7628,-4.8837,-4.9033,-5.0363,-5.1332,-5.076,-5.0546,-5.002,-4.8592,-4.7839,-4.7515,-5.5874,0.0,-5.6189,-5.6593,0.0,-5.683,-5.6631,-5.6596,-5.5823,-5.5976,-5.6906,-5.7684,-5.8096,-5.8316,-5.9227,-5.9615,-5.9651,-6.0846,-6.1399,-6.1426,-6.1426,-6.0991,-6.0231,-6.0231,-5.9796,-5.9035,-5.9434,-5.9832,-6.0194,-6.0168,-6.0088,-5.9862,-5.9835,-5.8906,-5.7118,-5.6572,-5.5526,-5.3904,-5.4034,-5.3985,-5.3767,-5.2549,-5.1555,-5.0875,0.0,0.0,0.0,0.0,0.0,0.0,0.0,0.0,0.0,0.0,0.0,-5.2319,-5.1891,-5.1822,-5.2278,-5.2488,-5.2627,-5.2827,-5.2697,-5.1863,-5.0185,-5.011,-5.0464,-5.1093,-5.0916,-5.1227,-5.2255,-5.2095,-5.2045,-5.2444,-5.248,-5.248,-5.2374,-5.2361,-5.2173,-5.1687,-5.1551,-5.1434,-5.0954,-5.0584,-5.0452,-5.0768,-4.989,-4.9223,-4.9469,-4.838,-4.7337,-4.7302,-4.6986,-4.68,-4.674,-4.6425,-4.6214,-4.6214,-4.6214,-4.6214,-4.6214,-4.6214,-4.6344,-4.684,-4.801,-4.9018,-4.9628,-5.0688,-5.1408,-5.0855,-5.0761,-5.0473,-4.9401,-4.8604,-4.802,-5.6874,-5.7011,-5.7166,-5.7431,-5.7704,-5.7744,-5.7689,-5.7509,0.0,0.0,0.0,-5.7933,-5.8601,-5.9402,-5.9536,-5.9951,-6.0629,-6.1399,-6.1797,-6.1761,-6.1136,-6.0448,-5.9832,-5.9651,-5.9289,-5.8673,-5.9289,-6.0013,-6.0774,-6.081,-6.1218,-6.1869,-6.1181,-6.0232,-5.9123,-5.7585,-5.6374,-5.5623,-5.4545,-5.4135,-5.4403,-5.3616,-5.2666,-5.1485,-5.1291,-5.1322,-5.1476,-5.1372,-5.1466,-5.1855,-5.1703,-5.1772,-5.2209,-5.2039,-5.2241,-5.2916,-5.2962,-5.3366,-5.4338,-5.4401,-5.4575,-5.4964,-5.4444,-5.355,-5.2248,-5.2334,-5.2413,-5.2522,-5.2509,-5.2544,-5.2516,-5.248,-5.248,-5.248,-5.2434,-5.2304,-5.2197,-5.2114,-5.1897,-5.1475,-5.1398,-5.1331,-5.0954,-5.0873,-5.0908,-5.0803,-5.0311,-4.9916,-4.9811,-4.9082,-4.8284,-4.8099,-4.7608,-4.7327,-4.7116,-4.6635,-4.6249,-4.6214,-4.6214,-4.6214,-4.6214,-4.6319,-4.6745,-4.7371,-4.8427,-4.9401,-5.019,-5.1062,-5.1497,-5.1036,-5.1048,-5.095,-5.0295,-4.9631,-4.8967,-5.7185,-5.7702,-5.7209,-5.7892,-5.9203,-5.8037,-5.725,-5.6842,-5.7414,-5.7936,-5.833,-5.8495,-5.8904,-5.9402,-5.9429,-5.9545,-5.9806,-6.0629,-6.0991,0.0,-6.0846,-6.0711,-6.0566,-5.9941,-5.9542,-5.947,-5.9579,-6.0013,-6.0738,-6.081,-6.1208,-6.1797,-6.1073,-5.9808,-5.8242,-5.7137,-5.6555,-5.6385,-5.5365,-5.4491,-5.3735,-5.3127,-5.2676,-5.2485,-5.1708,-5.1315,-5.1333,-5.0863,-5.0578,-5.0689,-5.1198,-5.2031,-5.3141,-5.3127,-5.3639,-5.4677,-5.4198,-5.3905,-5.4065,-5.4065,-5.4091,-5.4108,-5.3621,-5.3673,-5.4721,-5.4511,-5.4037,-5.3436,-5.3363,-5.3217,-5.2625,-5.248,-5.248,-5.2457,-5.2162,-5.1922,-5.2042,-5.1586,-5.128,-5.1289,-5.1105,-5.1008,-5.09,-5.0908,-5.0908,-5.0873,-5.0733,-5.0662,-5.0452,-4.9469,-4.838,-4.7748,-4.7467,-4.7116,-4.674,-4.6354,-4.6249,-4.6214,-4.6214,-4.6214,-4.6239,-4.673,-4.7262,-4.7572,-4.8912,-4.9923,-5.0332,-5.1173,-5.1703,-5.1742,-5.1898,-5.1788,-5.1203,-5.09,-5.0393,-5.7809,-5.8461,-5.8318,-5.876,-5.9551,-5.9112,-5.878,-5.8558,-5.9065,-5.8931,-5.8426,-5.8616,-5.9337,-6.0344,-6.0151,-6.0296,-6.0847,-6.1227,-6.1435,-6.1462,-6.1435,-6.1218,-6.0846,-6.0883,-6.0701,-6.0303,-6.0711,-6.0883,-6.0783,-6.0729,-6.0675,-6.0531,-5.9583,-5.8448,-5.7317,-5.6725,-5.6492,-5.6492,-5.5999,-5.5347,-5.4491,-5.4201,-5.3851,-5.3399,-5.2956,-5.2752,-5.2752,-5.249,-5.2322,-5.2157,-5.2576,-5.3011,-5.3344,-5.3564,-5.3931,-5.4394,-5.4153,-5.4001,-5.4001,-5.4001,-5.4001,-5.3966,-5.3852,-5.4087,-5.4804,-5.3938,-5.3255,-5.2965,-5.3036,-5.2915,-5.2516,-5.248,-5.241,-5.2162,-5.2042,-5.1786,-5.146,-5.128,-5.1105,-5.0972,-5.0927,-5.0908,-5.0908,-5.0908,-5.0908,-5.0908,-5.0908,-5.0908,-5.0908,-5.0311,-4.9714,-4.9328,-4.8942,-4.831,-4.7547,-4.7091,-4.6705,-4.6284,-4.6214,-4.6239,-4.6347,-4.697,-4.7703,-4.8371,-4.9462,-5.0343,-5.0895,-5.1472,-5.1896,-5.2078,-5.2198,-5.2136,-5.1986,-5.1692,-5.0808,-5.828,-5.9012,-5.9183,-5.9352,-5.9654,-5.9946,-6.0001,-5.9893,-6.0019,-5.9505,-5.8627,-5.8957,-5.9974,-6.1185,-6.0911,-6.1151,-6.1748,-6.1895,-6.195,-6.1978,-6.1797,-6.1399,-6.0856,-6.1317,-6.1136,-6.0638,-6.1118,-6.1191,-6.0766,-6.0621,-6.025,-5.9511,-5.8537,-5.7639,-5.6832,-5.6545,-5.6383,-5.6383,-5.6383,-5.6097,-5.5491,-5.5491,-5.5143,-5.4572,-5.4358,-5.4251,-5.4251,-5.4108,-5.3922,-5.3735,-5.3896,-5.3807,-5.3509,-5.3638,-5.3725,-5.362,-5.3521,-5.3466,-5.3466,-5.3466,-5.3492,-5.3518,-5.3749,-5.39,-5.3842,-5.2967,-5.2472,-5.271,-5.2842,-5.2733,-5.2552,-5.248,-5.234,-5.1933,-5.1884,-5.1672,-5.1044,-5.1052,-5.1026,-5.0757,-5.0819,-5.0908,-5.0908,-5.0908,-5.0908,-5.0908,-5.0908,-5.0908,-5.0908,-5.0908,-5.0908,-5.0697,-5.0092,-4.9047,-4.838,-4.7573,-4.6896,-4.6298,-4.6253,-4.6301,-4.6539,-4.7223,-4.8109,-4.9015,-4.9977,-5.0798,-5.1565,-5.1858,-5.2005,-5.2126,-5.2246,-5.2387,-5.2431,-5.2123,-5.1332,-5.8246,-5.8944,-5.9012,-5.9251,-5.9621,-5.9946,-5.9721,-5.9194,-5.9124,-5.9143,-5.9188,-6.0164,-6.082,-6.1263,-6.1221,-6.1458,-6.1756,-6.1784,-6.1868,-6.1906,-6.1218,-6.0883,-6.0783,-6.0204,-5.9796,-5.977,-5.9844,-6.0187,-6.0593,-6.0447,-6.0272,-5.9952,-5.9279,-5.8371,-5.7509,-5.6767,-5.6383,-5.6383,-5.6383,-5.6383,-5.6311,-5.6276,-5.624,-5.6169,-5.5455,-5.5098,-5.5027,-5.4358,-5.4001,-5.3975,-5.3975,-5.3975,-5.3877,-5.3359,-5.2993,-5.2993,-5.2315,-5.1886,-5.1922,-5.1886,-5.2044,-5.2072,-5.2292,-5.2438,-5.257,-5.2532,-5.2783,-5.3313,-5.353,-5.3168,-5.2589,-5.248,-5.2364,-5.2018,-5.1736,-5.1408,-5.1211,-5.0919,-5.0729,-5.0873,-5.0908,-5.0908,-5.0908,-5.0908,-5.0908,-5.0908,-5.0908,-5.0908,-5.0908,-5.0908,-5.0908,-5.0662,-4.9679,-4.8521,-4.7748,-4.6846,-4.6534,-4.6385,-4.6398,-4.6447,-4.679,-4.7758,-4.8905,-4.9195,-5.0428,-5.1393,-5.1701,-5.198,-5.2102,-5.2222,-5.2364,-5.2503,-5.2581,-5.2504,-5.2053,-5.7557,-5.8317,-5.8771,-5.9251,-5.9654,-5.9946,-5.9931,-5.9685,-5.965,-5.9745,-5.9968,-6.0468,-6.0788,-6.1028,-6.1205,-6.1386,-6.1501,-6.1615,-6.1736,-6.172,-6.1432,-6.1287,-6.1251,-6.0963,-6.0818,-6.0782,-6.0699,-6.06,-6.042,-5.9885,-5.9243,-5.8637,-5.8315,-5.7751,-5.6918,-5.6561,-5.6383,-5.6383,-5.6383,-5.6383,-5.6383,-5.6383,-5.6383,-5.6347,-5.6097,-5.5669,-5.5241,-5.4857,-5.4501,-5.4037,-5.4001,-5.4001,-5.4001,-5.3706,-5.335,-5.2911,-5.2161,-5.1708,-5.1708,-5.1708,-5.1758,-5.1918,-5.2029,-5.215,-5.2269,-5.2446,-5.2661,-5.2915,-5.2987,-5.2842,-5.2552,-5.2513,-5.2351,-5.1835,-5.1626,-5.1449,-5.0946,-5.0838,-5.0819,-5.0873,-5.0908,-5.0908,-5.0908,-5.0908,-5.0908,-5.0908,-5.0908,-5.0908,-5.0908,-5.0908,-5.0908,-5.0795,-5.0005,-4.9055,-4.823,-4.7508,-4.6924,-4.6539,-4.6471,-4.6566,-4.6932,-4.8021,-4.9135,-4.9268,-5.061,-5.1612,-5.1858,-5.2005,-5.215,-5.2293,-5.2421,-5.2581,-5.259,-5.2761,-5.2667,-5.692,-5.785,-5.8806,-5.9319,-5.9654,-5.9946,-6.0072,-6.0072,-6.0072,-6.0171,-6.0297,-6.0516,-6.0671,-6.0788,-6.1087,-6.127,-6.1328,-6.1444,-6.1566,-6.1559,-6.1587,-6.1587,-6.1587,-6.1587,-6.1587,-6.1559,-6.153,-6.1186,-6.0547,-5.968,-5.8887,-5.8267,-5.7838,-5.7338,-5.6775,-5.6561,-5.6383,-5.6383,-5.6383,-5.6383,-5.6383,-5.6383,-5.6383,-5.6383,-5.6383,-5.6133,-5.5598,-5.5526,-5.5277,-5.4706,-5.4465,-5.4322,-5.4322,-5.4108,-5.3778,-5.3242,-5.2671,-5.2315,-5.235,-5.2136,-5.2105,-5.2218,-5.2197,-5.2174,-5.2317,-5.247,-5.248,-5.2552,-5.2697,-5.2842,-5.2503,-5.2467,-5.2173,-5.1576,-5.1637,-5.1383,-5.0811,-5.0819,-5.0908,-5.0908,-5.0908,-5.0908,-5.0908,-5.0908,-5.0908,-5.0908,-5.0908,-5.0908,-5.0908,-5.0908,-5.0908,-5.0873,-5.0304,-4.9661,-4.902,-4.8418,-4.7682,-4.7225,-4.7145,-4.7417,-4.737,-4.8567,-4.9528,-4.9982,-5.103,-5.1665,-5.192,-5.2078,-5.2222,-5.2364,-5.2513,-5.2635,-5.2761,-5.2893,-5.298,-5.6536,-5.7887,-5.9081,-5.9588,-5.9654,-5.9946,-6.0107,-6.0177,-6.0142,-6.0142,-6.0241,-6.0489,-6.0609,-6.064,-6.0974,-6.1182,-6.1299,-6.1328,-6.1415,-6.153,-6.1559,-6.1595,-6.1587,-6.1587,-6.1595,-6.153,-6.1386,-6.1234,-6.101,-6.0237,-5.9844,-5.9701,-5.8381,-5.7624,-5.7453,-5.6882,-5.6418,-5.649,-5.649,-5.6418,-5.6383,-5.6383,-5.6383,-5.6383,-5.6383,-5.6347,-5.6311,-5.6311,-5.6276,-5.624,-5.5526,-5.5169,-5.5098,-5.4429,-5.4037,-5.393,-5.3894,-5.3823,-5.3716,-5.3207,-5.2977,-5.3095,-5.2641,-5.2294,-5.2578,-5.2625,-5.2589,-5.248,-5.3155,-5.33,-5.2697,-5.2485,-5.2114,-5.1722,-5.1444,-5.1211,-5.09,-5.0873,-5.0908,-5.0908,-5.0908,-5.0908,-5.0908,-5.0908,-5.0908,-5.0908,-5.0908,-5.0908,-5.0908,-5.0908,-5.0935,-5.0822,-5.0409,-4.9889,-4.9783,-4.9144,-4.8526,-4.8174,-4.8222,-4.8721,-4.8924,-4.9246,-4.9924,-5.0591,-5.1307,-5.1799,-5.2018,-5.2222,-5.2364,-5.2467,-5.2581,-5.2694,-5.2806,-5.2915,-5.306,-5.6387,-5.7887,-5.9081,-5.9621,-5.9654,-5.9946,-6.0388,-6.0879,-6.0879,-6.0879,-6.0911,-6.1104,-6.098,-6.0609,-6.0818,-6.0998,-6.1152,-6.1182,-6.1211,-6.1306,-6.127,-6.127,-6.127,-6.127,-6.127,-6.127,-6.1211,-6.1152,-6.1093,-6.0808,-6.0415,-5.9916,-5.938,-5.8845,-5.8345,-5.7996,-5.7667,-5.7204,-5.7168,-5.6918,-5.6418,-5.6383,-5.6383,-5.6383,-5.6383,-5.6383,-5.6383,-5.6383,-5.6383,-5.6383,-5.6097,-5.5955,-5.5883,-5.5241,-5.4777,-5.4741,-5.4287,-5.4001,-5.3966,-5.3856,-5.3867,-5.3983,-5.3891,-5.3556,-5.3338,-5.3241,-5.3059,-5.2793,-5.3367,-5.3654,-5.3499,-5.3157,-5.2594,-5.1918,-5.1536,-5.1237,-5.0981,-5.0908,-5.0908,-5.0908,-5.0908,-5.0908,-5.0908,-5.0908,-5.0908,-5.0908,-5.0908,-5.0908,-5.0935,-5.0954,-5.1008,-5.1034,-5.0981,-5.0925,-5.0925,-4.9841,-4.9028,-4.8946,-4.8994,-4.9114,-4.9257,-4.9817,-5.0495,-5.0733,-5.1404,-5.1909,-5.2126,-5.2293,-5.2457,-5.2549,-5.2604,-5.2739,-5.285,-5.3017,-5.3103,-5.6671,-5.7737,-5.932,-6.0046,-6.008,-6.0616,-6.116,-6.1616,-6.1406,-6.1333,-6.1363,-6.1277,-6.1011,-6.0737,-6.0818,-6.0968,-6.1093,-6.1093,-6.1093,-6.1093,-6.1093,-6.1093,-6.1093,-6.1093,-6.1093,-6.1093,-6.1093,-6.1093,-6.1058,-6.0843,-6.0415,-5.9951,-5.9637,-5.9244,-5.8745,-5.8488,-5.806,-5.766,-5.7374,-5.6918,-5.6454,-5.6383,-5.6383,-5.6383,-5.6383,-5.6383,-5.6383,-5.6383,-5.6383,-5.6383,-5.6383,-5.6383,-5.6347,-5.5883,-5.5598,-5.5526,-5.5098,-5.4803,-5.4794,-5.4756,-5.4707,-5.4813,-5.4733,-5.4496,-5.4122,-5.4074,-5.3675,-5.3324,-5.4054,-5.4688,-5.4132,-5.3867,-5.3326,-5.235,-5.1653,-5.1184,-5.0927,-5.0908,-5.0908,-5.0908,-5.0908,-5.0908,-5.0908,-5.0908,-5.0908,-5.0908,-5.0935,-5.0989,-5.0989,-5.1061,-5.1141,-5.1167,-5.1324,-5.1383,-5.1373,-5.0652,-4.9955,-4.9826,-4.9969,-4.9935,-4.9888,-5.0423,-5.084,-5.1033,-5.1381,-5.185,-5.2198,-5.2364,-5.248,-5.2572,-5.2708,-5.2806,-5.2952,-5.3082,-5.3182,-5.7486,-5.7423,-5.9824,-6.0625,-6.0735,-6.1531,-6.2213,-6.2106,-6.1614,-6.1395,-6.1453,-6.0976,-6.0848,-6.0818,-6.0938,-6.1064,-6.1093,-6.1093,-6.1093,-6.1093,-6.1093,-6.1093,-6.1093,-6.1093,-6.1093,-6.1093,-6.1093,-6.1093,-6.1058,-6.0487,-6.0094,-5.9844,-5.928,-5.8959,-5.8709,-5.8167,-5.7703,-5.7517,-5.6954,-5.6525,-5.6383,-5.6383,-5.6383,-5.6383,-5.6383,-5.6383,-5.6383,-5.6383,-5.6383,-5.6383,-5.6383,-5.6383,-5.6383,-5.6311,-5.6347,-5.6276,-5.6311,-5.6393,-5.6358,-5.5812,-5.5574,-5.5682,-5.5205,-5.499,-5.4919,-5.4907,-5.4581,-5.4168,-5.5119,-5.5816,-5.4706,-5.4482,-5.4168,-5.3203,-5.1941,-5.0989,-5.1005,-5.0943,-5.0908,-5.0908,-5.097,-5.0908,-5.0935,-5.0927,-5.0954,-5.0954,-5.1008,-5.1088,-5.1123,-5.122,-5.1298,-5.1324,-5.1428,-5.1531,-5.1582,-5.1536,-5.1087,-5.0816,-5.1076,-5.1173,-5.078,-5.103,-5.1294,-5.1547,-5.1718,-5.215,-5.2317,-5.248,-5.2572,-5.2627,-5.2761,-5.285,-5.3017,-5.3103,-5.3146,-5.706,-5.6599,-5.8442,-5.9336,-5.9564,-6.0179,-6.0957,-6.1905,-6.1725,-6.1687,-6.1679,-6.1498,-6.1198,-6.0859,-6.0878,-6.1004,-6.1093,-6.1093,-6.1093,-6.1129,-6.1093,-6.1093,-6.1093,-6.1093,-6.1093,-6.1093,-6.1093,-6.1093,-6.1058,-6.0808,-6.0736,-6.0594,-5.9916,-5.953,-5.9423,-5.8745,-5.8167,-5.7632,-5.7374,-5.6954,-5.6454,-5.6383,-5.6383,-5.6383,-5.6383,-5.6383,-5.6383,-5.6383,-5.6383,-5.6383,-5.6383,-5.6383,-5.6383,-5.6383,-5.6383,-5.641,-5.6492,-5.6546,-5.6591,-5.6534,-5.6485,-5.6587,-5.6472,-5.6186,-5.574,-5.5692,-5.5402,-5.4914,-5.5898,-5.6432,-5.6309,-5.6094,-5.546,-5.4278,-5.2261,-5.1146,-5.147,-5.161,-5.14,-5.1076,-5.1411,-5.1536,-5.1175,-5.1123,-5.1141,-5.1167,-5.1193,-5.122,-5.1246,-5.135,-5.1428,-5.1454,-5.1556,-5.1704,-5.1836,-5.18,-5.154,-5.1315,-5.1565,-5.1672,-5.1422,-5.1401,-5.1701,-5.1932,-5.2102,-5.2269,-5.2434,-5.2549,-5.2604,-5.2694,-5.2806,-5.2915,-5.3039,-5.3103,-5.3146,-5.7399,-5.6963,-5.8648,-5.954,-5.9882,-6.0492,-6.1291,-6.2104,-6.1923,-6.1947,-6.2104,-6.1884,-6.1592,-6.1259,-6.1153,-6.1067,-6.104,-6.0968,-6.1212,-6.1414,-6.12,-6.1093,-6.1093,-6.1093,-6.1093,-6.1093,-6.1093,-6.1093,-6.1093,-6.1093,-6.095,-6.0594,-6.0165,-5.9737,-5.9423,-5.8674,-5.8024,-5.7624,-5.7275,-5.6882,-5.649,-5.6383,-5.6383,-5.6383,-5.6383,-5.6383,-5.6383,-5.6383,-5.6383,-5.6383,-5.6383,-5.6383,-5.6383,-5.6437,-5.6465,-5.6492,-5.66,-5.6707,-5.676,-5.6881,-5.701,-5.7061,-5.7138,-5.7007,-5.6561,-5.6502,-5.6309,-5.5858,-5.6681,-5.7317,-5.7125,-5.6868,-5.637,-5.5946,-5.3325,-5.1767,-5.1728,-5.1856,-5.1821,-5.1567,-5.1852,-5.1871,-5.1679,-5.1326,-5.1334,-5.1298,-5.135,-5.1376,-5.1402,-5.1479,-5.1637,-5.1724,-5.1775,-5.1933,-5.2101,-5.2029,-5.1886,-5.1815,-5.1886,-5.1779,-5.1601,-5.164,-5.1858,-5.2078,-5.2246,-5.234,-5.2503,-5.2559,-5.2649,-5.2761,-5.285,-5.2959,-5.3103,-5.3124,-5.3203,-5.8268,-5.8169,-5.9929,-6.0671,-6.106,-6.1927,-6.2348,-6.2579,-6.2092,-6.215,-6.2505,-6.2171,-6.1848,-6.1777,-6.1667,-6.1406,-6.0894,-6.0848,-6.1336,-6.1747,-6.1521,-6.1093,-6.1093,-6.1236,-6.1236,-6.1093,-6.1093,-6.1093,-6.1093,-6.1093,-6.0701,-6.0058,-5.9951,-5.9487,-5.8852,-5.8024,-5.781,-5.7703,-5.7061,-5.674,-5.6668,-5.6633,-5.6633,-5.6668,-5.6597,-5.6561,-5.6561,-5.6454,-5.6383,-5.6383,-5.6383,-5.641,-5.6446,-5.6519,-5.6573,-5.6626,-5.676,-5.6865,-5.6995,-5.701,-5.7061,-5.7163,-5.7188,-5.7188,-5.7105,-5.7206,-5.7134,-5.6514,-5.7469,-5.7906,-5.7324,-5.7096,-5.7124,-5.7175,-5.4564,-5.2536,-5.1333,-5.1786,-5.2102,-5.2165,-5.2177,-5.2251,-5.2208,-5.1706,-5.1501,-5.1376,-5.1454,-5.1505,-5.1566,-5.1785,-5.2147,-5.2243,-5.2279,-5.2564,-5.2886,-5.2779,-5.2671,-5.2707,-5.2671,-5.2493,-5.233,-5.2369,-5.2494,-5.2678,-5.2593,-5.2614,-5.2599,-5.2727,-5.2744,-5.2761,-5.2893,-5.306,-5.3124,-5.3167,-5.3203,-5.8,-5.7506,-5.8464,-5.9249,-5.9844,-6.0353,-6.0969,-6.1567,-6.1849,-6.2053,-6.225,-6.2505,-6.2312,-6.1848,-6.1848,-6.1384,-6.0919,-6.0828,-6.1245,-6.1839,-6.139,-6.1129,-6.1236,-6.1664,-6.1628,-6.1165,-6.1093,-6.1093,-6.1093,-6.1093,-6.0665,-5.9951,-5.9916,-5.9458,-5.8745,-5.846,-5.8424,-5.8417,-5.8238,-5.806,-5.8024,-5.8024,-5.8103,-5.806,-5.756,-5.7275,-5.7231,-5.6704,-5.6383,-5.6383,-5.6383,-5.6437,-5.6519,-5.66,-5.668,-5.676,-5.6855,-5.6959,-5.701,-5.7087,-5.7163,-5.7188,-5.7188,-5.7188,-5.7188,-5.7437,-5.7497,-5.747,-5.8,-5.8267,-5.8089,-5.8095,-5.7707,-5.6394,-5.4802,-5.3397,-5.2752,-5.2762,-5.2874,-5.2937,-5.3444,-5.3337,-5.274,-5.2307,-5.2048,-5.177,-5.1643,-5.1704,-5.1811,-5.2192,-5.2636,-5.2921,-5.31,-5.3421,-5.3609,-5.3564,-5.3528,-5.3609,-5.3635,-5.3635,-5.3534,-5.3591,-5.3839,-5.4073,-5.3544,-5.3422,-5.3202,-5.3149,-5.3022,-5.2893,-5.2995,-5.3124,-5.3146,-5.3203,-5.3203,-5.8088,-5.7833,-5.8394,-5.9036,-5.9572,-5.9971,-6.0482,-6.1084,-6.1452,-6.1952,-6.2369,-6.271,-6.28,-6.2579,-6.2543,-6.2184,-6.1577,-6.1628,-6.2213,-6.2911,-6.275,-6.2128,-6.1521,-6.1628,-6.1521,-6.1165,-6.1093,-6.1093,-6.1093,-6.1093,-6.0665,-6.0058,-5.9916,-5.9458,-5.8745,-5.8674,-5.8709,-5.8674,-5.8674,-5.8674,-5.8674,-5.8674,-5.8674,-5.8638,-5.8238,-5.7953,-5.7588,-5.7132,-5.6775,-5.6517,-5.6437,-5.6519,-5.66,-5.6733,-5.6812,-5.6917,-5.6984,-5.7087,-5.7087,-5.7163,-5.7188,-5.7188,-5.7188,-5.7264,-5.7363,-5.7595,-5.7726,-5.7867,-5.8179,-5.8334,-5.8363,-5.8529,-5.7906,-5.6685,-5.5455,-5.4366,-5.3366,-5.3436,-5.3704,-5.3901,-5.419,-5.4409,-5.3512,-5.3078,-5.264,-5.2254,-5.1861,-5.2029,-5.2208,-5.2697,-5.3233,-5.3635,-5.3849,-5.4063,-5.4215,-5.418,-5.4313,-5.4394,-5.4759,-5.4723,-5.4532,-5.4553,-5.4597,-5.4663,-5.4363,-5.4134,-5.3878,-5.3572,-5.3249,-5.3178,-5.3207,-5.3182,-5.3203,-5.335,-5.335,-5.8427,-5.8624,-5.903,-5.952,-5.9979,-6.043,-6.0687,-6.1054,-6.1226,-6.1835,-6.257,-6.2856,-6.3032,-6.3481,-6.3165,-6.3125,-6.2617,-6.2599,-6.3211,-6.3622,-6.3672,-6.2913,-6.1272,-6.1379,-6.1343,-6.1129,-6.1093,-6.1093,-6.1093,-6.1093,-6.0665,-6.0165,-6.0023,-5.9601,-5.9173,-5.8995,-5.8995,-5.9137,-5.9209,-5.9244,-5.9244,-5.9244,-5.9244,-5.9209,-5.8959,-5.8517,-5.8009,-5.7616,-5.7295,-5.6616,-5.6617,-5.6626,-5.668,-5.6881,-5.6984,-5.701,-5.7112,-5.7163,-5.7188,-5.7188,-5.7188,-5.7188,-5.7213,-5.7313,-5.7571,-5.7763,-5.7904,-5.7973,-5.8223,-5.8349,-5.8334,-5.8422,-5.8068,-5.7182,-5.6429,-5.5287,-5.415,-5.4042,-5.4435,-5.4684,-5.4832,-5.4937,-5.4641,-5.3993,-5.3064,-5.2671,-5.2422,-5.26,-5.285,-5.3314,-5.3992,-5.4706,-5.4741,-5.467,-5.4777,-5.4813,-5.5027,-5.5205,-5.5741,-5.5821,-5.5307,-5.5184,-5.513,-5.5074,-5.5136,-5.4894,-5.4471,-5.4153,-5.3759,-5.3492,-5.3573,-5.3402,-5.3298,-5.3555,-5.3665,-5.8427,-5.861,-5.8701,-5.9152,-5.9728,-6.0044,-6.0374,-6.0837,-6.1528,-6.1897,-6.2276,-6.2662,-6.2873,-6.2926,-6.2926,-6.2718,-6.2598,-6.2855,-6.2927,-6.2674,-6.2776,-6.2235,-6.1414,-6.1664,-6.1628,-6.1272,-6.1093,-6.1093,-6.1093,-6.1022,-6.0701,-6.0094,-6.0451,-6.0451,-5.9844,-6.0165,-6.0558,-6.0594,-6.0522,-6.0451,-6.0415,-6.0451,-6.0415,-6.038,-5.9922,-5.9331,-5.8693,-5.8112,-5.7738,-5.7505,-5.7003,-5.6733,-5.6891,-5.6959,-5.7036,-5.7112,-5.7163,-5.7188,-5.7188,-5.7188,-5.7188,-5.7239,-5.7388,-5.751,-5.7619,-5.7927,-5.8042,-5.8065,-5.826,-5.8371,-5.8422,-5.8486,-5.8231,-5.7674,-5.7146,-5.6667,-5.6129,-5.5202,-5.4924,-5.5305,-5.5532,-5.5532,-5.5103,-5.4838,-5.4029,-5.3252,-5.31,-5.3242,-5.3599,-5.3992,-5.4634,-5.5384,-5.5562,-5.5455,-5.5491,-5.5526,-5.5598,-5.5759,-5.626,-5.6617,-5.6067,-5.6006,-5.6024,-5.6063,-5.6102,-5.5752,-5.5221,-5.5036,-5.4738,-5.434,-5.3976,-5.3916,-5.3922,-5.4032,-5.4142,-5.8367,-5.8473,-5.8564,-5.8972,-5.9508,-5.987,-6.0259,-6.076,-6.1301,-6.175,-6.2037,-6.2391,-6.2578,-6.2761,-6.28,-6.2849,-6.3171,-6.3643,-6.3683,-6.3333,-6.2968,-6.2567,-6.2092,-6.1807,-6.145,-6.1129,-6.1093,-6.1093,-6.1093,-6.1058,-6.0915,-6.0522,-6.0915,-6.0843,-6.0522,-6.0879,-6.1022,-6.1022,-6.1093,-6.1093,-6.1093,-6.1093,-6.1093,-6.1058,-6.0665,-6.0181,-5.9537,-5.8785,-5.8322,-5.7954,-5.727,-5.6865,-5.6959,-5.7036,-5.7112,-5.7163,-5.7188,-5.7188,-5.7188,-5.7188,-5.7239,-5.7363,-5.751,-5.7679,-5.7834,-5.8042,-5.8125,-5.8125,-5.8193,-5.8246,-5.8422,-5.8443,-5.829,-5.7969,-5.7653,-5.7389,-5.6968,-5.5927,-5.5384,-5.5907,-5.6063,-5.5948,-5.5692,-5.5399,-5.4999,-5.4206,-5.3671,-5.3813,-5.4349,-5.4777,-5.5169,-5.5776,-5.6097,-5.624,-5.624,-5.624,-5.6169,-5.625,-5.6456,-5.6707,-5.6525,-5.6717,-5.7004,-5.6873,-5.667,-5.6429,-5.5995,-5.5811,-5.5587,-5.5117,-5.4767,-5.4613,-5.4656,-5.484,-5.495,-5.8274,-5.8321,-5.8473,-5.8792,-5.9209,-5.9696,-6.013,-6.0591,-6.0919,-6.1342,-6.1756,-6.1837,-6.2161,-6.2629,-6.2711,-6.3124,-6.3648,-6.3939,-6.3791,-6.3798,-6.3151,-6.299,-6.279,-6.2062,-6.1486,-6.1272,-6.1165,-6.1129,-6.1093,-6.1093,-6.1058,-6.1058,-6.1058,-6.1022,-6.1058,-6.1093,-6.1093,-6.1093,-6.1093,-6.1093,-6.1093,-6.1093,-6.1093,-6.1117,-6.1081,-6.0876,-6.0303,-5.9542,-5.8835,-5.8392,-5.7624,-5.7263,-5.718,-5.7149,-5.7213,-5.7213,-5.7213,-5.7213,-5.7239,-5.7239,-5.7289,-5.7559,-5.7655,-5.7821,-5.8088,-5.8133,-5.8193,-5.817,-5.8156,-5.8133,-5.8371,-5.8415,-5.829,-5.8082,-5.7992,-5.7724,-5.734,-5.6546,-5.6384,-5.6412,-5.6374,-5.6166,-5.6051,-5.5829,-5.5499,-5.5143,-5.4643,-5.4429,-5.4955,-5.5419,-5.5776,-5.599,-5.6276,-5.6383,-5.6383,-5.641,-5.641,-5.6519,-5.6653,-5.6786,-5.6829,-5.6984,-5.7163,-5.7213,-5.7046,-5.683,-5.6746,-5.6671,-5.635,-5.582,-5.5595,-5.5515,-5.5574,-5.5706,-5.578,-5.8089,-5.8321,-5.8367,-5.8473,-5.8792,-5.9209,-5.9696,-6.013,-6.0591,-6.0928,-6.1252,-6.1252,-6.1628,-6.2037,-6.2156,-6.2591,-6.3059,-6.3121,-6.3099,-6.3307,-6.2912,-6.282,-6.303,-6.2567,-6.2128,-6.1914,-6.1521,-6.12,-6.1093,-6.1093,-6.1093,-6.1093,-6.1093,-6.1093,-6.1093,-6.1093,-6.1093,-6.1093,-6.1093,-6.1093,-6.1093,-6.1123,-6.1152,-6.1241,-6.127,-6.1308,-6.1112,-6.0114,-5.933,-5.9309,-5.8611,-5.8249,-5.8042,-5.7634,-5.7456,-5.7397,-5.7372,-5.7384,-5.7325,-5.7264,-5.7338,-5.7559,-5.7774,-5.8006,-5.8209,-5.829,-5.8305,-5.826,-5.817,-5.8111,-5.8371,-5.8415,-5.8502,-5.8422,-5.8216,-5.8105,-5.8194,-5.7724,-5.704,-5.6964,-5.6697,-5.641,-5.6349,-5.6241,-5.5883,-5.574,-5.5526,-5.5169,-5.5312,-5.5776,-5.6169,-5.6276,-5.6347,-5.6383,-5.6383,-5.641,-5.641,-5.6546,-5.6671,-5.6855,-5.6959,-5.7087,-5.7188,-5.7412,-5.7437,-5.7291,-5.7279,-5.735,-5.7152,-5.6658,-5.6483,-5.6418,-5.6381,-5.6418,-5.6565,-5.8089,-5.8274,-5.8321,-5.8381,-5.8655,-5.9107,-5.9564,-6.0044,-6.0473,-6.0877,-6.1002,-6.1119,-6.1252,-6.1465,-6.1547,-6.1917,-6.2339,-6.2628,-6.2724,-6.3025,-6.2927,-6.2951,-6.3274,-6.2951,-6.2918,-6.2663,-6.2128,-6.145,-6.1129,-6.1093,-6.1093,-6.1093,-6.1093,-6.1093,-6.1093,-6.1093,-6.1093,-6.1093,-6.1093,-6.1093,-6.1123,-6.1152,-6.127,-6.1299,-6.1415,-6.1559,-6.1512,-6.0738,-6.0106,-6.0033,-5.947,-5.9144,-5.8916,-5.875,-5.8341,-5.805,-5.7905,-5.7663,-5.7447,-5.7375,-5.7534,-5.7774,-5.8006,-5.8209,-5.8319,-5.8378,-5.8349,-5.8238,-5.8238,-5.8193,-5.8371,-5.8437,-5.8529,-5.8614,-5.8492,-5.8593,-5.8656,-5.8282,-5.7932,-5.7497,-5.7166,-5.6923,-5.6714,-5.6563,-5.625,-5.6169,-5.6232,-5.6053,-5.5767,-5.6026,-5.6383,-5.6465,-5.6492,-5.6537,-5.6564,-5.6653,-5.6671,-5.6776,-5.6881,-5.7061,-5.7239,-5.7412,-5.7607,-5.7834,-5.775,-5.7607,-5.757,-5.7556,-5.7491,-5.7474,-5.7313,-5.7189,-5.7116,-5.7152,-5.7226,-5.8011,-5.8321,-5.8321,-5.8381,-5.861,-5.8972,-5.9431,-5.9957,-6.0345,-6.0717,-6.1077,-6.1119,-6.1119,-6.1119,-6.1202,-6.1417,-6.1837,-6.2318,-6.2523,-6.2806,-6.2912,-6.3101,-6.3511,-6.3317,-6.3247,-6.3525,-6.2595,-6.1971,-6.1521,-6.12,-6.1093,-6.1093,-6.1093,-6.1093,-6.1093,-6.1093,-6.1093,-6.1093,-6.1093,-6.1093,-6.1152,-6.1241,-6.1357,-6.1415,-6.1559,-6.1672,-6.174,-6.1009,-6.0666,-6.0566,-6.0231,-5.9868,-5.9895,-6.0134,-5.987,-5.9051,-5.8765,-5.8185,-5.781,-5.7473,-5.7691,-5.7927,-5.8164,-5.8341,-5.8486,-5.8422,-5.8327,-5.8111,-5.8111,-5.826,-5.8371,-5.8465,-5.8572,-5.8677,-5.8818,-5.8899,-5.8862,-5.8723,-5.8644,-5.8245,-5.7734,-5.7486,-5.7351,-5.7141,-5.6917,-5.658,-5.6616,-5.6447,-5.6206,-5.6196,-5.641,-5.6519,-5.6564,-5.6724,-5.6829,-5.6923,-5.7051,-5.7252,-5.7351,-5.7474,-5.7618,-5.7821,-5.8006,-5.8164,-5.7983,-5.7831,-5.7821,-5.7786,-5.7711,-5.7707,-5.79,-5.785,-5.7629,-5.7556,-5.7666,-5.7825,-5.8321,-5.8321,-5.8321,-5.8367,-5.861,-5.9075,-5.9696,-6.0001,-6.0463,-6.1035,-6.1077,-6.1077,-6.1077,-6.1119,-6.1127,-6.1252,-6.1417,-6.179,-6.2167,-6.2421,-6.3004,-6.3763,-6.2924,-6.3302,-6.3618,-6.279,-6.2379,-6.2057,-6.1568,-6.12,-6.12,-6.1236,-6.1093,-6.1093,-6.1236,-6.1093,-6.1093,-6.1093,-6.1152,-6.127,-6.1328,-6.1473,-6.1644,-6.1756,-6.1812,-6.1851,-6.1299,-6.0928,-6.0856,-6.0774,-6.0665,-6.0801,-6.1594,-6.1422,-6.0481,-5.9465,-5.8551,-5.8333,-5.8117,-5.7969,-5.8263,-5.8393,-5.848,-5.8789,-5.8782,-5.8607,-5.8215,-5.8275,-5.8393,-5.8541,-5.8502,-5.8572,-5.8677,-5.8838,-5.8902,-5.8925,-5.9004,-5.8984,-5.8908,-5.8402,-5.8231,-5.8079,-5.7844,-5.7582,-5.7266,-5.6964,-5.6803,-5.6697,-5.6724,-5.6697,-5.6881,-5.7,-5.7152,-5.7177,-5.7277,-5.7425,-5.769,-5.776,-5.7854,-5.806,-5.8216,-5.8348,-5.8412,-5.8223,-5.815,-5.8164,-5.8074,-5.7937,-5.7983,-5.8142,-5.8133,-5.796,-5.7997,-5.7997,-5.8499,-5.8274,-5.8321,-5.8321,-5.8321,-5.8518,-5.8895,-5.9464,-5.9728,-6.0163,-6.0623,-6.0708,-6.0793,-6.0877,-6.1002,-6.1119,-6.1119,-6.1119,-6.121,-6.1628,-6.2003,-6.2391,-6.2504,-6.2766,-6.3344,-6.2892,-6.2438,-6.2363,-6.2399,-6.2551,-6.2235,-6.1771,-6.1736,-6.1521,-6.1307,-6.1593,-6.145,-6.1301,-6.1182,-6.1299,-6.1444,-6.153,-6.1644,-6.182,-6.1904,-6.1923,-6.1906,-6.1761,-6.1471,-6.1471,-6.1498,-6.1471,-6.1562,-6.195,-6.194,-6.1525,-6.058,-5.963,-5.8869,-5.8994,-5.899,-5.9099,-5.9435,-6.0018,-6.0002,-5.9841,-5.9708,-5.9601,-5.9272,-5.9154,-5.8991,-5.8789,-5.8688,-5.8756,-5.9065,-5.9034,-5.9116,-5.9196,-5.9197,-5.9178,-5.9214,-5.918,-5.8995,-5.8622,-5.8309,-5.7847,-5.7547,-5.7289,-5.7302,-5.7413,-5.7425,-5.7401,-5.757,-5.7713,-5.769,-5.769,-5.7747,-5.7932,-5.7992,-5.815,-5.8476,-5.8644,-5.8747,-5.8828,-5.875,-5.8686,-5.8577,-5.8471,-5.8406,-5.8406,-5.8406,-5.8297,-5.8223,-5.802,-5.802,-5.9439,-5.8687,-5.8622,-5.8479,-5.8321,-5.8473,-5.8837,-5.9331,-5.9508,-5.9903,-6.0292,-6.0496,-6.0591,-6.0717,-6.0961,-6.1119,-6.1119,-6.1119,-6.1119,-6.1334,-6.1602,-6.1773,-6.1956,-6.248,-6.2535,-6.2287,-6.2004,-6.2157,-6.282,-6.335,-6.3235,-6.2592,-6.2556,-6.2164,-6.1807,-6.2057,-6.2265,-6.1646,-6.1348,-6.1415,-6.1623,-6.1764,-6.1784,-6.184,-6.1923,-6.2041,-6.2041,-6.2005,-6.1978,-6.1942,-6.1933,-6.1869,-6.196,-6.2068,-6.2132,-6.1869,-6.1422,-6.0865,-6.0163,-5.9969,-6.0134,-6.0291,-6.0515,-6.0862,-6.0892,-6.0996,-6.0907,-6.0481,-6.024,-5.9989,-5.9864,-5.9529,-5.9356,-5.9409,-5.9516,-5.941,-5.9472,-5.9815,-6.0173,-6.0341,-6.0435,-6.0454,-6.016,-5.9531,-5.9013,-5.8496,-5.8143,-5.792,-5.7954,-5.8139,-5.7983,-5.795,-5.8275,-5.8326,-5.8157,-5.8135,-5.8201,-5.8267,-5.8326,-5.8455,-5.8788,-5.9024,-5.912,-5.9197,-5.9197,-5.9234,-5.9197,-5.8986,-5.8808,-5.8764,-5.8681,-5.8577,-5.8428,-5.8186,-5.802,-6.0233,-5.9755,-5.9412,-5.8875,-5.8352,-5.8321,-5.8701,-5.9286,-5.9331,-5.9728,-6.0292,-6.0548,-6.0591,-6.0717,-6.0877,-6.1002,-6.1044,-6.1119,-6.1077,-6.1119,-6.121,-6.1568,-6.1743,-6.1715,-6.1706,-6.2121,-6.179,-6.1903,-6.2603,-6.338,-6.3531,-6.3427,-6.3351,-6.2877,-6.248,-6.2444,-6.2784,-6.2236,-6.1895,-6.1573,-6.1772,-6.1884,-6.194,-6.1987,-6.1978,-6.2041,-6.2041,-6.2041,-6.2041,-6.2041,-6.2041,-6.2041,-6.2033,-6.2114,-6.2087,-6.2014,-6.2182,-6.1733,-6.1361,-6.0933,-6.0635,-6.0794,-6.1145,-6.1537,-6.1589,-6.1204,-6.1003,-6.1075,-6.0995,-6.0825,-6.0751,-6.0707,-6.0246,-6.0173,-6.0245,-6.0421,-6.0559,-6.0959,-6.1261,-6.1543,-6.1543,-6.1355,-6.1543,-6.1002,-6.0373,-5.9828,-5.9616,-5.9368,-5.8843,-5.8858,-5.8578,-5.8591,-5.8957,-5.8962,-5.8648,-5.8648,-5.8788,-5.8828,-5.8848,-5.8947,-5.9159,-5.9309,-5.9401,-5.9492,-5.949,-5.9668,-5.9736,-5.9418,-5.914,-5.9043,-5.8925,-5.8825,-5.8577,-5.8275,-5.8133,-6.0983,-6.0572,-6.058,-5.9949,-5.8921,-5.8617,-5.8701,-5.9107,-5.9241,-5.9552,-6.0022,-6.0206,-6.0325,-6.041,-6.0581,-6.075,-6.0835,-6.0877,-6.0961,-6.1044,-6.1169,-6.1293,-6.1375,-6.1383,-6.1332,-6.1413,-6.1214,-6.1526,-6.2374,-6.2758,-6.3484,-6.3717,-6.3989,-6.3275,-6.2872,-6.2504,-6.266,-6.3167,-6.2673,-6.2277,-6.1984,-6.2429,-6.2457,-6.2014,-6.2041,-6.2041,-6.2041,-6.2041,-6.2041,-6.2041,-6.2041,-6.2041,-6.2041,-6.206,-6.206,-6.206,-6.2344,-6.2395,-6.2438,-6.2144,-6.2285,-6.2493,-6.2666,-6.2636,-6.2487,-6.2554,-6.2501,-6.2382,-6.1952,-6.1729,-6.167,-6.1352,-6.0964,-6.096,-6.1085,-6.1338,-6.1534,-6.1878,-6.2106,-6.2219,-6.2069,-6.1881,-6.2219,-6.248,-6.1839,-6.1215,-6.1062,-6.0795,-6.0162,-5.9759,-5.9557,-5.9297,-5.9643,-5.9403,-5.9081,-5.9177,-5.929,-5.929,-5.929,-5.9403,-5.9459,-5.9474,-5.9545,-5.965,-5.9757,-5.9786,-5.9786,-5.963,-5.9508,-5.9436,-5.9253,-5.9025,-5.8764,-5.8428,-5.8268,-6.1433,-6.1213,-6.132,-6.0708,-5.957,-5.9029,-5.8974,-5.917,-5.9203,-5.9375,-5.9716,-5.9979,-6.0109,-6.0152,-6.0292,-6.0463,-6.0591,-6.0633,-6.0793,-6.0877,-6.0961,-6.1002,-6.1077,-6.1053,-6.1003,-6.0788,-6.0696,-6.1039,-6.1419,-6.1564,-6.2535,-6.3623,-6.4411,-6.3879,-6.3265,-6.2457,-6.2814,-6.3781,-6.3646,-6.3032,-6.2593,-6.2838,-6.2766,-6.2123,-6.2041,-6.2041,-6.2041,-6.2041,-6.2041,-6.2041,-6.2041,-6.2041,-6.2041,-6.2005,-6.2033,-6.2168,-6.2344,-6.2629,-6.2904,-6.3147,-6.3359,-6.3348,-6.3431,-6.349,-6.3602,-6.3579,-6.3251,-6.322,-6.2895,-6.2658,-6.2516,-6.2264,-6.1893,-6.189,-6.23,-6.2517,-6.2415,-6.261,-6.2725,-6.2877,-6.2782,-6.2895,-6.3045,-6.3345,-6.2875,-6.2178,-6.1596,-6.1424,-6.1157,-6.0855,-6.0805,-6.0506,-6.034,-5.991,-5.9459,-5.9365,-5.929,-5.929,-5.9365,-5.9591,-5.9665,-5.9736,-5.99,-6.0161,-6.0172,-6.0004,-5.9853,-5.977,-5.9803,-5.9853,-5.9578,-5.9271,-5.9025,-5.8727,-5.8449,-6.1582,-6.1589,-6.1442,-6.0992,-6.0297,-5.957,-5.9473,-5.9688,-5.9452,-5.9511,-5.9943,-6.0141,-6.0163,-6.0174,-6.0304,-6.0335,-6.0378,-6.042,-6.0506,-6.0675,-6.076,-6.0919,-6.1002,-6.1011,-6.0887,-6.039,-6.0523,-6.0705,-6.0388,-6.152,-6.245,-6.3279,-6.4252,-6.4809,-6.4519,-6.3924,-6.4202,-6.4973,-6.4455,-6.3884,-6.3354,-6.3309,-6.2911,-6.2404,-6.2078,-6.2014,-6.2041,-6.2041,-6.2041,-6.2041,-6.2041,-6.2041,-6.2041,-6.2041,-6.2114,-6.2354,-6.2603,-6.288,-6.3171,-6.3442,-6.3557,-6.3616,-6.3602,-6.3602,-6.3602,-6.3579,-6.3557,-6.3428,-6.3317,-6.328,-6.3294,-6.3243,-6.2859,-6.2842,-6.3233,-6.3397,-6.3222,-6.3248,-6.3401,-6.3478,-6.3891,-6.4209,-6.4172,-6.4096,-6.3721,-6.3083,-6.2294,-6.2012,-6.2028,-6.2048,-6.2031,-6.1318,-6.0905,-6.0191,-5.9666,-5.9403,-5.929,-5.929,-5.9515,-5.9853,-6.0097,-6.0263,-6.0448,-6.0672,-6.053,-6.0302,-6.0091,-5.9885,-5.9902,-5.9885,-5.9748,-5.945,-5.9234,-5.8988,-5.8706,-6.1461,-6.1602,-6.1765,-6.1712,-6.1561,-6.0646,-6.0359,-6.0639,-6.0752,-6.0941,-6.0935,-6.0745,-6.0562,-6.0476,-6.0163,-6.0131,-6.0195,-6.0195,-6.0325,-6.0506,-6.0591,-6.0717,-6.0877,-6.0969,-6.0953,-6.0854,-6.102,-6.102,-6.0862,-6.1609,-6.2407,-6.3242,-6.4463,-6.5433,-6.518,-6.4644,-6.4321,-6.5111,-6.5084,-6.4802,-6.4106,-6.3925,-6.3563,-6.2766,-6.2231,-6.2014,-6.2078,-6.2114,-6.2041,-6.2078,-6.2114,-6.2041,-6.2005,-6.2005,-6.2141,-6.2407,-6.2654,-6.3002,-6.3312,-6.3557,-6.3579,-6.3602,-6.3602,-6.3602,-6.3602,-6.3602,-6.3557,-6.3534,-6.3511,-6.3511,-6.3497,-6.3497,-6.3312,-6.346,-6.3702,-6.3771,-6.3784,-6.3961,-6.4096,-6.4059,-6.4284,-6.4342,-6.4342,-6.4284,-6.4021,-6.3946,-6.3233,-6.3233,-6.3326,-6.3288,-6.3233,-6.2106,-6.1318,-6.0529,-5.9891,-5.9478,-5.929,-5.929,-5.9741,-6.0342,-6.0567,-6.0677,-6.0863,-6.0992,-6.0791,-6.0584,-6.0205,-5.9902,-5.9902,-5.9869,-5.9782,-5.9677,-5.9505,-5.9197,-5.887,-6.1308,-6.1512,-6.1734,-6.2016,-6.2076,-6.1327,-6.1011,-6.1148,-6.1409,-6.1639,-6.1646,-6.1303,-6.0979,-6.0753,-6.0558,-5.9987,-6.0076,-6.0272,-6.0207,-6.039,-6.0453,-6.0548,-6.0717,-6.0877,-6.0969,-6.1077,-6.1119,-6.1086,-6.1053,-6.126,-6.2201,-6.3464,-6.4739,-6.5406,-6.5502,-6.534,-6.5166,-6.582,-6.5895,-6.5446,-6.4685,-6.4178,-6.378,-6.2911,-6.2331,-6.2123,-6.2259,-6.2259,-6.2186,-6.2295,-6.2223,-6.2078,-6.2041,-6.2114,-6.2275,-6.25,-6.2904,-6.3218,-6.3511,-6.3579,-6.3602,-6.3602,-6.3602,-6.3602,-6.3602,-6.3602,-6.3602,-6.3579,-6.3602,-6.3602,-6.3579,-6.3579,-6.3624,-6.3736,-6.3808,-6.3878,-6.4437,-6.4674,-6.4772,-6.4697,-6.466,-6.4585,-6.4379,-6.4342,-6.4209,-6.4247,-6.4209,-6.4284,-6.4284,-6.4134,-6.3759,-6.2632,-6.1656,-6.0867,-6.0079,-5.944,-5.929,-5.929,-5.9929,-6.0661,-6.0773,-6.0884,-6.1107,-6.1178,-6.0749,-6.034,-6.0091,-5.9902,-5.9902,-5.9934,-5.9928,-5.9847,-5.9694,-5.9432,-5.9159,-6.1155,-6.1206,-6.1481,-6.1765,-6.1891,-6.1589,-6.1344,-6.1244,-6.1291,-6.157,-6.1919,-6.1997,-6.1775,-6.1308,-6.1601,-6.1215,-6.0522,-6.0836,-6.0816,-6.0576,-6.0725,-6.0755,-6.0774,-6.0826,-6.0919,-6.1002,-6.1119,-6.1119,-6.1161,-6.1676,-6.2595,-6.3608,-6.4532,-6.5374,-6.5909,-6.6114,-6.6157,-6.6444,-6.6467,-6.5953,-6.5229,-6.4504,-6.3925,-6.3128,-6.2585,-6.2693,-6.2802,-6.2802,-6.2838,-6.2766,-6.2585,-6.2259,-6.2159,-6.2275,-6.2537,-6.2855,-6.3302,-6.3636,-6.3802,-6.3839,-6.401,-6.4159,-6.3973,-6.3788,-6.3676,-6.3713,-6.3825,-6.3676,-6.3602,-6.3602,-6.3602,-6.3557,-6.3534,-6.3647,-6.3758,-6.4246,-6.5015,-6.5307,-6.5407,-6.539,-6.5336,-6.5148,-6.466,-6.451,-6.4359,-6.4284,-6.4284,-6.4284,-6.4284,-6.4284,-6.3759,-6.267,-6.1806,-6.1168,-6.0492,-6.0004,-6.0004,-6.0229,-6.0379,-6.0924,-6.1017,-6.1279,-6.1558,-6.1475,-6.0615,-6.0151,-5.9961,-5.9902,-5.9902,-5.995,-6.0013,-5.9991,-5.9896,-5.976,-5.9502,-6.1,-6.1206,-6.1257,-6.1461,-6.1734,-6.1995,-6.2297,-6.262,-6.2953,-6.3282,-6.3344,-6.3309,-6.3064,-6.3055,-6.3252,-6.2685,-6.2463,-6.2472,-6.249,-6.214,-6.1546,-6.1781,-6.1616,-6.1276,-6.1069,-6.1086,-6.1169,-6.1334,-6.1465,-6.2082,-6.3093,-6.4112,-6.4907,-6.5728,-6.6172,-6.6452,-6.6608,-6.6727,-6.6822,-6.6315,-6.5627,-6.4867,-6.4323,-6.3961,-6.3092,-6.3309,-6.3671,-6.3708,-6.378,-6.3816,-6.3273,-6.293,-6.3129,-6.2735,-6.2552,-6.3161,-6.384,-6.447,-6.4545,-6.5028,-6.5274,-6.5162,-6.5236,-6.4531,-6.4233,-6.401,-6.4122,-6.3825,-6.3639,-6.3602,-6.3631,-6.3622,-6.3548,-6.3579,-6.3818,-6.4413,-6.5132,-6.5619,-6.5778,-6.6237,-6.6162,-6.5674,-6.5148,-6.4622,-6.451,-6.4359,-6.4284,-6.4284,-6.4284,-6.4284,-6.3871,-6.2782,-6.2332,-6.1806,-6.1543,-6.1112,-6.113,-6.1205,-6.1262,-6.1507,-6.2071,-6.2352,-6.2309,-6.1661,-6.061,-6.0151,-5.9939,-5.9902,-5.9902,-5.995,-6.0013,-6.006,-6.0053,-5.9975,-5.9689,-6.0897,-6.1,-6.1,-6.1206,-6.1563,-6.2266,-6.2727,-6.3131,-6.3612,-6.4038,-6.436,-6.4314,-6.4354,-6.4364,-6.4543,-6.4212,-6.3275,-6.3802,-6.3802,-6.3158,-6.2782,-6.2714,-6.2438,-6.2037,-6.1837,-6.1843,-6.2003,-6.2206,-6.2279,-6.2863,-6.3862,-6.4566,-6.5471,-6.5985,-6.6391,-6.6542,-6.6668,-6.6757,-6.6714,-6.6424,-6.5736,-6.4975,-6.4794,-6.4504,-6.3599,-6.3961,-6.4649,-6.4685,-6.4577,-6.4742,-6.4154,-6.3884,-6.4118,-6.3785,-6.3909,-6.4496,-6.4897,-6.5287,-6.5362,-6.5719,-6.6017,-6.6128,-6.6128,-6.5348,-6.4791,-6.4456,-6.4159,-6.3825,-6.3676,-6.3616,-6.3659,-6.3688,-6.3599,-6.3548,-6.4025,-6.4502,-6.5113,-6.5721,-6.6298,-6.6929,-6.6762,-6.6274,-6.5711,-6.5148,-6.4735,-6.4772,-6.4547,-6.4284,-6.4284,-6.4284,-6.3871,-6.3045,-6.2857,-6.2652,-6.2351,-6.2032,-6.1901,-6.1808,-6.1808,-6.2165,-6.2994,-6.2595,-6.1777,-6.1128,-6.0459,-6.0151,-5.9902,-5.9902,-5.9902,-5.9966,-6.0029,-6.0106,-6.0167,-6.0197,-5.9842,-6.0794,-6.0794,-6.0794,-6.0949,-6.1308,-6.2216,-6.271,-6.2825,-6.3389,-6.4114,-6.4864,-6.5102,-6.527,-6.5444,-6.5876,-6.5488,-6.499,-6.5159,-6.52,-6.4128,-6.3855,-6.3829,-6.3668,-6.311,-6.2838,-6.3165,-6.3282,-6.298,-6.3353,-6.3827,-6.4358,-6.4941,-6.5403,-6.6016,-6.6512,-6.6697,-6.6757,-6.6793,-6.6641,-6.6315,-6.5192,-6.4504,-6.4142,-6.3744,-6.3744,-6.4142,-6.5084,-6.5265,-6.4931,-6.5299,-6.523,-6.4913,-6.4951,-6.5235,-6.5582,-6.5875,-6.597,-6.6142,-6.6277,-6.6537,-6.6574,-6.65,-6.6239,-6.5794,-6.5385,-6.4768,-6.4359,-6.3825,-6.3639,-6.3602,-6.3631,-6.3901,-6.3965,-6.3803,-6.4021,-6.4744,-6.556,-6.6381,-6.7385,-6.7734,-6.7438,-6.695,-6.6612,-6.6049,-6.511,-6.5185,-6.481,-6.4359,-6.4284,-6.4284,-6.3966,-6.3383,-6.3423,-6.3329,-6.3011,-6.2748,-6.2523,-6.2429,-6.2485,-6.2861,-6.3633,-6.2554,-6.0959,-6.0631,-6.0437,-6.0113,-5.9902,-5.9902,-5.9918,-5.9998,-6.006,-6.0152,-6.0212,-6.027,-5.9944,-6.0794,-6.0794,-6.0794,-6.0845,-6.1,-6.1613,-6.2135,-6.258,-6.3452,-6.4268,-6.509,-6.6029,-6.6551,-6.6592,-6.7148,-6.6867,-6.6496,-6.6506,-6.6782,-6.6257,-6.563,-6.5128,-6.5091,-6.4343,-6.3833,-6.342,-6.3429,-6.3683,-6.397,-6.4393,-6.4839,-6.5305,-6.5824,-6.6361,-6.6668,-6.6822,-6.6822,-6.6822,-6.6714,-6.6315,-6.541,-6.5265,-6.512,-6.4975,-6.5084,-6.5366,-6.6091,-6.6344,-6.6417,-6.6632,-6.6061,-6.5703,-6.5506,-6.5865,-6.6034,-6.6179,-6.676,-6.6945,-6.7131,-6.7391,-6.7614,-6.754,-6.728,-6.6574,-6.5942,-6.5213,-6.4545,-6.3936,-6.3602,-6.3602,-6.3756,-6.4076,-6.429,-6.4092,-6.4089,-6.5046,-6.5989,-6.7158,-6.8338,-6.8313,-6.8055,-6.7739,-6.7401,-6.6725,-6.5824,-6.5185,-6.466,-6.4342,-6.4284,-6.4304,-6.4304,-6.3949,-6.4083,-6.3952,-6.3652,-6.3521,-6.3389,-6.354,-6.3728,-6.401,-6.4291,-6.3078,-6.1768,-6.0968,-6.0492,-6.0319,-6.0091,-5.9902,-5.9934,-6.0013,-6.0091,-6.0167,-6.0226,-6.027,-5.9858,-6.0794,-6.0794,-6.0794,-6.0794,-6.0897,-6.1379,-6.1784,-6.2284,-6.3673,-6.4649,-6.5237,-6.6363,-6.7154,-6.7482,-6.7965,-6.7945,-6.7532,-6.7876,-6.7655,-6.7419,-6.7134,-6.6664,-6.6187,-6.5571,-6.5093,-6.4568,-6.4498,-6.467,-6.467,-6.5076,-6.5568,-6.5792,-6.633,-6.6608,-6.6793,-6.6822,-6.6822,-6.6822,-6.6822,-6.6388,-6.5736,-6.5627,-6.5591,-6.5591,-6.5736,-6.6156,-6.67,-6.7019,-6.7154,-6.7305,-6.7056,-6.71,-6.7037,-6.7221,-6.7219,-6.7293,-6.7614,-6.7837,-6.7986,-6.8184,-6.8518,-6.8283,-6.7763,-6.6834,-6.6537,-6.5756,-6.447,-6.3899,-6.3639,-6.3602,-6.4207,-6.462,-6.4463,-6.4291,-6.472,-6.548,-6.6528,-6.7666,-6.8494,-6.8822,-6.8602,-6.8302,-6.7851,-6.7025,-6.6162,-6.5336,-6.4772,-6.4342,-6.4284,-6.4304,-6.4324,-6.4364,-6.4423,-6.4482,-6.4294,-6.4257,-6.4294,-6.452,-6.4633,-6.4348,-6.408,-6.3472,-6.269,-6.1818,-6.1098,-6.0698,-6.047,-6.0167,-6.0004,-6.0022,-6.0084,-6.0167,-6.0226,-6.0226,-5.9793,-6.0794,-6.0794,-6.0794,-6.0794,-6.0845,-6.1277,-6.1531,-6.1953,-6.3797,-6.4934,-6.5426,-6.6449,-6.736,-6.7845,-6.8083,-6.8083,-6.8083,-6.8049,-6.8014,-6.8033,-6.793,-6.7564,-6.7196,-6.6741,-6.6132,-6.5622,-6.5332,-6.5436,-6.5542,-6.5685,-6.5766,-6.6197,-6.6488,-6.6638,-6.6727,-6.6822,-6.6822,-6.6822,-6.6714,-6.6424,-6.6062,-6.5736,-6.5736,-6.57,-6.5801,-6.6271,-6.6879,-6.7238,-6.7341,-6.764,-6.7867,-6.7986,-6.8099,-6.811,-6.8184,-6.8221,-6.8184,-6.8333,-6.8407,-6.8407,-6.8518,-6.8296,-6.7688,-6.7168,-6.6834,-6.5868,-6.4605,-6.3951,-6.3713,-6.3905,-6.453,-6.4818,-6.4623,-6.4599,-6.5164,-6.574,-6.6857,-6.8016,-6.8666,-6.9181,-6.8956,-6.8715,-6.8039,-6.7213,-6.6425,-6.5598,-6.4998,-6.4585,-6.4304,-6.4324,-6.4344,-6.4403,-6.4481,-6.4558,-6.467,-6.467,-6.4671,-6.4726,-6.4687,-6.4325,-6.3944,-6.3582,-6.3145,-6.2652,-6.197,-6.1212,-6.0698,-6.0319,-6.021,-6.0129,-6.0084,-6.0129,-6.0226,-6.0129,-5.9727,-6.0794,-6.0794,-6.0794,-6.0794,-6.0794,-6.0949,-6.1206,-6.1803,-6.3276,-6.4447,-6.5514,-6.6703,-6.7678,-6.8083,-6.8083,-6.8083,-6.8083,-6.8083,-6.8083,-6.8059,-6.854,-6.835,-6.7834,-6.7121,-6.6815,-6.6093,-6.5375,-6.5268,-6.5649,-6.5546,-6.5663,-6.63,-6.6608,-6.6727,-6.6757,-6.6822,-6.6822,-6.6822,-6.6822,-6.6641,-6.6641,-6.6388,-6.6098,-6.6134,-6.6243,-6.67,-6.7089,-6.721,-6.7542,-6.7915,-6.8259,-6.8408,-6.8457,-6.8518,-6.8518,-6.8518,-6.8518,-6.8518,-6.8518,-6.8518,-6.8518,-6.8431,-6.78,-6.7057,-6.65,-6.5608,-6.4582,-6.3951,-6.3839,-6.4105,-6.4544,-6.4646,-6.4586,-6.4794,-6.521,-6.5817,-6.6635,-6.7935,-6.8944,-6.91,-6.9031,-6.8565,-6.7926,-6.7138,-6.6387,-6.5598,-6.4923,-6.451,-6.4284,-6.4324,-6.4364,-6.4462,-6.4539,-6.4596,-6.4689,-6.4725,-6.4745,-6.4799,-6.4797,-6.457,-6.4285,-6.3886,-6.3469,-6.3296,-6.2387,-6.1401,-6.0963,-6.0984,-6.0437,-6.038,-6.0144,-6.0114,-6.0188,-6.0084,-5.9673]},{"header":{"parameterUnit":"m.s-1","parameterCategory":1,"la1":31.0,"la2":29.5877,"lo1":-88.7671,"lo2":-86.6584,"dy":0.0162,"dx":0.0185,"nx":115,"ny":88,"refTime":"2023-04-13T06:00:00:Z","depth":0,"parameterNumber":3,"parameterNumberName":"V-component_of_WINDS"},"data":[0.0,0.0,0.0,0.0,0.0,0.0,0.0,0.0,0.0,0.0,0.0,0.0,0.0,0.0,0.0,0.0,0.0,0.0,0.0,0.0,0.0,0.0,0.0,0.0,0.0,0.0,0.0,0.0,0.0,0.0,0.0,0.0,0.0,0.0,0.0,0.0,0.0,0.0,0.0,0.0,0.0,0.0,0.0,0.0,0.0,0.0,0.0,0.0,0.0,0.0,0.0,0.0,0.0,0.0,0.0,0.0,0.0,0.0,0.0,0.0,0.0,0.0,0.0,0.0,0.0,0.0,0.0,0.0,0.0,0.0,0.0,0.0,0.0,0.0,0.0,0.0,0.0,0.0,0.0,0.0,0.0,0.0,0.0,0.0,0.0,0.0,0.0,0.0,0.0,0.0,0.0,0.0,0.0,0.0,0.0,0.0,0.0,0.0,0.0,0.0,0.0,0.0,0.0,0.0,0.0,0.0,0.0,0.0,0.0,0.0,0.0,0.0,0.0,0.0,0.0,0.0,0.0,0.0,0.0,0.0,0.0,0.0,0.0,0.0,0.0,0.0,0.0,0.0,0.0,0.0,0.0,0.0,0.0,0.0,0.0,0.0,0.0,0.0,0.0,0.0,0.0,0.0,0.0,0.0,0.0,0.0,0.0,0.0,0.0,0.0,0.0,0.0,0.0,0.0,0.0,0.0,0.0,0.0,0.0,0.0,0.0,0.0,0.0,0.0,0.0,0.0,0.0,0.0,0.0,0.0,0.0,0.0,0.0,0.0,0.0,0.0,0.0,0.0,0.0,0.0,0.0,0.0,0.0,0.0,0.0,0.0,0.0,0.0,0.0,0.0,0.0,0.0,0.0,0.0,0.0,0.0,0.0,0.0,0.0,0.0,0.0,0.0,0.0,0.0,0.0,0.0,0.0,0.0,0.0,0.0,0.0,0.0,0.0,0.0,0.0,0.0,0.0,0.0,0.0,0.0,0.0,0.0,0.0,0.0,0.0,0.0,0.0,0.0,0.0,0.0,0.0,0.0,0.0,0.0,0.0,0.0,0.0,0.0,0.0,0.0,0.0,0.0,0.0,0.0,0.0,0.0,0.0,0.0,0.0,0.0,0.0,0.0,0.0,0.0,0.0,0.0,0.0,0.0,0.0,0.0,0.0,0.0,0.0,0.0,0.0,0.0,0.0,0.0,0.0,0.0,0.0,0.0,0.0,0.0,0.0,0.0,0.0,0.0,0.0,0.0,0.0,0.0,0.0,0.0,0.0,0.0,0.0,0.0,0.0,0.0,0.0,0.0,0.0,0.0,0.0,0.0,0.0,0.0,0.0,0.0,0.0,0.0,0.0,0.0,0.0,0.0,0.0,0.0,0.0,0.0,0.0,0.0,0.0,0.0,0.0,0.0,0.0,0.0,0.0,0.0,0.0,0.0,0.0,0.0,0.0,0.0,0.0,0.0,0.0,0.0,0.0,0.0,0.0,0.0,0.0,0.0,0.0,0.0,0.0,0.0,0.0,0.0,0.0,0.0,0.0,0.0,0.0,0.0,0.0,0.0,0.0,0.0,0.0,0.0,0.0,0.0,0.0,0.0,0.0,0.0,0.0,0.0,0.0,0.0,0.0,0.0,0.0,0.0,0.0,0.0,0.0,0.0,0.0,0.0,0.0,0.0,0.0,0.0,0.0,0.0,0.0,0.0,0.0,0.0,0.0,0.0,0.0,0.0,0.0,0.0,0.0,0.0,0.0,0.0,0.0,0.0,0.0,0.0,0.0,0.0,0.0,0.0,0.0,0.0,0.0,0.0,0.0,0.0,0.0,0.0,0.0,0.0,0.0,0.0,0.0,0.0,0.0,0.0,0.0,0.0,0.0,0.0,0.0,0.0,0.0,0.0,0.0,0.0,0.0,0.0,0.0,0.0,0.0,0.0,0.0,0.0,0.0,0.0,0.0,0.0,0.0,0.0,0.0,0.0,0.0,0.0,0.0,0.0,0.0,0.0,0.0,0.0,0.0,0.0,0.0,0.0,0.0,0.0,0.0,0.0,0.0,0.0,0.0,0.0,0.0,0.0,0.0,0.0,0.0,0.0,0.0,0.0,0.0,0.0,0.0,0.0,0.0,0.0,0.0,0.0,0.0,0.0,0.0,0.0,0.0,0.0,0.0,0.0,0.0,0.0,0.0,0.0,0.0,0.0,0.0,0.0,0.0,0.0,0.0,0.0,0.0,0.0,0.0,0.0,0.0,0.0,0.0,0.0,0.0,0.0,0.0,0.0,0.0,0.0,0.0,0.0,0.0,0.0,0.0,0.0,0.0,0.0,0.0,0.0,0.0,0.0,0.0,0.0,0.0,0.0,0.0,0.0,0.0,0.0,0.0,0.0,0.0,0.0,0.0,0.0,0.0,0.0,0.0,0.0,0.0,0.0,0.0,0.0,0.0,0.0,0.0,0.0,0.0,0.0,0.0,0.0,0.0,0.0,0.0,0.0,0.0,0.0,0.0,0.0,0.0,0.0,0.0,0.0,0.0,0.0,0.0,0.0,0.0,0.0,0.0,0.0,0.0,0.0,0.0,0.0,0.0,0.0,0.0,0.0,0.0,0.0,0.0,0.0,0.0,0.0,0.0,0.0,0.0,0.0,0.0,0.0,0.0,0.0,0.0,0.0,0.0,0.0,0.0,0.0,0.0,0.0,0.0,0.0,0.0,0.0,0.0,0.0,0.0,0.0,0.0,0.0,0.0,0.0,0.0,0.0,0.0,0.0,0.0,0.0,0.0,0.0,0.0,0.0,0.0,0.0,0.0,0.0,0.0,0.0,0.0,0.0,0.0,0.0,0.0,0.0,0.0,0.0,0.0,0.0,0.0,0.0,0.0,0.0,0.0,0.0,0.0,0.0,0.0,0.0,0.0,0.0,0.0,0.0,0.0,0.0,0.0,0.0,0.0,0.0,0.0,0.0,0.0,0.0,0.0,0.0,0.0,0.0,0.0,0.0,0.0,0.0,0.0,0.0,0.0,0.0,0.0,0.0,0.0,0.0,0.0,0.0,0.0,0.0,0.0,0.0,0.0,0.0,0.0,0.0,0.0,0.0,0.0,0.0,0.0,0.0,0.0,0.0,0.0,0.0,0.0,0.0,0.0,0.0,0.0,0.0,0.0,0.0,0.0,0.0,0.0,0.0,0.0,0.0,0.0,0.0,0.0,0.0,0.0,0.0,0.0,0.0,0.0,0.0,0.0,0.0,0.0,0.0,0.0,0.0,0.0,0.0,0.0,0.0,0.0,0.0,0.0,0.0,0.0,0.0,0.0,0.0,0.0,0.0,0.0,0.0,0.0,0.0,0.0,0.0,0.0,0.0,0.0,0.0,0.0,0.0,0.0,0.0,0.0,0.0,0.0,0.0,0.0,0.0,0.0,0.0,0.0,0.0,0.0,0.0,0.0,0.0,0.0,0.0,0.0,0.0,0.0,0.0,0.0,0.0,0.0,0.0,0.0,0.0,0.0,0.0,0.0,0.0,0.0,0.0,0.0,0.0,0.0,0.0,0.0,0.0,0.0,0.0,0.0,0.0,0.0,0.0,0.0,0.0,0.0,0.0,0.0,0.0,0.0,0.0,0.0,0.0,0.0,0.0,0.0,0.0,0.0,0.0,0.0,0.0,0.0,0.0,0.0,0.0,0.0,0.0,0.0,0.0,0.0,0.0,0.0,0.0,0.0,0.0,0.0,0.0,0.0,0.0,0.0,0.0,0.0,0.0,0.0,0.0,0.0,0.0,0.0,0.0,0.0,0.0,0.0,0.0,0.0,0.0,0.0,0.0,0.0,0.0,0.0,0.0,0.0,0.0,0.0,0.0,0.0,0.0,0.0,0.0,0.0,0.0,0.0,0.0,0.0,0.0,0.0,0.0,0.0,0.0,0.0,0.0,0.0,0.0,0.0,0.0,0.0,0.0,0.0,0.0,0.0,0.0,0.0,0.0,0.0,0.0,0.0,0.0,0.0,0.0,0.0,0.0,0.0,0.0,0.0,0.0,0.0,0.0,0.0,0.0,0.0,0.0,0.0,0.0,0.0,0.0,0.0,0.0,0.0,0.0,0.0,0.0,0.0,0.0,0.0,0.0,0.0,0.0,0.0,0.0,0.0,0.0,0.0,0.0,0.0,0.0,0.0,0.0,0.0,0.0,0.0,0.0,0.0,0.0,0.0,0.0,0.0,0.0,0.0,0.0,0.0,0.0,0.0,0.0,0.0,0.0,0.0,0.0,0.0,0.0,0.0,0.0,0.0,0.0,-1.2876,0.0,0.0,0.0,0.0,0.0,0.0,0.0,0.0,0.0,0.0,0.0,0.0,0.0,0.0,0.0,0.0,0.0,0.0,0.0,0.0,0.0,0.0,0.0,0.0,0.0,0.0,0.0,0.0,0.0,0.0,0.0,0.0,0.0,0.0,0.0,0.0,0.0,0.0,0.0,0.0,0.0,0.0,0.0,0.0,0.0,0.0,0.0,0.0,0.0,0.0,0.0,0.0,0.0,0.0,0.0,0.0,0.0,0.0,0.0,0.0,0.0,0.0,0.0,0.0,0.0,0.0,0.0,0.0,0.0,0.0,0.0,0.0,0.0,0.0,0.0,0.0,0.0,0.0,0.0,0.0,0.0,0.0,0.0,0.0,0.0,0.0,0.0,0.0,0.0,0.0,0.0,0.0,0.0,0.0,0.0,0.0,0.0,0.0,0.0,0.0,0.0,0.0,0.0,0.0,0.0,0.0,0.0,0.0,0.0,0.0,-1.5345,-1.4845,-1.4421,-1.3963,-1.3459,0.0,0.0,0.0,0.0,0.0,0.0,0.0,0.0,0.0,0.0,0.0,0.0,0.0,0.0,0.0,0.0,0.0,0.0,0.0,0.0,0.0,0.0,0.0,0.0,0.0,0.0,0.0,0.0,0.0,0.0,0.0,0.0,0.0,0.0,0.0,0.0,0.0,0.0,0.0,0.0,0.0,0.0,0.0,0.0,0.0,0.0,0.0,0.0,0.0,0.0,0.0,0.0,0.0,0.0,0.0,0.0,0.0,0.0,0.0,0.0,0.0,0.0,0.0,0.0,0.0,0.0,0.0,0.0,0.0,0.0,0.0,0.0,0.0,0.0,0.0,0.0,0.0,0.0,0.0,0.0,0.0,0.0,0.0,0.0,0.0,0.0,0.0,0.0,0.0,0.0,0.0,0.0,0.0,0.0,0.0,0.0,0.0,0.0,0.0,0.0,0.0,0.0,0.0,0.0,0.0,0.0,0.0,0.0,0.0,0.0,0.0,0.0,-1.4864,-1.4474,-1.4074,0.0,0.0,0.0,0.0,0.0,0.0,0.0,0.0,0.0,0.0,0.0,0.0,0.0,0.0,0.0,0.0,0.0,0.0,0.0,0.0,0.0,0.0,0.0,0.0,0.0,0.0,0.0,0.0,0.0,0.0,0.0,0.0,0.0,0.0,0.0,0.0,0.0,0.0,0.0,0.0,0.0,0.0,0.0,0.0,0.0,0.0,0.0,0.0,0.0,0.0,0.0,0.0,0.0,0.0,0.0,0.0,0.0,0.0,0.0,0.0,0.0,0.0,0.0,0.0,0.0,0.0,0.0,0.0,0.0,0.0,0.0,0.0,0.0,0.0,0.0,0.0,0.0,0.0,0.0,0.0,0.0,0.0,0.0,0.0,0.0,0.0,0.0,0.0,0.0,0.0,0.0,0.0,0.0,0.0,0.0,0.0,0.0,0.0,0.0,0.0,0.0,0.0,0.0,0.0,0.0,0.0,0.0,0.0,0.0,0.0,-1.5782,-1.5141,-1.5056,0.0,-1.4413,0.0,0.0,0.0,0.0,0.0,0.0,0.0,0.0,0.0,0.0,0.0,0.0,0.0,0.0,0.0,0.0,0.0,0.0,0.0,0.0,0.0,0.0,0.0,0.0,0.0,0.0,0.0,0.0,0.0,0.0,0.0,0.0,0.0,0.0,0.0,0.0,0.0,0.0,0.0,0.0,0.0,0.0,0.0,0.0,0.0,0.0,0.0,0.0,0.0,0.0,0.0,0.0,0.0,0.0,0.0,0.0,0.0,0.0,0.0,0.0,0.0,0.0,0.0,0.0,0.0,0.0,0.0,0.0,0.0,0.0,0.0,0.0,0.0,0.0,0.0,0.0,0.0,0.0,0.0,0.0,0.0,0.0,0.0,0.0,0.0,0.0,0.0,0.0,0.0,0.0,0.0,0.0,0.0,0.0,0.0,0.0,0.0,0.0,0.0,0.0,0.0,0.0,0.0,0.0,0.0,0.0,0.0,0.0,0.0,0.0,-1.5953,-1.5289,-1.4871,-1.4568,0.0,0.0,0.0,0.0,0.0,0.0,0.0,0.0,0.0,0.0,0.0,0.0,0.0,0.0,0.0,0.0,0.0,0.0,0.0,0.0,0.0,0.0,0.0,0.0,0.0,0.0,0.0,0.0,0.0,0.0,0.0,0.0,0.0,0.0,0.0,0.0,0.0,0.0,0.0,0.0,0.0,0.0,0.0,0.0,0.0,0.0,0.0,0.0,0.0,0.0,0.0,0.0,0.0,0.0,0.0,0.0,0.0,0.0,0.0,0.0,0.0,0.0,0.0,0.0,0.0,0.0,0.0,0.0,0.0,0.0,0.0,0.0,0.0,0.0,0.0,0.0,0.0,0.0,0.0,0.0,0.0,0.0,0.0,0.0,0.0,0.0,0.0,0.0,0.0,0.0,0.0,0.0,0.0,0.0,0.0,0.0,0.0,0.0,0.0,0.0,0.0,0.0,0.0,0.0,0.0,0.0,0.0,0.0,0.0,0.0,-1.6676,-1.6054,-1.5395,-1.5083,-1.4839,-1.4649,0.0,0.0,0.0,0.0,0.0,0.0,0.0,0.0,0.0,0.0,0.0,0.0,0.0,0.0,0.0,0.0,0.0,0.0,0.0,0.0,0.0,0.0,0.0,0.0,0.0,0.0,0.0,0.0,0.0,0.0,0.0,0.0,0.0,0.0,0.0,0.0,0.0,0.0,0.0,0.0,0.0,0.0,0.0,0.0,0.0,0.0,0.0,0.0,0.0,0.0,0.0,0.0,0.0,0.0,0.0,0.0,0.0,0.0,0.0,0.0,0.0,0.0,0.0,0.0,0.0,0.0,0.0,0.0,0.0,0.0,0.0,0.0,0.0,0.0,0.0,0.0,0.0,0.0,0.0,0.0,0.0,0.0,0.0,0.0,0.0,0.0,0.0,0.0,0.0,0.0,0.0,0.0,0.0,0.0,0.0,0.0,0.0,0.0,0.0,0.0,0.0,0.0,0.0,0.0,0.0,0.0,0.0,0.0,-1.7082,-1.6733,-1.6076,-1.5306,-1.5853,-1.5877,0.0,0.0,0.0,0.0,0.0,0.0,0.0,0.0,0.0,0.0,0.0,0.0,0.0,0.0,0.0,0.0,0.0,0.0,0.0,0.0,0.0,0.0,0.0,0.0,0.0,0.0,0.0,0.0,0.0,0.0,0.0,0.0,0.0,0.0,0.0,0.0,0.0,0.0,0.0,0.0,0.0,0.0,0.0,0.0,0.0,0.0,0.0,0.0,0.0,0.0,0.0,0.0,0.0,0.0,0.0,0.0,0.0,0.0,0.0,0.0,0.0,0.0,0.0,0.0,0.0,0.0,0.0,0.0,0.0,0.0,0.0,0.0,0.0,0.0,0.0,0.0,0.0,0.0,0.0,0.0,0.0,0.0,0.0,0.0,0.0,0.0,0.0,0.0,0.0,0.0,0.0,0.0,0.0,0.0,0.0,0.0,0.0,0.0,0.0,0.0,0.0,0.0,0.0,0.0,0.0,0.0,0.0,0.0,0.0,-1.7651,-1.7355,-1.6996,-1.669,-1.6618,-1.6441,0.0,0.0,0.0,0.0,0.0,0.0,0.0,0.0,0.0,0.0,0.0,0.0,0.0,0.0,0.0,0.0,0.0,0.0,0.0,0.0,0.0,0.0,0.0,0.0,0.0,0.0,0.0,0.0,0.0,0.0,0.0,0.0,0.0,0.0,0.0,0.0,0.0,0.0,0.0,0.0,0.0,0.0,0.0,0.0,0.0,0.0,0.0,0.0,0.0,0.0,0.0,0.0,0.0,0.0,0.0,0.0,0.0,0.0,0.0,0.0,0.0,0.0,0.0,0.0,0.0,0.0,0.0,0.0,0.0,0.0,0.0,0.0,0.0,0.0,0.0,0.0,0.0,0.0,0.0,0.0,0.0,0.0,0.0,0.0,0.0,0.0,0.0,0.0,0.0,0.0,0.0,0.0,0.0,0.0,0.0,0.0,0.0,0.0,0.0,0.0,0.0,0.0,0.0,0.0,0.0,0.0,0.0,0.0,0.0,-1.7812,0.0,-1.7454,-1.7355,-1.7044,-1.6876,0.0,0.0,0.0,0.0,0.0,0.0,0.0,0.0,0.0,0.0,0.0,0.0,0.0,0.0,0.0,0.0,0.0,0.0,0.0,0.0,0.0,0.0,0.0,0.0,0.0,0.0,0.0,0.0,0.0,0.0,0.0,0.0,0.0,0.0,0.0,0.0,0.0,0.0,0.0,0.0,0.0,0.0,0.0,0.0,0.0,0.0,0.0,0.0,0.0,0.0,0.0,0.0,0.0,0.0,0.0,0.0,0.0,0.0,0.0,0.0,0.0,0.0,0.0,0.0,0.0,0.0,0.0,0.0,0.0,0.0,0.0,0.0,0.0,0.0,0.0,0.0,0.0,0.0,0.0,0.0,0.0,0.0,0.0,0.0,0.0,0.0,0.0,0.0,0.0,0.0,0.0,0.0,0.0,0.0,0.0,0.0,0.0,0.0,0.0,0.0,0.0,0.0,0.0,0.0,0.0,0.0,0.0,0.0,-1.7501,-1.7537,-1.7583,-1.7484,-1.7049,-1.722,-1.7296,0.0,0.0,0.0,0.0,0.0,0.0,0.0,0.0,0.0,0.0,0.0,0.0,0.0,0.0,0.0,0.0,0.0,0.0,0.0,0.0,0.0,0.0,0.0,0.0,0.0,0.0,0.0,0.0,0.0,0.0,0.0,0.0,0.0,0.0,0.0,0.0,0.0,0.0,0.0,0.0,0.0,0.0,0.0,0.0,0.0,0.0,0.0,0.0,0.0,0.0,0.0,0.0,0.0,0.0,0.0,0.0,0.0,0.0,0.0,0.0,0.0,0.0,0.0,0.0,0.0,0.0,0.0,0.0,0.0,0.0,0.0,0.0,0.0,0.0,0.0,0.0,0.0,0.0,0.0,0.0,0.0,0.0,0.0,0.0,0.0,0.0,0.0,0.0,0.0,0.0,0.0,0.0,0.0,0.0,0.0,0.0,0.0,0.0,0.0,0.0,0.0,0.0,0.0,0.0,0.0,0.0,0.0,0.0,0.0,-1.8731,-1.9015,-1.9093,-1.9003,-1.8765,-1.8655,0.0,0.0,0.0,0.0,0.0,0.0,0.0,0.0,0.0,0.0,0.0,0.0,0.0,0.0,0.0,0.0,0.0,0.0,0.0,0.0,0.0,0.0,0.0,0.0,0.0,0.0,0.0,0.0,0.0,0.0,0.0,0.0,0.0,0.0,0.0,0.0,0.0,0.0,0.0,0.0,0.0,0.0,0.0,0.0,0.0,0.0,0.0,0.0,0.0,0.0,0.0,0.0,0.0,0.0,0.0,0.0,0.0,0.0,0.0,0.0,0.0,0.0,0.0,0.0,0.0,0.0,0.0,0.0,0.0,0.0,0.0,0.0,0.0,0.0,0.0,0.0,0.0,0.0,0.0,0.0,0.0,0.0,0.0,0.0,0.0,0.0,0.0,0.0,0.0,0.0,0.0,0.0,0.0,0.0,0.0,0.0,0.0,0.0,0.0,0.0,0.0,0.0,0.0,0.0,0.0,0.0,0.0,0.0,0.0,-1.9512,-1.9651,-1.9786,-1.9993,-1.9397,-1.9408,-1.9966,0.0,0.0,0.0,0.0,0.0,0.0,0.0,0.0,0.0,0.0,0.0,0.0,0.0,0.0,0.0,0.0,0.0,0.0,0.0,0.0,0.0,0.0,0.0,0.0,0.0,0.0,0.0,0.0,0.0,0.0,0.0,0.0,0.0,0.0,0.0,0.0,0.0,0.0,0.0,0.0,0.0,0.0,0.0,0.0,0.0,0.0,0.0,0.0,0.0,0.0,0.0,0.0,0.0,0.0,0.0,0.0,0.0,0.0,0.0,0.0,0.0,0.0,0.0,0.0,0.0,0.0,0.0,0.0,0.0,0.0,0.0,0.0,0.0,0.0,0.0,0.0,0.0,0.0,0.0,0.0,0.0,0.0,0.0,0.0,0.0,0.0,0.0,0.0,0.0,0.0,0.0,0.0,0.0,0.0,0.0,0.0,0.0,0.0,0.0,0.0,0.0,0.0,0.0,0.0,0.0,0.0,0.0,0.0,-1.9843,-1.9578,-1.9638,-2.0051,-1.9349,-1.9574,0.0,0.0,0.0,0.0,0.0,0.0,0.0,0.0,0.0,0.0,0.0,0.0,0.0,0.0,0.0,0.0,0.0,0.0,0.0,0.0,0.0,0.0,0.0,0.0,0.0,0.0,0.0,0.0,0.0,0.0,0.0,0.0,0.0,0.0,0.0,0.0,0.0,0.0,0.0,0.0,0.0,0.0,0.0,0.0,0.0,0.0,0.0,0.0,0.0,0.0,0.0,0.0,0.0,0.0,0.0,0.0,0.0,0.0,0.0,0.0,0.0,0.0,0.0,0.0,0.0,0.0,0.0,0.0,0.0,0.0,0.0,0.0,0.0,0.0,0.0,0.0,0.0,0.0,0.0,0.0,0.0,0.0,0.0,0.0,0.0,0.0,0.0,0.0,0.0,0.0,0.0,0.0,0.0,0.0,0.0,0.0,0.0,0.0,0.0,0.0,0.0,0.0,0.0,0.0,0.0,0.0,0.0,0.0,0.0,-2.0307,-1.9857,-1.9694,-1.9802,-1.9907,-2.0173,0.0,0.0,0.0,0.0,0.0,0.0,0.0,0.0,0.0,0.0,0.0,0.0,0.0,0.0,0.0,0.0,0.0,0.0,0.0,0.0,0.0,0.0,0.0,0.0,0.0,0.0,0.0,0.0,0.0,0.0,0.0,0.0,0.0,0.0,0.0,0.0,0.0,0.0,0.0,0.0,0.0,0.0,0.0,0.0,0.0,0.0,0.0,0.0,0.0,0.0,0.0,0.0,0.0,0.0,0.0,0.0,0.0,0.0,0.0,0.0,0.0,0.0,0.0,0.0,0.0,0.0,0.0,0.0,0.0,0.0,0.0,0.0,0.0,0.0,0.0,0.0,0.0,0.0,0.0,0.0,0.0,0.0,0.0,0.0,0.0,0.0,0.0,0.0,0.0,0.0,0.0,0.0,0.0,0.0,0.0,0.0,0.0,0.0,0.0,0.0,0.0,0.0,0.0,0.0,0.0,0.0,0.0,0.0,-2.0634,-2.0719,-2.0012,-1.9543,-1.9374,-2.0072,-2.0666,0.0,0.0,0.0,0.0,0.0,0.0,0.0,0.0,0.0,0.0,0.0,0.0,0.0,0.0,0.0,0.0,0.0,0.0,0.0,0.0,0.0,0.0,0.0,0.0,0.0,0.0,0.0,0.0,0.0,0.0,0.0,0.0,0.0,0.0,0.0,0.0,0.0,0.0,0.0,0.0,0.0,0.0,0.0,0.0,0.0,0.0,0.0,0.0,0.0,0.0,0.0,0.0,0.0,0.0,0.0,0.0,0.0,0.0,0.0,0.0,0.0,0.0,0.0,0.0,0.0,0.0,0.0,0.0,0.0,0.0,0.0,0.0,0.0,0.0,0.0,0.0,0.0,0.0,0.0,0.0,0.0,0.0,0.0,0.0,0.0,0.0,0.0,0.0,0.0,0.0,0.0,0.0,0.0,0.0,0.0,0.0,0.0,0.0,0.0,0.0,0.0,0.0,0.0,0.0,0.0,0.0,0.0,0.0,-2.1005,-2.1139,-2.01,-1.9377,-1.9097,-2.0002,-2.096,0.0,0.0,0.0,0.0,0.0,0.0,0.0,0.0,0.0,0.0,0.0,0.0,0.0,0.0,0.0,0.0,0.0,0.0,0.0,0.0,0.0,0.0,0.0,0.0,0.0,0.0,0.0,0.0,0.0,0.0,0.0,0.0,0.0,0.0,0.0,0.0,0.0,0.0,0.0,0.0,0.0,0.0,0.0,0.0,0.0,0.0,0.0,0.0,0.0,0.0,0.0,0.0,0.0,0.0,0.0,0.0,0.0,0.0,0.0,0.0,0.0,0.0,0.0,0.0,0.0,0.0,0.0,0.0,0.0,0.0,0.0,0.0,0.0,0.0,0.0,0.0,0.0,0.0,0.0,0.0,0.0,0.0,0.0,0.0,0.0,0.0,0.0,0.0,0.0,0.0,0.0,0.0,0.0,0.0,0.0,0.0,0.0,0.0,0.0,0.0,0.0,0.0,0.0,0.0,0.0,0.0,0.0,0.0,-2.1211,-2.1349,-2.0375,-1.9959,-2.0063,-2.0668,-2.0799,0.0,0.0,0.0,0.0,0.0,0.0,0.0,0.0,0.0,0.0,0.0,0.0,0.0,0.0,0.0,0.0,0.0,0.0,0.0,0.0,0.0,0.0,0.0,0.0,0.0,0.0,0.0,0.0,0.0,0.0,0.0,0.0,0.0,0.0,0.0,0.0,0.0,0.0,0.0,0.0,0.0,0.0,0.0,0.0,0.0,0.0,0.0,0.0,-2.2843,0.0,0.0,0.0,0.0,0.0,0.0,0.0,0.0,0.0,0.0,0.0,0.0,0.0,0.0,0.0,0.0,0.0,0.0,0.0,0.0,0.0,0.0,0.0,0.0,0.0,0.0,0.0,0.0,0.0,0.0,0.0,0.0,0.0,0.0,0.0,0.0,0.0,0.0,0.0,0.0,0.0,0.0,0.0,0.0,0.0,0.0,0.0,0.0,0.0,0.0,0.0,0.0,0.0,0.0,0.0,0.0,0.0,0.0,0.0,-2.1117,-2.1197,-2.0594,-2.0222,-2.0235,-2.1114,-2.1377,0.0,0.0,0.0,0.0,0.0,0.0,0.0,0.0,0.0,0.0,0.0,0.0,0.0,0.0,0.0,0.0,0.0,0.0,0.0,0.0,0.0,0.0,0.0,0.0,0.0,0.0,0.0,0.0,0.0,0.0,0.0,0.0,0.0,0.0,0.0,0.0,0.0,0.0,0.0,0.0,0.0,0.0,0.0,0.0,0.0,0.0,0.0,0.0,0.0,0.0,0.0,0.0,0.0,0.0,0.0,0.0,0.0,0.0,0.0,0.0,0.0,0.0,0.0,0.0,0.0,0.0,0.0,0.0,0.0,0.0,0.0,0.0,0.0,0.0,0.0,0.0,0.0,0.0,0.0,0.0,0.0,0.0,0.0,0.0,0.0,0.0,0.0,0.0,0.0,0.0,0.0,0.0,0.0,0.0,0.0,0.0,0.0,0.0,0.0,0.0,0.0,0.0,0.0,0.0,0.0,0.0,0.0,-2.1504,-2.1077,-2.0965,-2.0747,-2.0523,-2.0295,-2.1661,-2.2329,-2.2152,0.0,0.0,0.0,0.0,0.0,0.0,0.0,0.0,0.0,0.0,0.0,0.0,0.0,0.0,0.0,0.0,0.0,0.0,0.0,0.0,0.0,0.0,0.0,0.0,0.0,0.0,0.0,0.0,0.0,0.0,0.0,0.0,0.0,0.0,0.0,0.0,0.0,0.0,-1.8104,-2.0177,0.0,0.0,0.0,0.0,0.0,0.0,0.0,0.0,-2.2555,0.0,0.0,0.0,0.0,0.0,0.0,0.0,0.0,0.0,0.0,0.0,0.0,0.0,0.0,0.0,0.0,0.0,0.0,0.0,0.0,0.0,0.0,0.0,0.0,0.0,0.0,0.0,0.0,0.0,0.0,0.0,0.0,0.0,0.0,0.0,0.0,0.0,0.0,0.0,0.0,0.0,0.0,0.0,0.0,0.0,0.0,0.0,0.0,0.0,0.0,0.0,0.0,0.0,0.0,0.0,0.0,-2.155,-2.1755,-2.1565,-2.095,-2.1163,-2.1334,-2.1456,-2.2825,-2.3458,-2.3271,0.0,0.0,0.0,0.0,0.0,0.0,0.0,0.0,0.0,0.0,0.0,0.0,0.0,0.0,0.0,0.0,0.0,0.0,0.0,0.0,0.0,0.0,0.0,0.0,0.0,0.0,0.0,0.0,0.0,0.0,0.0,0.0,0.0,0.0,0.0,0.0,0.0,0.0,0.0,-2.182,-2.2938,0.0,0.0,0.0,0.0,0.0,0.0,0.0,0.0,-2.2385,0.0,0.0,0.0,0.0,0.0,0.0,0.0,0.0,0.0,0.0,0.0,0.0,0.0,0.0,0.0,0.0,0.0,0.0,0.0,0.0,0.0,0.0,0.0,0.0,0.0,0.0,0.0,0.0,0.0,0.0,0.0,0.0,0.0,0.0,0.0,0.0,0.0,0.0,0.0,0.0,0.0,0.0,0.0,0.0,0.0,0.0,0.0,0.0,0.0,0.0,0.0,0.0,0.0,0.0,0.0,-2.155,-2.1634,-2.1428,-2.0755,-2.1466,-2.1928,-2.2022,-2.3249,-2.3907,0.0,0.0,0.0,0.0,0.0,0.0,0.0,0.0,0.0,0.0,0.0,0.0,0.0,0.0,0.0,0.0,0.0,0.0,0.0,0.0,0.0,0.0,0.0,0.0,0.0,0.0,0.0,0.0,0.0,0.0,0.0,0.0,0.0,0.0,0.0,0.0,0.0,0.0,0.0,0.0,-2.2142,-2.3225,-2.3246,0.0,0.0,0.0,0.0,0.0,0.0,-2.2882,-2.2737,0.0,0.0,0.0,0.0,0.0,0.0,0.0,0.0,0.0,0.0,0.0,0.0,0.0,0.0,0.0,0.0,0.0,0.0,0.0,0.0,0.0,0.0,0.0,0.0,0.0,0.0,0.0,0.0,0.0,0.0,0.0,0.0,0.0,0.0,0.0,0.0,0.0,0.0,0.0,0.0,0.0,0.0,0.0,0.0,0.0,0.0,0.0,0.0,0.0,0.0,0.0,0.0,0.0,0.0,0.0,-2.1687,-2.1586,-2.1212,-2.0719,-2.1807,-2.2421,-2.2391,-2.3726,-2.4424,0.0,0.0,0.0,0.0,0.0,0.0,0.0,0.0,0.0,0.0,0.0,0.0,0.0,0.0,0.0,0.0,0.0,0.0,0.0,0.0,0.0,0.0,0.0,0.0,0.0,0.0,0.0,0.0,0.0,0.0,0.0,0.0,0.0,0.0,0.0,0.0,0.0,0.0,0.0,0.0,0.0,-2.3285,-2.3473,-2.4058,0.0,0.0,0.0,0.0,-2.3513,-2.3461,0.0,0.0,0.0,0.0,0.0,0.0,0.0,0.0,0.0,0.0,0.0,0.0,0.0,0.0,0.0,0.0,0.0,0.0,0.0,0.0,0.0,0.0,0.0,0.0,0.0,0.0,0.0,0.0,0.0,0.0,0.0,0.0,0.0,0.0,0.0,0.0,0.0,0.0,0.0,0.0,0.0,0.0,0.0,0.0,0.0,0.0,0.0,0.0,0.0,0.0,0.0,0.0,0.0,0.0,0.0,0.0,-2.1942,-2.1667,-2.1412,-2.1283,-2.2192,-2.2706,-2.2668,-2.4842,-2.5333,0.0,0.0,0.0,0.0,0.0,0.0,0.0,0.0,0.0,0.0,0.0,0.0,0.0,0.0,0.0,0.0,0.0,0.0,0.0,0.0,0.0,0.0,0.0,0.0,0.0,0.0,0.0,0.0,0.0,0.0,0.0,0.0,0.0,0.0,0.0,0.0,0.0,0.0,0.0,0.0,0.0,-2.3541,-2.3717,-2.4192,-2.4504,0.0,0.0,-2.4349,-2.4519,-2.4338,0.0,0.0,0.0,0.0,0.0,0.0,0.0,0.0,0.0,0.0,0.0,0.0,0.0,0.0,0.0,0.0,0.0,0.0,0.0,0.0,0.0,0.0,0.0,0.0,0.0,0.0,0.0,0.0,0.0,0.0,0.0,0.0,0.0,0.0,0.0,0.0,0.0,0.0,0.0,0.0,0.0,0.0,0.0,0.0,0.0,0.0,0.0,0.0,0.0,0.0,0.0,0.0,0.0,0.0,0.0,-2.21,-2.2052,-2.2047,-2.1928,-2.1723,-2.2794,-2.3261,-2.3058,-2.4744,-2.5145,0.0,0.0,0.0,0.0,0.0,0.0,0.0,0.0,0.0,0.0,0.0,0.0,0.0,0.0,0.0,0.0,0.0,0.0,0.0,0.0,0.0,0.0,0.0,0.0,0.0,0.0,0.0,0.0,0.0,0.0,0.0,0.0,0.0,0.0,0.0,0.0,0.0,0.0,0.0,0.0,0.0,0.0,-2.447,-2.4686,0.0,0.0,0.0,-2.4866,-2.5121,0.0,0.0,0.0,0.0,0.0,0.0,0.0,0.0,0.0,0.0,0.0,0.0,0.0,0.0,0.0,0.0,0.0,0.0,0.0,0.0,0.0,0.0,0.0,0.0,0.0,0.0,0.0,0.0,0.0,0.0,0.0,0.0,0.0,0.0,0.0,0.0,0.0,0.0,0.0,0.0,0.0,0.0,0.0,0.0,0.0,0.0,0.0,0.0,0.0,0.0,0.0,0.0,0.0,0.0,0.0,0.0,0.0,-2.2264,-2.2185,-2.2119,-2.2011,-2.3069,-2.3469,-2.3234,-2.435,0.0,0.0,0.0,0.0,0.0,0.0,0.0,0.0,0.0,0.0,0.0,0.0,0.0,0.0,0.0,0.0,0.0,0.0,0.0,0.0,0.0,0.0,0.0,0.0,0.0,0.0,0.0,-1.9508,0.0,0.0,0.0,0.0,0.0,0.0,0.0,0.0,0.0,0.0,0.0,0.0,0.0,0.0,-2.4556,-2.5042,-2.5168,-2.5254,0.0,0.0,-2.5159,-2.5341,-2.496,-2.4772,0.0,0.0,0.0,0.0,0.0,0.0,0.0,0.0,0.0,0.0,0.0,0.0,0.0,0.0,0.0,0.0,0.0,0.0,0.0,0.0,0.0,0.0,0.0,0.0,0.0,0.0,0.0,0.0,0.0,0.0,0.0,0.0,0.0,0.0,0.0,0.0,0.0,0.0,0.0,0.0,0.0,0.0,0.0,0.0,0.0,0.0,0.0,0.0,0.0,0.0,0.0,0.0,0.0,0.0,0.0,-2.2526,-2.1872,-2.1704,-2.2027,-2.2618,-2.2921,-2.2976,-2.3965,-2.4439,0.0,0.0,0.0,0.0,0.0,0.0,0.0,0.0,0.0,0.0,0.0,0.0,0.0,0.0,0.0,0.0,0.0,0.0,0.0,0.0,0.0,0.0,0.0,0.0,0.0,0.0,0.0,0.0,0.0,0.0,0.0,0.0,0.0,0.0,0.0,0.0,0.0,0.0,0.0,0.0,0.0,-2.4556,-2.5042,-2.5305,-2.5447,0.0,0.0,-2.5105,-2.5043,-2.4775,-2.46,-2.4723,0.0,0.0,0.0,0.0,0.0,0.0,0.0,0.0,0.0,0.0,0.0,0.0,0.0,0.0,0.0,0.0,0.0,0.0,0.0,0.0,0.0,0.0,0.0,0.0,0.0,0.0,0.0,0.0,0.0,0.0,0.0,0.0,0.0,0.0,0.0,0.0,0.0,0.0,0.0,0.0,0.0,0.0,0.0,0.0,0.0,0.0,0.0,0.0,0.0,0.0,0.0,0.0,0.0,-2.2598,-2.3261,-2.2699,-2.2498,-2.2609,-2.303,-2.315,-2.2983,-2.3787,-2.4262,0.0,0.0,0.0,0.0,0.0,0.0,0.0,0.0,0.0,0.0,0.0,0.0,0.0,0.0,0.0,0.0,0.0,0.0,0.0,0.0,0.0,0.0,0.0,0.0,0.0,0.0,0.0,0.0,-1.8579,-1.8456,-1.8644,0.0,0.0,0.0,0.0,0.0,0.0,0.0,0.0,0.0,0.0,-2.4911,-2.5259,-2.5245,0.0,0.0,-2.5063,-2.5024,-2.5605,-2.5176,-2.4955,-2.5386,-2.4836,0.0,0.0,0.0,0.0,0.0,0.0,0.0,0.0,0.0,0.0,0.0,0.0,0.0,0.0,0.0,0.0,0.0,0.0,0.0,0.0,0.0,0.0,0.0,0.0,0.0,0.0,0.0,0.0,0.0,0.0,0.0,0.0,0.0,0.0,0.0,0.0,0.0,0.0,0.0,0.0,0.0,0.0,0.0,0.0,0.0,0.0,0.0,0.0,0.0,0.0,0.0,0.0,-2.286,-2.3598,-2.3015,-2.2796,-2.2853,-2.3191,-2.3247,-2.3006,-2.3491,-2.4022,0.0,0.0,0.0,0.0,0.0,0.0,0.0,0.0,0.0,0.0,0.0,0.0,0.0,0.0,0.0,0.0,0.0,0.0,0.0,0.0,0.0,0.0,0.0,0.0,0.0,0.0,0.0,0.0,-1.8815,-1.8579,-1.8952,0.0,0.0,0.0,0.0,0.0,0.0,0.0,0.0,0.0,0.0,-2.5133,-2.5312,-2.529,-2.5369,-2.5578,-2.5337,-2.5278,-2.5886,-2.5411,-2.5119,-2.5553,0.0,0.0,0.0,0.0,0.0,0.0,0.0,0.0,0.0,0.0,0.0,0.0,0.0,0.0,0.0,0.0,0.0,0.0,0.0,0.0,0.0,0.0,0.0,0.0,0.0,0.0,0.0,0.0,0.0,0.0,-2.3577,0.0,0.0,0.0,0.0,0.0,0.0,0.0,0.0,0.0,0.0,0.0,0.0,0.0,0.0,0.0,0.0,0.0,0.0,0.0,0.0,0.0,0.0,-2.2739,-2.3289,-2.2521,-2.2286,-2.2626,-2.2853,-2.3022,-2.3022,-2.3006,-2.3484,-2.4449,0.0,0.0,0.0,0.0,0.0,0.0,0.0,0.0,0.0,0.0,0.0,0.0,0.0,0.0,0.0,0.0,0.0,0.0,0.0,0.0,0.0,0.0,0.0,0.0,0.0,0.0,-2.1047,-1.9805,-1.9011,0.0,0.0,0.0,0.0,0.0,0.0,0.0,0.0,0.0,0.0,-2.4446,-2.5024,-2.5111,-2.5623,-2.6026,-2.6066,-2.6115,-2.6041,-2.5778,-2.5338,-2.5011,0.0,0.0,0.0,0.0,0.0,0.0,0.0,0.0,0.0,0.0,0.0,0.0,0.0,0.0,0.0,0.0,0.0,0.0,0.0,0.0,0.0,0.0,0.0,0.0,0.0,0.0,0.0,-2.524,-2.5051,0.0,0.0,0.0,0.0,0.0,0.0,0.0,0.0,0.0,0.0,0.0,-2.2911,-2.2445,0.0,0.0,0.0,0.0,0.0,0.0,0.0,0.0,0.0,0.0,0.0,0.0,-2.3082,-2.3687,-2.2853,-2.257,-2.2853,-2.2965,-2.3022,-2.3022,-2.3022,-2.3406,-2.4213,0.0,0.0,0.0,0.0,0.0,0.0,0.0,0.0,0.0,0.0,0.0,0.0,0.0,0.0,0.0,0.0,0.0,0.0,0.0,0.0,0.0,0.0,0.0,0.0,0.0,-2.0906,0.0,0.0,0.0,0.0,0.0,0.0,0.0,0.0,0.0,0.0,0.0,-2.3885,-2.4303,-2.4927,-2.5476,-2.5972,-2.5773,-2.5664,0.0,0.0,0.0,0.0,0.0,0.0,0.0,0.0,0.0,0.0,0.0,0.0,0.0,0.0,-2.3835,-2.4144,-2.4013,-2.3804,-2.3661,0.0,0.0,0.0,0.0,0.0,0.0,0.0,0.0,0.0,0.0,0.0,0.0,0.0,0.0,-2.5415,0.0,-2.5066,0.0,0.0,0.0,0.0,0.0,0.0,0.0,0.0,-2.3699,-2.3399,-2.3124,-2.2741,-2.2409,0.0,-2.2113,-2.2578,0.0,0.0,0.0,0.0,0.0,0.0,0.0,0.0,-2.3129,-2.3648,-2.2767,-2.24,-2.2683,-2.2796,-2.2909,-2.3022,-2.3135,-2.3415,-2.3871,-2.4138,-2.4499,0.0,0.0,0.0,0.0,0.0,0.0,0.0,0.0,0.0,0.0,0.0,0.0,0.0,0.0,0.0,0.0,0.0,0.0,0.0,0.0,0.0,0.0,0.0,-2.0967,0.0,0.0,0.0,0.0,0.0,0.0,0.0,0.0,0.0,-2.2505,-2.3396,-2.4088,-2.4459,-2.5048,-2.5574,-2.597,0.0,0.0,0.0,0.0,0.0,0.0,0.0,-2.6097,-2.6152,-2.5628,-2.4931,-2.4268,-2.4212,-2.407,-2.3441,0.0,0.0,-2.387,-2.3899,-2.3883,-2.3686,-2.3471,-2.3273,-2.3026,-2.2673,-2.2307,0.0,0.0,0.0,0.0,0.0,0.0,0.0,0.0,-2.5174,-2.493,0.0,-2.4332,0.0,0.0,0.0,0.0,0.0,-2.4278,0.0,0.0,-2.3523,-2.3201,-2.3231,-2.2983,-2.2794,-2.2821,-2.2865,-2.3078,-2.331,-2.2507,0.0,0.0,0.0,0.0,0.0,0.0,-2.2852,-2.3045,-2.2227,-2.1847,-2.2116,-2.2456,-2.274,-2.3022,-2.3304,-2.3472,-2.3512,-2.409,-2.4213,-2.3745,-2.4404,0.0,0.0,0.0,0.0,0.0,0.0,0.0,0.0,0.0,0.0,0.0,0.0,0.0,0.0,0.0,0.0,0.0,0.0,0.0,0.0,-2.1668,0.0,0.0,0.0,0.0,0.0,0.0,0.0,0.0,0.0,0.0,-2.2403,-2.3757,-2.4629,-2.4227,0.0,0.0,0.0,0.0,-2.5471,-2.67,-2.6927,-2.7099,-2.7688,-2.6686,-2.5655,-2.5337,0.0,0.0,-2.3746,-2.4718,-2.5188,-2.4214,-2.4272,-2.4335,-2.336,-2.3496,-2.3754,-2.3687,-2.3627,-2.3535,-2.3275,-2.2682,-2.2325,-2.9611,0.0,0.0,0.0,0.0,-2.7428,-2.7084,-2.679,-2.6158,-2.5678,-2.5374,-2.5069,0.0,0.0,0.0,0.0,0.0,0.0,-2.4796,-2.4295,-2.4076,-2.3566,-2.2818,-2.2941,-2.2747,-2.2345,-2.2587,-2.2631,-2.2564,-2.2309,-2.2656,-2.3684,0.0,0.0,0.0,0.0,-2.2906,-2.2628,-2.24,-2.2245,-2.2116,-2.2626,-2.2909,-2.3022,-2.3078,-2.3135,-2.3119,-2.375,-2.401,-2.4013,-2.4242,0.0,0.0,0.0,0.0,0.0,0.0,0.0,0.0,0.0,0.0,0.0,0.0,0.0,0.0,0.0,0.0,0.0,0.0,0.0,-2.1828,-2.1291,-2.1098,0.0,0.0,0.0,0.0,0.0,0.0,0.0,0.0,0.0,-2.2154,-2.3699,-2.486,0.0,0.0,-2.5342,-2.5651,-2.5153,-2.4982,-2.5484,-2.5544,0.0,0.0,-2.511,-2.5117,-2.5047,-2.4457,-2.4018,-2.398,-2.3701,-2.337,-2.3088,-2.3125,-2.309,-2.2895,-2.3146,-2.3393,-2.3427,-2.3065,-2.2684,-2.2424,-2.2081,-2.1719,-2.9366,-2.8301,-2.8038,-2.8096,-2.8186,-2.7712,-2.734,-2.7076,-2.6415,-2.5932,-2.5511,-2.5317,-2.5117,-2.4929,-2.5242,0.0,0.0,0.0,-2.4894,-2.4207,-2.4207,-2.3726,-2.2793,-2.2731,-2.2568,-2.2334,-2.2196,-2.2176,-2.2178,-2.2348,-2.2817,-2.3415,0.0,0.0,-2.3288,-2.3035,-2.2654,-2.222,-2.2103,-2.2006,-2.1912,-2.2518,-2.2909,-2.3022,-2.3022,-2.3022,-2.3022,-2.3472,-2.371,-2.3684,-2.4081,-2.4491,0.0,0.0,0.0,0.0,0.0,0.0,0.0,0.0,0.0,0.0,0.0,-2.2327,-2.2636,0.0,0.0,0.0,-2.219,-2.2099,-2.2035,-2.1685,0.0,0.0,0.0,0.0,0.0,0.0,0.0,-2.1943,-2.2615,-2.3068,-2.3057,-2.4087,-2.4723,-2.4414,-2.4604,-2.4851,-2.5104,0.0,-2.4222,-2.4772,-2.4783,-2.4698,-2.4583,-2.4554,-2.4457,-2.4022,-2.3735,-2.3502,-2.347,-2.2987,-2.2653,-2.262,-2.2723,-2.2775,-2.2673,-2.2889,-2.3068,-2.2898,-2.2441,-2.1964,-2.1644,-2.1215,-2.078,-2.8815,-2.8569,-2.8384,-2.8193,-2.7934,-2.7609,-2.717,-2.6631,-2.625,-2.5807,-2.5293,-2.5141,-2.4967,-2.4894,-2.5219,0.0,-2.5155,-2.5187,-2.4799,-2.4115,-2.4115,-2.3779,-2.3087,-2.2523,-2.2321,-2.2606,-2.1992,-2.1902,-2.2223,-2.2661,-2.2942,-2.2972,-2.3003,-2.309,-2.3151,-2.2766,-2.2372,-2.1993,-2.1598,-2.1481,-2.1686,-2.2227,-2.2683,-2.2965,-2.3006,-2.3022,-2.3062,-2.336,-2.336,-2.3062,-2.3904,-2.4302,-2.4125,0.0,0.0,0.0,0.0,0.0,0.0,0.0,0.0,0.0,0.0,0.0,0.0,0.0,0.0,0.0,-2.2138,0.0,-2.2494,-2.2377,0.0,0.0,0.0,-2.1879,-2.1591,-2.1434,-2.1706,-2.235,0.0,0.0,-2.4554,-2.4709,-2.4403,-2.337,-2.3717,-2.4022,-2.3888,-2.3407,-2.3365,-2.4326,-2.4441,-2.4641,-2.4965,-2.4503,-2.3665,-2.2902,-2.2603,-2.2653,-2.2703,-2.2653,-2.2603,-2.2603,-2.286,-2.2997,-2.2755,-2.2761,-2.2699,-2.2369,-2.1869,-2.1396,-2.108,-2.0413,-1.9926,-2.8916,-2.8838,-2.8319,-2.7912,-2.7599,-2.7319,-2.7142,-2.6952,-2.6327,-2.5725,-2.514,-2.4859,-2.4586,-2.4338,-2.4879,-2.5005,-2.4728,-2.4981,-2.4878,-2.4518,-2.4452,-2.397,-2.3119,-2.3232,-2.3039,-2.262,-2.2668,-2.2764,-2.2864,-2.2977,-2.3261,-2.3743,-2.4051,-2.4158,-2.4106,-2.3869,-2.3468,-2.2793,-2.2912,-2.2629,-2.2037,-2.2112,-2.2343,-2.2683,-2.2909,-2.3135,-2.336,-2.3472,-2.3472,-2.336,-2.3615,-2.3878,-2.4122,-2.4561,0.0,0.0,0.0,0.0,0.0,0.0,0.0,0.0,0.0,-2.3206,-2.312,0.0,-2.3191,0.0,-2.2224,-2.1739,-2.1761,-2.1412,0.0,0.0,-2.1712,-2.1693,-2.1917,-2.1211,-2.1205,-2.2688,-2.2931,-2.3168,-2.3703,-2.414,-2.4224,-2.3632,-2.3595,-2.3645,-2.3598,-2.3253,-2.3075,-2.3353,-2.3229,-2.3114,-2.3352,-2.3138,-2.2887,-2.2636,-2.2603,-2.2603,-2.2603,-2.2603,-2.2603,-2.262,-2.286,-2.298,-2.2771,-2.2725,-2.2613,-2.2123,-2.1711,-2.1291,-2.0786,-2.0315,-1.991,-2.8916,-2.8755,-2.8199,-2.7822,-2.7461,-2.7177,-2.7073,-2.7073,-2.6571,-2.5961,-2.5258,-2.4655,-2.4291,-2.4115,-2.4679,-2.4744,-2.4598,-2.4905,-2.4876,-2.4569,-2.4488,-2.4021,-2.3333,-2.3189,-2.303,-2.2793,-2.2856,-2.3054,-2.3325,-2.3325,-2.3562,-2.4018,-2.4278,-2.4502,-2.4691,-2.459,-2.4151,-2.3433,-2.316,-2.2655,-2.1905,-2.1897,-2.2328,-2.3119,-2.3344,-2.3736,-2.4462,-2.4629,-2.4629,-2.4462,-2.4404,-2.4521,-2.4798,-2.5075,-2.5319,0.0,0.0,0.0,0.0,0.0,0.0,0.0,0.0,0.0,0.0,0.0,-2.3198,-2.3273,-2.2584,-2.2178,-2.2361,-2.1987,-2.1762,-2.1982,-2.1764,-2.1507,-2.1294,-2.0752,-2.0947,-2.2403,-2.2489,-2.286,-2.3922,-2.4193,-2.4193,-2.3941,-2.3576,-2.334,-2.3291,-2.305,-2.2821,-2.2839,-2.2698,-2.2603,-2.2603,-2.2603,-2.2603,-2.2603,-2.2603,-2.2603,-2.2603,-2.2603,-2.2603,-2.2637,-2.2894,-2.3043,-2.2814,-2.2963,-2.2906,-2.2328,-2.1783,-2.1258,-2.0527,-2.0104,-1.9776,-2.8833,-2.8589,-2.8157,-2.7892,-2.7721,-2.7289,-2.7073,-2.7073,-2.677,-2.6205,-2.5443,-2.4529,-2.4119,-2.3984,-2.4415,-2.4481,-2.4532,-2.4899,-2.4914,-2.4621,-2.432,-2.4042,-2.372,-2.3111,-2.2952,-2.3237,-2.2923,-2.3068,-2.3647,-2.3662,-2.3843,-2.4207,-2.4251,-2.4574,-2.5078,-2.5064,-2.4671,-2.3885,-2.2991,-2.2285,-2.1788,-2.2055,-2.278,-2.3983,-2.415,-2.4667,-2.5734,-2.5935,-2.5935,-2.5789,-2.5613,-2.5559,-2.5604,-2.5646,-2.5885,0.0,-2.6655,0.0,0.0,0.0,0.0,0.0,0.0,0.0,0.0,-2.298,-2.2979,-2.3289,-2.2881,-2.2778,-2.3235,-2.2795,-2.2437,-2.2159,-2.1822,-2.1279,-2.0544,-2.0443,-2.0888,-2.2085,-2.2199,-2.2877,-2.4484,-2.4415,-2.4176,-2.423,-2.3684,-2.3255,-2.3238,-2.2928,-2.2619,-2.2603,-2.2603,-2.2603,-2.2603,-2.2603,-2.2603,-2.2603,-2.2603,-2.2603,-2.2603,-2.2603,-2.2603,-2.2671,-2.2944,-2.3118,-2.2831,-2.319,-2.3254,-2.2498,-2.1994,-2.1386,-2.0481,-1.9925,-1.962,-2.9177,-2.9313,-2.8385,-2.8331,-2.88,-2.7635,-2.7073,-2.7073,-2.7012,-2.6344,-2.5197,-2.4718,-2.4056,-2.334,-2.391,-2.4027,-2.3823,-2.4393,-2.4627,-2.4583,-2.4774,-2.4701,-2.4393,-2.4254,-2.4094,-2.391,-2.3831,-2.386,-2.3998,-2.3984,-2.4267,-2.4759,-2.5147,-2.5282,-2.5287,0.0,0.0,0.0,-2.3333,-2.2849,-2.2806,-2.394,-2.4689,-2.4965,-2.5423,0.0,-2.6318,-2.599,-2.5826,-2.5972,-2.5772,0.0,0.0,0.0,0.0,0.0,0.0,0.0,0.0,0.0,0.0,0.0,-2.4654,-2.4145,-2.3578,-2.3424,-2.3315,-2.3187,-2.2484,-2.2017,-2.2025,-2.1501,-2.1178,-2.1398,-2.1326,-2.1185,-2.1017,-2.1017,-2.1517,-2.2667,-2.2821,-2.3328,-2.4518,-2.4432,-2.4313,-2.459,-2.4042,-2.3734,-2.3956,-2.3186,-2.2637,-2.2603,-2.2637,-2.2603,-2.2603,-2.2603,-2.2603,-2.2603,-2.2603,-2.2603,-2.2603,-2.2603,-2.2603,-2.262,-2.2909,-2.3098,-2.2864,-2.3151,-2.3191,-2.2269,-2.1978,-2.162,-2.0688,-2.0061,-1.962,-2.9709,0.0,-2.8939,-2.8835,0.0,-2.8102,-2.7621,-2.7604,-2.7227,-2.6549,-2.556,-2.4858,-2.4287,-2.3858,-2.4004,-2.4086,-2.4101,-2.4583,-2.4885,-2.4818,-2.4818,-2.4642,-2.4335,-2.4335,-2.4159,-2.3852,-2.4013,-2.4174,-2.432,-2.4386,-2.4583,-2.5026,-2.5091,-2.508,-2.4984,-2.4966,-2.4722,-2.414,-2.3846,-2.3473,-2.2892,-2.3534,-2.4109,-2.4539,0.0,0.0,0.0,0.0,0.0,0.0,0.0,0.0,0.0,0.0,0.0,-2.5943,-2.6014,-2.5979,-2.5851,-2.56,-2.5313,-2.4985,-2.4433,-2.3909,-2.3535,-2.3234,-2.2931,-2.2481,-2.2007,-2.1679,-2.1445,-2.1114,-2.1028,-2.1189,-2.1203,-2.1203,-2.136,-2.1288,-2.1744,-2.2877,-2.3087,-2.344,-2.4646,-2.4603,-2.4607,-2.4761,-2.4333,-2.4008,-2.4127,-2.3597,-2.3152,-2.3135,-2.298,-2.2826,-2.286,-2.2705,-2.2603,-2.2603,-2.2603,-2.2603,-2.2603,-2.2603,-2.2603,-2.2656,-2.2835,-2.2988,-2.2879,-2.31,-2.3023,-2.2245,-2.1874,-2.1555,-2.0779,-2.0257,-1.9829,-3.0241,-3.0233,-2.96,-2.9341,-2.9322,-2.8633,-2.8215,-2.8049,0.0,0.0,0.0,-2.5265,-2.4799,-2.4605,-2.4281,-2.4298,-2.4496,-2.4885,-2.5046,-2.5031,-2.4701,-2.4423,-2.4174,-2.4101,-2.3954,-2.3706,-2.3954,-2.4247,-2.4554,-2.4569,-2.4811,-2.5075,-2.4797,-2.4642,-2.4565,-2.4295,-2.4147,-2.4113,-2.4428,-2.4102,-2.3093,-2.3243,-2.3655,-2.4351,-2.4396,-2.4962,-2.6229,-2.6175,-2.6507,-2.7282,-2.6557,-2.6593,-2.7614,-2.6587,-2.6189,-2.6672,-2.6406,-2.6028,-2.5627,-2.5585,-2.5304,-2.4544,-2.3885,-2.3493,-2.3536,-2.2959,-2.2383,-2.1822,-2.175,-2.1563,-2.1218,-2.1203,-2.1203,-2.1203,-2.1318,-2.1531,-2.1687,-2.1786,-2.2297,-2.3255,-2.3424,-2.3664,-2.4646,-2.4812,-2.483,-2.4778,-2.4538,-2.4279,-2.4227,-2.3939,-2.3615,-2.346,-2.322,-2.3083,-2.298,-2.2808,-2.262,-2.2603,-2.2603,-2.2603,-2.2603,-2.2654,-2.2673,-2.2722,-2.2775,-2.2905,-2.2873,-2.2935,-2.2726,-2.2125,-2.18,-2.143,-2.0768,-2.0431,-2.0095,-3.0406,-3.0681,-2.994,-2.9896,-3.0165,-2.9095,-2.831,-2.7723,-2.7616,-2.7247,-2.6582,-2.612,-2.5383,-2.4605,-2.454,-2.4361,-2.4239,-2.4496,-2.4642,0.0,-2.4583,-2.4606,-2.4547,-2.4218,-2.4057,-2.4027,-2.4071,-2.4247,-2.454,-2.4569,-2.473,-2.5046,-2.5063,-2.485,-2.4647,-2.4548,-2.4517,-2.4517,-2.4795,-2.4833,-2.4701,-2.5625,-2.6191,-2.6311,-2.6204,-2.6287,-2.6509,-2.6056,-2.584,-2.5967,-2.6087,-2.6084,-2.5775,-2.5625,-2.5369,-2.499,-2.4628,-2.4424,-2.4354,-2.4354,-2.4295,-2.4161,-2.3524,-2.3407,-2.3935,-2.3139,-2.2452,-2.2066,-2.1831,-2.1569,-2.1262,-2.1203,-2.1203,-2.1261,-2.1873,-2.224,-2.2157,-2.3103,-2.3776,-2.3848,-2.4239,-2.4535,-2.4757,-2.483,-2.483,-2.4812,-2.4744,-2.471,-2.4607,-2.4127,-2.3597,-2.3288,-2.3151,-2.298,-2.286,-2.2671,-2.262,-2.2603,-2.2603,-2.2603,-2.2552,-2.2792,-2.286,-2.2755,-2.2938,-2.3081,-2.2938,-2.2784,-2.2548,-2.2163,-2.1896,-2.1451,-2.0818,-2.063,-2.0424,-3.1633,-3.1084,-3.0601,-3.0345,-3.0343,-2.9391,-2.8828,-2.8482,-2.8331,-2.7794,-2.6935,-2.6328,-2.5955,-2.5692,-2.5146,-2.4898,-2.4893,-2.4893,-2.4899,-2.4832,-2.4899,-2.4811,-2.4583,-2.4598,-2.4525,-2.4364,-2.4606,-2.4598,-2.4635,-2.4768,-2.49,-2.4841,-2.4985,-2.496,-2.4625,-2.4812,-2.4857,-2.4857,-2.5005,-2.4932,-2.4833,-2.5274,-2.547,-2.5327,-2.5259,-2.5232,-2.5232,-2.4966,-2.4956,-2.5298,-2.5148,-2.5143,-2.5444,-2.4977,-2.4649,-2.4574,-2.4252,-2.4114,-2.4114,-2.4114,-2.4114,-2.4098,-2.3485,-2.3237,-2.3546,-2.2687,-2.1991,-2.1669,-2.1495,-2.1379,-2.1218,-2.1203,-2.1375,-2.1873,-2.2157,-2.2652,-2.3384,-2.3776,-2.4239,-2.4518,-2.4701,-2.483,-2.483,-2.483,-2.483,-2.483,-2.483,-2.483,-2.483,-2.4538,-2.4247,-2.4059,-2.3871,-2.3562,-2.3255,-2.3032,-2.2843,-2.2637,-2.2603,-2.2552,-2.2418,-2.2656,-2.2753,-2.262,-2.2868,-2.3009,-2.2926,-2.2783,-2.2498,-2.2173,-2.1888,-2.1529,-2.107,-2.0754,-2.0335,-3.2638,-3.1377,-3.1138,-3.0815,-3.0313,-2.9643,-2.9265,-2.9131,-2.8869,-2.8223,-2.7338,-2.6713,-2.6545,-2.6604,-2.5855,-2.5486,-2.5577,-2.5322,-2.5187,-2.5119,-2.5046,-2.4885,-2.4665,-2.4774,-2.4701,-2.4576,-2.4849,-2.4878,-2.4782,-2.5032,-2.5111,-2.4955,-2.5149,-2.5062,-2.4859,-2.5028,-2.5103,-2.5103,-2.5103,-2.4976,-2.4706,-2.4706,-2.4623,-2.4368,-2.4273,-2.4225,-2.4225,-2.4161,-2.429,-2.4701,-2.4349,-2.445,-2.5094,-2.4444,-2.4061,-2.4295,-2.4039,-2.3875,-2.3875,-2.3875,-2.3816,-2.3758,-2.3231,-2.2879,-2.2716,-2.2075,-2.1534,-2.1363,-2.135,-2.1306,-2.1233,-2.1203,-2.1546,-2.2312,-2.2425,-2.3006,-2.4278,-2.4351,-2.4406,-2.4962,-2.4923,-2.483,-2.483,-2.483,-2.483,-2.483,-2.483,-2.483,-2.483,-2.483,-2.483,-2.4727,-2.4364,-2.3922,-2.3597,-2.3203,-2.2809,-2.2519,-2.2434,-2.2333,-2.2198,-2.2398,-2.2626,-2.2531,-2.2776,-2.295,-2.2958,-2.2683,-2.2343,-2.2059,-2.1774,-2.1432,-2.1117,-2.0729,-2.0285,-3.2619,-3.1506,-3.1377,-3.1009,-3.0378,-2.9643,-2.9128,-2.8871,-2.8837,-2.8527,-2.8073,-2.7736,-2.7238,-2.6718,-2.662,-2.6167,-2.5659,-2.5592,-2.539,-2.509,-2.4811,-2.4598,-2.4635,-2.44,-2.4159,-2.4224,-2.4559,-2.4854,-2.5099,-2.5348,-2.5662,-2.5913,-2.5698,-2.5532,-2.5454,-2.52,-2.5103,-2.5103,-2.5103,-2.5103,-2.5071,-2.5056,-2.504,-2.5008,-2.469,-2.4531,-2.4499,-2.4273,-2.4114,-2.4172,-2.4172,-2.4172,-2.4199,-2.3827,-2.3594,-2.3594,-2.3292,-2.3101,-2.3117,-2.3101,-2.3035,-2.2777,-2.2466,-2.2124,-2.191,-2.1491,-2.1393,-2.154,-2.1628,-2.1481,-2.1247,-2.1203,-2.1489,-2.2214,-2.2765,-2.3496,-2.4016,-2.4629,-2.5017,-2.4812,-2.483,-2.483,-2.483,-2.483,-2.483,-2.483,-2.483,-2.483,-2.483,-2.483,-2.483,-2.471,-2.423,-2.3665,-2.3288,-2.2911,-2.257,-2.2249,-2.2131,-2.203,-2.1943,-2.227,-2.2675,-2.2419,-2.2915,-2.3151,-2.2749,-2.24,-2.2116,-2.1831,-2.1489,-2.1146,-2.0845,-2.0616,-2.0373,-3.3819,-3.2492,-3.1744,-3.1009,-3.0313,-2.9643,-2.923,-2.9111,-2.9093,-2.8898,-2.8523,-2.8196,-2.7783,-2.7251,-2.6851,-2.6532,-2.6264,-2.5996,-2.5809,-2.5644,-2.5524,-2.5464,-2.5449,-2.533,-2.527,-2.5255,-2.5453,-2.5489,-2.5414,-2.5574,-2.5683,-2.5801,-2.5659,-2.5486,-2.5342,-2.5183,-2.5103,-2.5103,-2.5103,-2.5103,-2.5103,-2.5103,-2.5103,-2.5087,-2.4976,-2.4785,-2.4595,-2.4496,-2.4337,-2.4129,-2.4114,-2.4114,-2.4114,-2.3912,-2.3753,-2.3488,-2.3156,-2.3022,-2.3022,-2.3022,-2.2909,-2.2642,-2.2286,-2.2002,-2.1717,-2.139,-2.1276,-2.1379,-2.1408,-2.135,-2.1233,-2.1017,-2.1417,-2.2539,-2.2918,-2.3311,-2.4573,-2.4795,-2.4923,-2.4812,-2.483,-2.483,-2.483,-2.483,-2.483,-2.483,-2.483,-2.483,-2.483,-2.483,-2.483,-2.4706,-2.4187,-2.3727,-2.3458,-2.2979,-2.257,-2.2198,-2.1979,-2.1776,-2.1636,-2.2074,-2.2457,-2.2258,-2.2798,-2.3046,-2.2683,-2.2343,-2.2002,-2.166,-2.1246,-2.0845,-2.0716,-2.0385,-2.0085,-3.4881,-3.3316,-3.1763,-3.0879,-3.0313,-2.9643,-2.9299,-2.9299,-2.9299,-2.9185,-2.8922,-2.8461,-2.813,-2.7783,-2.7118,-2.68,-2.6666,-2.6398,-2.6213,-2.613,-2.6063,-2.6063,-2.6063,-2.6063,-2.6063,-2.613,-2.6197,-2.6208,-2.6013,-2.595,-2.5911,-2.5866,-2.5676,-2.5454,-2.5278,-2.5183,-2.5103,-2.5103,-2.5103,-2.5103,-2.5103,-2.5103,-2.5103,-2.5103,-2.5103,-2.4992,-2.4754,-2.4722,-2.4611,-2.4356,-2.4321,-2.4257,-2.4257,-2.4161,-2.3943,-2.3705,-2.3451,-2.3292,-2.3308,-2.3213,-2.2994,-2.2637,-2.2291,-2.1945,-2.1603,-2.1332,-2.1203,-2.1233,-2.1291,-2.135,-2.1146,-2.1131,-2.1744,-2.303,-2.299,-2.3552,-2.4851,-2.4923,-2.483,-2.483,-2.483,-2.483,-2.483,-2.483,-2.483,-2.483,-2.483,-2.483,-2.483,-2.483,-2.483,-2.4812,-2.4196,-2.382,-2.371,-2.3159,-2.2616,-2.221,-2.1921,-2.1797,-2.1525,-2.2006,-2.2441,-2.2384,-2.272,-2.2733,-2.2441,-2.2173,-2.1831,-2.1489,-2.1017,-2.0601,-2.0385,-2.004,-1.9809,-3.55,-3.3253,-3.1249,-3.0443,-3.0313,-2.9643,-2.9316,-2.935,-2.9333,-2.9333,-2.9219,-2.8609,-2.8263,-2.8196,-2.7467,-2.7,-2.6733,-2.6666,-2.6465,-2.6197,-2.613,-2.6145,-2.6063,-2.6063,-2.6145,-2.6197,-2.6532,-2.6784,-2.7004,-2.6819,-2.6644,-2.6581,-2.5993,-2.5581,-2.558,-2.5326,-2.5119,-2.5151,-2.5151,-2.5119,-2.5103,-2.5103,-2.5103,-2.5103,-2.5103,-2.5087,-2.5071,-2.5071,-2.5056,-2.504,-2.4722,-2.4563,-2.4531,-2.4305,-2.4129,-2.4082,-2.4066,-2.4034,-2.3986,-2.3689,-2.3242,-2.2674,-2.2345,-2.1862,-2.1377,-2.1262,-2.1247,-2.1203,-2.1409,-2.1467,-2.1291,-2.1606,-2.2188,-2.2893,-2.3512,-2.4016,-2.4757,-2.4812,-2.483,-2.483,-2.483,-2.483,-2.483,-2.483,-2.483,-2.483,-2.483,-2.483,-2.483,-2.483,-2.4774,-2.465,-2.4247,-2.3796,-2.3745,-2.3178,-2.2564,-2.2209,-2.2103,-2.2139,-2.1975,-2.1926,-2.2227,-2.2458,-2.2576,-2.2523,-2.2214,-2.1831,-2.1489,-2.1131,-2.0845,-2.0558,-2.027,-1.9982,-1.9707,-3.5664,-3.3253,-3.1249,-3.0378,-3.0313,-2.9643,-2.9453,-2.9693,-2.9693,-2.9693,-2.9626,-2.9227,-2.876,-2.8263,-2.7716,-2.7318,-2.7067,-2.7,-2.6934,-2.6816,-2.68,-2.68,-2.68,-2.68,-2.68,-2.68,-2.6934,-2.7067,-2.72,-2.7073,-2.6899,-2.6676,-2.6438,-2.6199,-2.5977,-2.5897,-2.5675,-2.5469,-2.5453,-2.5342,-2.5119,-2.5103,-2.5103,-2.5103,-2.5103,-2.5103,-2.5103,-2.5103,-2.5103,-2.5103,-2.4976,-2.4913,-2.4881,-2.4595,-2.4388,-2.4372,-2.4241,-2.4114,-2.4098,-2.3767,-2.3352,-2.2984,-2.2598,-2.2184,-2.1686,-2.1511,-2.1437,-2.1263,-2.1089,-2.1,-2.1074,-2.1612,-2.2257,-2.2642,-2.3215,-2.396,-2.459,-2.483,-2.483,-2.483,-2.483,-2.483,-2.483,-2.483,-2.483,-2.483,-2.483,-2.483,-2.4774,-2.4646,-2.4535,-2.4479,-2.4044,-2.3612,-2.3612,-2.2977,-2.2408,-2.2306,-2.2199,-2.2124,-2.1995,-2.218,-2.2482,-2.2522,-2.2551,-2.2369,-2.2059,-2.166,-2.1261,-2.1031,-2.0788,-2.0443,-2.0155,-1.9822,-1.9591,-3.6452,-3.4435,-3.2208,-3.1258,-3.1109,-3.0139,-2.983,-3.0052,-2.995,-2.9831,-2.968,-2.9228,-2.8693,-2.808,-2.7716,-2.7384,-2.72,-2.72,-2.72,-2.72,-2.72,-2.72,-2.72,-2.72,-2.72,-2.72,-2.72,-2.72,-2.7185,-2.7089,-2.6899,-2.6692,-2.663,-2.6455,-2.6232,-2.6041,-2.585,-2.5596,-2.547,-2.5342,-2.5135,-2.5103,-2.5103,-2.5103,-2.5103,-2.5103,-2.5103,-2.5103,-2.5103,-2.5103,-2.5103,-2.5103,-2.5087,-2.4881,-2.4754,-2.4722,-2.4531,-2.4328,-2.4253,-2.3951,-2.3575,-2.3126,-2.2811,-2.2364,-2.1935,-2.1847,-2.1686,-2.1409,-2.1156,-2.0924,-2.0847,-2.1627,-2.243,-2.2627,-2.3336,-2.4072,-2.4701,-2.483,-2.483,-2.483,-2.483,-2.483,-2.483,-2.483,-2.483,-2.483,-2.4774,-2.4663,-2.4663,-2.4423,-2.4256,-2.42,-2.3865,-2.3552,-2.348,-2.3083,-2.2634,-2.2445,-2.2509,-2.2298,-2.2212,-2.245,-2.2569,-2.2521,-2.2408,-2.2209,-2.1888,-2.1489,-2.1203,-2.0974,-2.063,-2.027,-1.9996,-1.9649,-1.9488,-3.7779,-3.6582,-3.4192,-3.2916,-3.2464,-3.093,-3.0343,-3.0207,-2.9968,-2.9613,-2.9312,-2.8677,-2.8212,-2.7716,-2.7451,-2.7267,-2.72,-2.72,-2.72,-2.72,-2.72,-2.72,-2.72,-2.72,-2.72,-2.72,-2.72,-2.72,-2.7185,-2.693,-2.6756,-2.6644,-2.6471,-2.6327,-2.6216,-2.5898,-2.5691,-2.5533,-2.5357,-2.5167,-2.5103,-2.5103,-2.5103,-2.5103,-2.5103,-2.5103,-2.5103,-2.5103,-2.5103,-2.5103,-2.5103,-2.5103,-2.5103,-2.5071,-2.5087,-2.5056,-2.5071,-2.4887,-2.4578,-2.4268,-2.3733,-2.3278,-2.2796,-2.2497,-2.2258,-2.2184,-2.2052,-2.1611,-2.1435,-2.1147,-2.0658,-2.1667,-2.2645,-2.272,-2.3739,-2.4663,-2.4808,-2.4847,-2.483,-2.483,-2.4791,-2.483,-2.4774,-2.4701,-2.4646,-2.4646,-2.4535,-2.4368,-2.4384,-2.4089,-2.3921,-2.3865,-2.3641,-2.3416,-2.3304,-2.3215,-2.2879,-2.2625,-2.2808,-2.2784,-2.2609,-2.272,-2.2703,-2.2614,-2.222,-2.2002,-2.1603,-2.1203,-2.0974,-2.073,-2.0385,-2.0155,-1.9822,-1.9591,-1.9475,-3.7857,-3.6493,-3.4856,-3.323,-3.1838,-3.0745,-2.9978,-2.9362,-2.9194,-2.9093,-2.8925,-2.8759,-2.8294,-2.7815,-2.7584,-2.74,-2.72,-2.72,-2.72,-2.7216,-2.72,-2.72,-2.72,-2.72,-2.72,-2.72,-2.72,-2.72,-2.7185,-2.7073,-2.7042,-2.6978,-2.6676,-2.6582,-2.6534,-2.6232,-2.5898,-2.5659,-2.547,-2.5357,-2.5135,-2.5103,-2.5103,-2.5103,-2.5103,-2.5103,-2.5103,-2.5103,-2.5103,-2.5103,-2.5103,-2.5103,-2.5103,-2.5103,-2.5103,-2.5042,-2.4857,-2.4734,-2.4533,-2.407,-2.3686,-2.3439,-2.3103,-2.2772,-2.252,-2.243,-2.2103,-2.1424,-2.1039,-2.0609,-2.0148,-2.0625,-2.1637,-2.2483,-2.3886,-2.4877,-2.5104,-2.5172,-2.5069,-2.4842,-2.4867,-2.4789,-2.4547,-2.4384,-2.4256,-2.42,-2.4144,-2.4089,-2.4033,-2.3809,-2.3641,-2.3585,-2.336,-2.3223,-2.3214,-2.3198,-2.3015,-2.2847,-2.2958,-2.3006,-2.2895,-2.2751,-2.2749,-2.2513,-2.2116,-2.1717,-2.1318,-2.1031,-2.0788,-2.0558,-2.027,-1.9982,-1.9764,-1.9591,-1.9475,-3.9173,-3.7792,-3.647,-3.5072,-3.3535,-3.2504,-3.123,-3.0122,-2.9868,-2.9547,-2.9124,-2.8857,-2.8557,-2.816,-2.8111,-2.783,-2.7416,-2.7384,-2.7413,-2.7343,-2.7248,-2.72,-2.72,-2.72,-2.72,-2.72,-2.72,-2.72,-2.72,-2.72,-2.7137,-2.6978,-2.6787,-2.6597,-2.6534,-2.62,-2.5834,-2.5581,-2.55,-2.5326,-2.5151,-2.5103,-2.5103,-2.5103,-2.5103,-2.5103,-2.5103,-2.5103,-2.5103,-2.5103,-2.5103,-2.5103,-2.5103,-2.498,-2.4919,-2.4857,-2.461,-2.4363,-2.4239,-2.3852,-2.3542,-2.3417,-2.323,-2.3032,-2.278,-2.2613,-2.2039,-2.1582,-2.084,-2.0227,-1.9949,-2.0208,-2.1006,-2.1897,-2.3325,-2.4484,-2.502,-2.5292,-2.5275,-2.5082,-2.4941,-2.4811,-2.458,-2.4138,-2.3937,-2.3921,-2.3809,-2.3753,-2.3697,-2.3528,-2.3465,-2.3368,-2.3255,-2.319,-2.3197,-2.3165,-2.3101,-2.307,-2.3101,-2.3054,-2.2974,-2.2789,-2.2683,-2.2173,-2.1774,-2.1546,-2.1146,-2.0902,-2.0673,-2.0385,-2.0155,-1.9866,-1.9591,-1.9533,-1.943,-4.1275,-4.0259,-3.8825,-3.7728,-3.687,-3.5394,-3.3589,-3.2144,-3.1552,-3.0649,-2.9646,-2.9073,-2.884,-2.8807,-2.8674,-2.8309,-2.7831,-2.765,-2.771,-2.7653,-2.7391,-2.72,-2.72,-2.7264,-2.7264,-2.72,-2.72,-2.72,-2.72,-2.72,-2.7026,-2.674,-2.6692,-2.6485,-2.628,-2.5834,-2.5739,-2.5691,-2.5405,-2.5262,-2.523,-2.5214,-2.5214,-2.523,-2.5199,-2.5183,-2.5183,-2.5135,-2.5103,-2.5103,-2.5103,-2.5042,-2.5058,-2.4795,-2.4672,-2.4548,-2.4239,-2.3991,-2.3681,-2.3542,-2.3417,-2.3168,-2.3106,-2.3106,-2.2999,-2.2534,-2.2075,-2.1835,-2.0846,-2.008,-2.0089,-2.0149,-2.065,-2.1306,-2.2811,-2.3942,-2.476,-2.5258,-2.5412,-2.5372,-2.5167,-2.4922,-2.4832,-2.4248,-2.3947,-2.3753,-2.3585,-2.3472,-2.3432,-2.3327,-2.3285,-2.326,-2.3276,-2.3403,-2.3546,-2.3499,-2.3451,-2.3467,-2.3451,-2.3371,-2.3162,-2.2975,-2.2689,-2.2157,-2.165,-2.1391,-2.1118,-2.0903,-2.0644,-2.0385,-2.004,-1.9707,-1.9533,-1.9417,-1.943,-4.118,-3.9708,-3.9621,-3.8293,-3.6314,-3.5462,-3.4232,-3.2564,-3.1598,-3.1108,-3.0446,-2.9646,-2.9139,-2.884,-2.884,-2.8542,-2.8245,-2.7882,-2.7911,-2.8019,-2.7493,-2.7216,-2.7264,-2.7455,-2.7439,-2.7232,-2.72,-2.72,-2.72,-2.72,-2.701,-2.6692,-2.6676,-2.655,-2.6232,-2.6104,-2.6088,-2.6009,-2.5929,-2.585,-2.5834,-2.5834,-2.5945,-2.585,-2.5628,-2.55,-2.5406,-2.5246,-2.5103,-2.5103,-2.5103,-2.498,-2.4795,-2.461,-2.4425,-2.4239,-2.3914,-2.3666,-2.3542,-2.3355,-2.3168,-2.3106,-2.3106,-2.3106,-2.3106,-2.248,-2.1999,-2.163,-2.0753,-1.9992,-1.9789,-1.965,-2.0294,-2.193,-2.3051,-2.4124,-2.5232,-2.5662,-2.5788,-2.5748,-2.5778,-2.5369,-2.4803,-2.4252,-2.3788,-2.3457,-2.3263,-2.3223,-2.3271,-2.3374,-2.3435,-2.3562,-2.3642,-2.3785,-2.3938,-2.3848,-2.3832,-2.3938,-2.388,-2.388,-2.3625,-2.3302,-2.2923,-2.2467,-2.1905,-2.1584,-2.1293,-2.1003,-2.0686,-2.037,-1.988,-1.9533,-1.9475,-1.943,-1.943,-4.1529,-4.0401,-4.0415,-3.926,-3.7496,-3.693,-3.5627,-3.3946,-3.3192,-3.225,-3.1522,-3.084,-3.0207,-2.9765,-2.9748,-2.9411,-2.8959,-2.8574,-2.8516,-2.8587,-2.8184,-2.7661,-2.7391,-2.7439,-2.7391,-2.7232,-2.72,-2.72,-2.72,-2.72,-2.701,-2.674,-2.6676,-2.655,-2.6232,-2.62,-2.6216,-2.62,-2.62,-2.62,-2.62,-2.62,-2.62,-2.6184,-2.5929,-2.5802,-2.5565,-2.5437,-2.5278,-2.5089,-2.498,-2.4795,-2.461,-2.4301,-2.4115,-2.3867,-2.3604,-2.3355,-2.3355,-2.3168,-2.3106,-2.3106,-2.3106,-2.2918,-2.2668,-2.2181,-2.1727,-2.1348,-2.0602,-2.0157,-1.9954,-1.9584,-2.0435,-2.2257,-2.3112,-2.4063,-2.5669,-2.6062,-2.6048,-2.5999,-2.5847,-2.5661,-2.4811,-2.4259,-2.3713,-2.3333,-2.3158,-2.3165,-2.3244,-2.3393,-2.3631,-2.388,-2.3975,-2.407,-2.4209,-2.4193,-2.4182,-2.4289,-2.4237,-2.4221,-2.3782,-2.3438,-2.3035,-2.2572,-2.2171,-2.1803,-2.1495,-2.1102,-2.064,-2.028,-1.9761,-1.9488,-1.943,-1.9484,-1.9484,-4.2061,-4.1719,-4.1142,-4.0431,-3.9605,-3.9057,-3.7554,-3.5964,-3.5438,-3.4364,-3.3007,-3.246,-3.1857,-3.1219,-3.1064,-3.0703,-2.9867,-2.9357,-2.9057,-2.891,-2.8515,-2.8011,-2.728,-2.7328,-2.7312,-2.7216,-2.72,-2.72,-2.72,-2.72,-2.701,-2.6787,-2.6724,-2.6614,-2.6423,-2.6343,-2.6343,-2.6407,-2.6439,-2.6455,-2.6455,-2.6455,-2.6455,-2.6439,-2.6327,-2.5977,-2.5676,-2.5502,-2.536,-2.5059,-2.4765,-2.4548,-2.4425,-2.3852,-2.3604,-2.3542,-2.3293,-2.3168,-2.3106,-2.3106,-2.3106,-2.3106,-2.3043,-2.2793,-2.2244,-2.174,-2.1362,-2.1172,-2.0475,-2.0234,-2.0157,-1.9903,-2.0563,-2.2165,-2.2584,-2.361,-2.5107,-2.6067,-2.633,-2.6083,-2.5861,-2.5545,-2.4974,-2.4322,-2.3626,-2.3451,-2.334,-2.3419,-2.353,-2.3737,-2.4039,-2.4356,-2.4372,-2.4341,-2.4388,-2.4404,-2.4499,-2.4579,-2.4527,-2.4344,-2.3762,-2.3353,-2.2977,-2.2601,-2.2346,-2.2109,-2.1801,-2.1331,-2.0838,-2.0333,-1.9897,-1.9569,-1.9399,-1.9492,-1.9533,-4.2061,-4.1806,-4.1678,-4.1035,-4.0192,-3.9648,-3.8927,-3.7831,-3.6696,-3.5916,-3.5413,-3.4645,-3.3518,-3.2322,-3.2322,-3.1612,-3.0446,-2.9728,-2.8927,-2.8068,-2.8032,-2.7709,-2.7343,-2.7455,-2.7439,-2.728,-2.72,-2.72,-2.72,-2.7169,-2.7026,-2.6756,-2.6914,-2.6914,-2.6644,-2.6787,-2.6962,-2.6978,-2.6946,-2.6914,-2.6899,-2.6914,-2.6899,-2.6883,-2.6757,-2.6261,-2.5673,-2.5343,-2.503,-2.478,-2.4564,-2.4301,-2.3929,-2.3666,-2.3479,-2.3293,-2.3168,-2.3106,-2.3106,-2.3106,-2.3106,-2.2981,-2.2606,-2.2292,-2.2118,-2.1299,-2.0982,-2.0919,-2.0488,-2.017,-1.9903,-1.9711,-2.0335,-2.142,-2.2366,-2.3039,-2.3825,-2.5157,-2.6124,-2.6231,-2.6117,-2.5748,-2.5185,-2.4919,-2.4338,-2.3779,-2.3642,-2.3705,-2.3864,-2.4039,-2.4325,-2.4658,-2.4738,-2.469,-2.4706,-2.4722,-2.4754,-2.468,-2.4608,-2.4471,-2.3871,-2.3413,-2.3063,-2.2865,-2.2667,-2.2384,-2.2031,-2.1541,-2.1012,-2.052,-2.0047,-1.9757,-1.9626,-1.9666,-1.9706,-4.2212,-4.1998,-4.187,-4.1293,-4.0517,-3.991,-3.932,-3.8615,-3.775,-3.7011,-3.6451,-3.584,-3.4956,-3.3811,-3.3655,-3.2979,-3.1668,-3.0527,-2.9527,-2.8696,-2.8365,-2.802,-2.7645,-2.7518,-2.7359,-2.7216,-2.72,-2.72,-2.72,-2.7185,-2.7121,-2.6946,-2.7121,-2.7089,-2.6946,-2.7105,-2.7169,-2.7169,-2.72,-2.72,-2.72,-2.72,-2.72,-2.7185,-2.701,-2.6559,-2.5887,-2.556,-2.5057,-2.4525,-2.4236,-2.3991,-2.3666,-2.3479,-2.3293,-2.3168,-2.3106,-2.3106,-2.3106,-2.3106,-2.2981,-2.2668,-2.2292,-2.1853,-2.1551,-2.0982,-2.0869,-2.0869,-2.0679,-2.0412,-1.9903,-1.9839,-2.0284,-2.0956,-2.1699,-2.2389,-2.3234,-2.4974,-2.5973,-2.5774,-2.5623,-2.5497,-2.5307,-2.5101,-2.4847,-2.4134,-2.3896,-2.3959,-2.4198,-2.4388,-2.4563,-2.4833,-2.4976,-2.504,-2.504,-2.504,-2.5008,-2.4824,-2.4548,-2.4363,-2.3993,-2.3638,-2.3248,-2.3051,-2.2824,-2.2584,-2.2198,-2.1704,-2.1199,-2.0676,-2.0272,-2.0012,-1.9893,-1.996,-2.0,-4.2339,-4.2275,-4.1998,-4.155,-4.0884,-4.017,-3.9517,-3.888,-3.8437,-3.7683,-3.6924,-3.6789,-3.6161,-3.5344,-3.512,-3.4452,-3.3221,-3.214,-3.0941,-2.9834,-2.928,-2.8789,-2.8285,-2.7713,-2.7375,-2.728,-2.7232,-2.7216,-2.72,-2.72,-2.7185,-2.7185,-2.7185,-2.7169,-2.7185,-2.72,-2.72,-2.72,-2.72,-2.72,-2.72,-2.72,-2.72,-2.7051,-2.7035,-2.6628,-2.5986,-2.5581,-2.505,-2.4187,-2.3795,-2.3646,-2.3539,-2.3307,-2.3043,-2.3043,-2.3043,-2.3043,-2.2981,-2.2981,-2.2856,-2.2167,-2.1915,-2.1475,-2.0856,-2.0729,-2.0679,-2.0742,-2.0666,-2.0729,-2.017,-2.0043,-2.0284,-2.0639,-2.0893,-2.151,-2.2514,-2.444,-2.481,-2.4748,-2.5026,-2.5301,-2.5176,-2.5003,-2.4782,-2.4623,-2.44,-2.4305,-2.4468,-2.4674,-2.4833,-2.4928,-2.5056,-2.5103,-2.5103,-2.5042,-2.5042,-2.4795,-2.4487,-2.4177,-2.3976,-2.3604,-2.3168,-2.3043,-2.2831,-2.2529,-2.221,-2.1754,-2.1279,-2.0801,-2.051,-2.0274,-2.0227,-2.0207,-2.0233,-4.2593,-4.2275,-4.2212,-4.1998,-4.155,-4.0884,-4.017,-3.9517,-3.888,-3.835,-3.7904,-3.7904,-3.7213,-3.6451,-3.6248,-3.5412,-3.4327,-3.3386,-3.2498,-3.1306,-3.0514,-2.9712,-2.8891,-2.802,-2.7661,-2.7566,-2.7391,-2.7248,-2.72,-2.72,-2.72,-2.72,-2.72,-2.72,-2.72,-2.72,-2.72,-2.72,-2.72,-2.72,-2.72,-2.7134,-2.7067,-2.6867,-2.68,-2.6419,-2.5783,-2.5131,-2.4575,-2.4113,-2.3755,-2.3608,-2.3598,-2.3359,-2.3068,-2.2899,-2.2962,-2.3039,-2.287,-2.2918,-2.2731,-2.2167,-2.1601,-2.0969,-2.0399,-2.0284,-2.0361,-2.0488,-2.0742,-2.0792,-2.017,-2.0043,-1.9788,-1.9903,-2.0259,-2.0576,-2.0322,-2.151,-2.3263,-2.345,-2.4286,-2.5042,-2.4794,-2.4747,-2.4881,-2.4817,-2.4722,-2.4563,-2.4627,-2.4833,-2.5008,-2.5056,-2.5087,-2.5103,-2.5103,-2.5042,-2.5042,-2.4734,-2.4348,-2.3914,-2.3666,-2.3355,-2.3106,-2.2543,-2.248,-2.2423,-2.2131,-2.1728,-2.1368,-2.0902,-2.0698,-2.0535,-2.0521,-2.0535,-2.0588,-4.2593,-4.2339,-4.2275,-4.2125,-4.1742,-4.11,-4.0366,-3.9648,-3.8991,-3.8503,-3.8304,-3.8191,-3.7904,-3.7482,-3.7348,-3.6654,-3.5539,-3.4626,-3.3879,-3.2896,-3.1718,-3.0703,-2.9757,-2.8688,-2.8095,-2.79,-2.7661,-2.7359,-2.7216,-2.72,-2.72,-2.72,-2.72,-2.72,-2.72,-2.72,-2.72,-2.72,-2.72,-2.72,-2.7134,-2.7067,-2.68,-2.6733,-2.6465,-2.613,-2.5636,-2.5158,-2.4743,-2.4407,-2.4027,-2.3896,-2.3729,-2.3513,-2.3276,-2.316,-2.3102,-2.3078,-2.2774,-2.2745,-2.223,-2.1601,-2.0969,-2.0399,-2.0081,-2.003,-2.0234,-2.0552,-2.0552,-2.0679,-2.017,-1.9979,-1.9584,-1.9328,-1.9571,-1.9392,-1.92,-2.0068,-2.0943,-2.1999,-2.2952,-2.3651,-2.4147,-2.4301,-2.4824,-2.5008,-2.4962,-2.4883,-2.4756,-2.4944,-2.5103,-2.4919,-2.4857,-2.4656,-2.4595,-2.4487,-2.4348,-2.41,-2.3852,-2.3417,-2.2981,-2.2543,-2.2041,-2.1551,-2.1664,-2.2041,-2.2027,-2.1734,-2.1352,-2.1061,-2.0931,-2.0815,-2.0788,-2.0802,-2.0828,-4.2633,-4.2275,-4.2275,-4.2125,-4.1806,-4.1293,-4.056,-3.9779,-3.9188,-3.8681,-3.8258,-3.8191,-3.8191,-3.8191,-3.8058,-3.7636,-3.6789,-3.5889,-3.5374,-3.4546,-3.3363,-3.2238,-3.0891,-3.0031,-2.9074,-2.8366,-2.8526,-2.7916,-2.7391,-2.7248,-2.72,-2.72,-2.72,-2.72,-2.72,-2.72,-2.72,-2.72,-2.72,-2.72,-2.7067,-2.6867,-2.6599,-2.6465,-2.613,-2.5861,-2.5495,-2.5115,-2.4819,-2.4547,-2.4335,-2.4188,-2.4123,-2.3839,-2.3659,-2.3708,-2.3371,-2.314,-2.2918,-2.2495,-2.1929,-2.1299,-2.0526,-2.0017,-1.9711,-1.9903,-2.0297,-2.0792,-2.0792,-2.0488,-2.017,-1.9775,-1.9456,-1.9136,-1.8828,-1.8571,-1.8559,-1.8868,-1.8984,-2.0055,-2.1371,-2.2139,-2.2591,-2.3014,-2.3358,-2.4163,-2.4178,-2.4764,-2.4731,-2.4947,-2.5042,-2.4795,-2.4595,-2.4224,-2.3976,-2.3651,-2.334,-2.2841,-2.2591,-2.2278,-2.1902,-2.1475,-2.0969,-2.0526,-2.1032,-2.1335,-2.1475,-2.1677,-2.1434,-2.1218,-2.1145,-2.1056,-2.0975,-2.0949,-2.0989,-4.2886,-4.2275,-4.2275,-4.2275,-4.2212,-4.1806,-4.1077,-4.017,-3.9713,-3.9078,-3.8325,-3.8258,-3.8258,-3.8258,-3.8191,-3.8104,-3.7904,-3.7636,-3.6944,-3.6073,-3.5316,-3.3853,-3.2401,-3.2582,-3.0874,-2.9666,-2.9865,-2.9088,-2.8199,-2.7573,-2.7248,-2.7248,-2.7264,-2.72,-2.72,-2.7264,-2.72,-2.72,-2.72,-2.7067,-2.68,-2.6666,-2.6331,-2.5928,-2.5659,-2.5524,-2.5225,-2.4922,-2.4694,-2.4665,-2.4554,-2.451,-2.4488,-2.4185,-2.4195,-2.413,-2.3724,-2.3064,-2.2978,-2.2455,-2.1746,-2.1062,-2.0463,-1.9851,-1.967,-1.9811,-2.0323,-2.0615,-2.0565,-2.0463,-2.0157,-1.9788,-1.9456,-1.9136,-1.8764,-1.8431,-1.8226,-1.7969,-1.8033,-1.815,-1.947,-2.0335,-2.0996,-2.1411,-2.1888,-2.2702,-2.345,-2.4038,-2.4286,-2.4224,-2.4286,-2.3852,-2.3464,-2.3091,-2.3029,-2.2779,-2.2404,-2.1713,-2.1524,-2.1272,-2.0703,-2.0259,-1.9877,-1.9686,-2.0119,-2.0449,-2.0526,-2.0779,-2.1159,-2.1032,-2.0589,-2.0729,-2.1096,-2.1109,-2.1109,-4.3485,-4.2339,-4.2275,-4.2275,-4.2275,-4.1934,-4.1335,-4.0582,-4.0192,-3.9538,-3.8901,-3.8769,-3.8636,-3.8503,-3.8304,-3.8191,-3.8191,-3.8191,-3.7971,-3.7213,-3.6431,-3.5209,-3.4202,-3.3637,-3.2363,-3.17,-3.1386,-3.0923,-2.9596,-2.8341,-2.7709,-2.7502,-2.7486,-2.7391,-2.7296,-2.7423,-2.7359,-2.7213,-2.7,-2.6733,-2.6398,-2.6197,-2.5928,-2.5607,-2.5404,-2.5255,-2.509,-2.5031,-2.4914,-2.4914,-2.4847,-2.4914,-2.4794,-2.4559,-2.4477,-2.478,-2.4092,-2.3414,-2.2893,-2.2351,-2.169,-2.0928,-2.032,-1.9936,-1.9858,-2.0095,-2.0486,-2.1033,-2.0554,-2.0296,-2.0168,-1.967,-1.9352,-1.902,-1.8694,-1.8401,-1.8003,-1.7464,-1.7324,-1.7389,-1.754,-1.8589,-1.9668,-2.04,-2.0935,-2.1628,-2.2306,-2.2856,-2.2716,-2.2327,-2.2404,-2.2466,-2.2027,-2.165,-2.1713,-2.1713,-2.1447,-2.0943,-2.0893,-2.0449,-1.9495,-1.8984,-1.8664,-1.8407,-1.8524,-1.8856,-1.9316,-1.9635,-1.9826,-1.9826,-1.9826,-2.0144,-2.0475,-2.1046,-2.1046,-4.4184,-4.2834,-4.2591,-4.239,-4.2275,-4.1998,-4.1486,-4.0777,-4.0517,-3.9931,-3.9341,-3.9099,-3.888,-3.8681,-3.837,-3.8191,-3.8191,-3.8191,-3.8191,-3.777,-3.7106,-3.6206,-3.55,-3.4812,-3.4308,-3.3206,-3.3403,-3.2616,-3.1321,-2.9962,-2.8818,-2.7868,-2.7852,-2.7677,-2.7518,-2.7629,-2.7641,-2.7205,-2.6914,-2.6465,-2.6078,-2.5742,-2.5592,-2.5457,-2.5255,-2.5066,-2.5066,-2.5052,-2.5119,-2.5105,-2.5022,-2.5075,-2.4955,-2.4684,-2.4631,-2.4762,-2.4195,-2.3364,-2.2794,-2.2198,-2.1516,-2.0833,-2.0175,-1.9996,-2.0153,-2.0335,-2.0601,-2.1121,-2.0742,-2.051,-2.0394,-1.9918,-1.9573,-1.916,-1.8694,-1.8376,-1.8041,-1.7576,-1.7325,-1.7445,-1.7544,-1.7478,-1.8464,-1.9415,-2.0104,-2.0643,-2.1162,-2.1655,-2.1452,-2.0946,-2.1032,-2.1235,-2.0208,-1.9941,-2.0309,-2.0373,-2.0182,-1.9992,-1.9941,-1.9559,-1.8536,-1.7905,-1.7582,-1.7324,-1.7184,-1.7055,-1.7324,-1.7893,-1.8472,-1.874,-1.8996,-1.9316,-1.9763,-2.0462,-2.1046,-4.508,-4.4217,-4.3364,-4.2775,-4.2298,-4.2275,-4.1678,-4.0841,-4.0777,-4.0192,-3.9341,-3.8946,-3.888,-3.8681,-3.8503,-3.8304,-3.8237,-3.8191,-3.8258,-3.8191,-3.7971,-3.7085,-3.6642,-3.6535,-3.6166,-3.4169,-3.4604,-3.4402,-3.3112,-3.2033,-3.0218,-2.8489,-2.8371,-2.7995,-2.7736,-2.772,-2.7626,-2.7223,-2.6832,-2.6295,-2.5824,-2.5554,-2.5419,-2.5202,-2.5119,-2.5066,-2.5066,-2.5066,-2.5066,-2.5066,-2.5066,-2.5066,-2.4984,-2.4781,-2.4849,-2.482,-2.4181,-2.3389,-2.2713,-2.2178,-2.1621,-2.0933,-2.0385,-2.0069,-2.016,-2.033,-2.056,-2.0955,-2.0705,-2.0721,-2.0696,-2.046,-1.9866,-1.9334,-1.8851,-1.8545,-1.8226,-1.784,-1.7639,-1.7647,-1.7647,-1.7593,-1.7647,-1.865,-1.8963,-1.9512,-1.9658,-2.0153,-2.0477,-2.0195,-2.017,-1.9889,-1.8518,-1.8238,-1.8844,-1.8844,-1.8536,-1.8407,-1.8343,-1.8022,-1.7453,-1.6936,-1.6753,-1.6429,-1.6289,-1.5779,-1.5518,-1.6548,-1.7378,-1.784,-1.8226,-1.8547,-1.9316,-2.0208,-2.0729,-4.5642,-4.4821,-4.4216,-4.3556,-4.2711,-4.2198,-4.1678,-4.11,-4.0906,-4.0453,-3.9822,-3.9473,-3.9363,-3.9231,-3.8967,-3.8702,-3.857,-3.8503,-3.837,-3.8237,-3.8037,-3.7837,-3.7703,-3.7616,-3.74,-3.6356,-3.669,-3.6241,-3.4842,-3.3898,-3.2347,-3.0734,-2.933,-2.8255,-2.791,-2.7584,-2.7327,-2.7139,-2.6603,-2.6035,-2.5517,-2.5461,-2.5393,-2.5134,-2.5066,-2.5066,-2.5066,-2.5066,-2.5066,-2.5066,-2.5066,-2.5066,-2.5066,-2.4916,-2.4916,-2.4916,-2.4088,-2.3406,-2.2726,-2.2159,-2.1522,-2.091,-2.0513,-2.0352,-2.0303,-2.0476,-2.0761,-2.0873,-2.0804,-2.0729,-2.0784,-2.0379,-1.9808,-1.944,-1.9041,-1.8753,-1.8373,-1.8036,-1.7809,-1.7841,-1.7798,-1.7744,-1.7841,-1.8064,-1.8171,-1.8351,-1.845,-1.8659,-1.9113,-1.9345,-1.9208,-1.9124,-1.788,-1.7314,-1.7852,-1.7529,-1.7001,-1.7001,-1.7001,-1.7033,-1.6979,-1.6494,-1.6234,-1.5844,-1.5593,-1.5323,-1.5323,-1.5769,-1.6224,-1.6483,-1.713,-1.7765,-1.874,-1.9763,-2.0348,-4.6083,-4.5399,-4.4859,-4.4107,-4.328,-4.2495,-4.1969,-4.1624,-4.1167,-4.0712,-4.0279,-3.9888,-3.9691,-3.9625,-3.9341,-3.9078,-3.888,-3.8814,-3.8636,-3.8503,-3.837,-3.8304,-3.8258,-3.815,-3.7934,-3.7984,-3.7835,-3.713,-3.6269,-3.5634,-3.4308,-3.2505,-3.055,-2.9195,-2.8085,-2.74,-2.7068,-2.6992,-2.6608,-2.5948,-2.5369,-2.5388,-2.5359,-2.5178,-2.5066,-2.5066,-2.5066,-2.5066,-2.5066,-2.5066,-2.5066,-2.5066,-2.5066,-2.5052,-2.4984,-2.4645,-2.4088,-2.3338,-2.2585,-2.1897,-2.1276,-2.0813,-2.0686,-2.0629,-2.0665,-2.0735,-2.0857,-2.1076,-2.0816,-2.0661,-2.0842,-2.0607,-2.011,-1.9737,-1.9345,-1.9039,-1.8562,-1.8175,-1.806,-1.7955,-1.8003,-1.8035,-1.8078,-1.8164,-1.8103,-1.8123,-1.8026,-1.8195,-1.8406,-1.846,-1.8084,-1.7994,-1.7588,-1.725,-1.712,-1.7023,-1.7001,-1.7001,-1.7023,-1.7087,-1.6968,-1.6426,-1.612,-1.605,-1.5702,-1.51,-1.5062,-1.5388,-1.5257,-1.5062,-1.5964,-1.6926,-1.7765,-1.8728,-1.9699,-4.6405,-4.6201,-4.5154,-4.4313,-4.3808,-4.328,-4.2814,-4.2379,-4.1629,-4.0997,-4.0432,-3.9996,-3.9821,-3.9734,-3.9537,-3.9276,-3.921,-3.9144,-3.9012,-3.8747,-3.8615,-3.8437,-3.8304,-3.8217,-3.8046,-3.7736,-3.7819,-3.7749,-3.7369,-3.6328,-3.5423,-3.4001,-3.1686,-2.9791,-2.8726,-2.8044,-2.75,-2.7079,-2.6698,-2.6136,-2.5677,-2.5579,-2.5418,-2.5213,-2.5081,-2.5134,-2.5066,-2.5066,-2.5066,-2.5066,-2.5066,-2.5066,-2.5066,-2.5066,-2.4781,-2.417,-2.3406,-2.2654,-2.1829,-2.1151,-2.0804,-2.0747,-2.0665,-2.0665,-2.0665,-2.0735,-2.0804,-2.1069,-2.1032,-2.102,-2.1101,-2.1007,-2.0424,-1.9965,-1.9634,-1.9231,-1.8727,-1.836,-1.8255,-1.8127,-1.8245,-1.8412,-1.8401,-1.8379,-1.8272,-1.8089,-1.7863,-1.7855,-1.808,-1.8012,-1.7787,-1.7583,-1.7464,-1.726,-1.7109,-1.7033,-1.7001,-1.7001,-1.7066,-1.7163,-1.702,-1.6571,-1.6338,-1.6257,-1.5725,-1.5035,-1.4913,-1.4931,-1.4866,-1.4931,-1.5313,-1.6138,-1.6915,-1.7753,-1.8792,-4.663,-4.6315,-4.5704,-4.5249,-4.4727,-4.3659,-4.3054,-4.2658,-4.1949,-4.1396,-4.1198,-4.078,-4.0562,-4.0409,-4.0105,-3.98,-3.956,-3.956,-3.9363,-3.9012,-3.888,-3.8681,-3.8503,-3.8283,-3.8088,-3.8026,-3.8129,-3.8129,-3.7939,-3.7018,-3.5578,-3.407,-3.1789,-2.9647,-2.868,-2.7857,-2.722,-2.7053,-2.6709,-2.6264,-2.59,-2.5827,-2.5681,-2.5359,-2.5222,-2.5134,-2.5081,-2.5096,-2.5066,-2.5081,-2.5096,-2.5066,-2.5052,-2.5052,-2.4713,-2.4034,-2.327,-2.231,-2.1415,-2.0804,-2.0735,-2.0665,-2.0665,-2.0665,-2.0665,-2.0665,-2.0804,-2.0873,-2.0943,-2.0943,-2.0861,-2.0861,-2.0419,-2.0085,-1.9704,-1.9345,-1.8894,-1.8567,-1.8379,-1.8369,-1.8433,-1.8374,-1.8374,-1.8433,-1.8358,-1.8336,-1.8132,-1.8132,-1.8233,-1.8222,-1.8132,-1.7809,-1.7583,-1.7356,-1.7173,-1.7055,-1.7001,-1.7001,-1.713,-1.7303,-1.7082,-1.6685,-1.6451,-1.6271,-1.5651,-1.5035,-1.4941,-1.4866,-1.4866,-1.4996,-1.5183,-1.5434,-1.6084,-1.7044,-1.8139,-4.6831,-4.6563,-4.6204,-4.589,-4.5412,-4.4251,-4.3418,-4.2816,-4.2304,-4.1968,-4.1679,-4.135,-4.1131,-4.0978,-4.0847,-4.0367,-3.9952,-4.0082,-3.9756,-3.9405,-3.9165,-3.8946,-3.8681,-3.8503,-3.8283,-3.8258,-3.8191,-3.8171,-3.815,-3.7816,-3.6093,-3.3656,-3.1313,-2.9894,-2.8821,-2.7819,-2.7327,-2.7179,-2.6791,-2.6442,-2.6135,-2.593,-2.5769,-2.5418,-2.5183,-2.5178,-2.5154,-2.5154,-2.5125,-2.5169,-2.514,-2.5081,-2.5066,-2.4781,-2.4374,-2.3679,-2.2585,-2.1691,-2.0943,-2.0735,-2.0665,-2.0665,-2.0665,-2.0665,-2.0665,-2.0665,-2.0665,-2.0735,-2.0665,-2.0665,-2.0735,-2.0735,-2.0596,-2.0249,-1.9889,-1.9529,-1.9164,-1.8774,-1.8573,-1.8552,-1.8541,-1.8519,-1.8385,-1.8374,-1.8412,-1.8422,-1.8412,-1.8433,-1.8433,-1.839,-1.8282,-1.7959,-1.768,-1.7453,-1.7227,-1.7044,-1.7001,-1.7001,-1.7184,-1.7323,-1.7068,-1.667,-1.6445,-1.6178,-1.5499,-1.5044,-1.4913,-1.4866,-1.4866,-1.4735,-1.4595,-1.4922,-1.5368,-1.6203,-1.7173,-4.7032,-4.6965,-4.654,-4.6227,-4.5797,-4.4953,-4.3959,-4.2884,-4.2817,-4.2415,-4.1765,-4.1719,-4.1277,-4.1062,-4.1257,-4.071,-4.0058,-4.0362,-3.9967,-3.9621,-3.9247,-3.8985,-3.8811,-3.8657,-3.8437,-3.8304,-3.8191,-3.8191,-3.8125,-3.7059,-3.5325,-3.3466,-3.1649,-2.9965,-2.8573,-2.7894,-2.7488,-2.7098,-2.6939,-2.6647,-2.6354,-2.6061,-2.5827,-2.5505,-2.5286,-2.533,-2.5374,-2.5374,-2.5388,-2.5359,-2.5286,-2.5154,-2.4878,-2.4374,-2.3693,-2.2722,-2.1565,-2.1061,-2.0807,-2.082,-2.0798,-2.0847,-2.0786,-2.0726,-2.069,-2.0702,-2.0738,-2.069,-2.0665,-2.0665,-2.0665,-2.0804,-2.0873,-2.0527,-2.0179,-1.9795,-1.9413,-1.9113,-1.891,-1.8828,-1.8735,-1.8681,-1.8541,-1.8498,-1.8455,-1.8433,-1.8433,-1.8433,-1.8433,-1.8433,-1.8282,-1.797,-1.7723,-1.754,-1.7346,-1.7206,-1.7206,-1.727,-1.7171,-1.7254,-1.6922,-1.6707,-1.6422,-1.597,-1.5394,-1.4997,-1.495,-1.4866,-1.4866,-1.467,-1.4408,-1.4333,-1.4726,-1.5108,-1.5944,-4.7232,-4.6965,-4.6898,-4.663,-4.6204,-4.5457,-4.4641,-4.3847,-4.3368,-4.2886,-4.2726,-4.1507,-4.0954,-4.0753,-3.9716,-3.9075,-3.8842,-3.8753,-3.8576,-3.8547,-3.8833,-3.8605,-3.8502,-3.8382,-3.8345,-3.8171,-3.8037,-3.777,-3.7482,-3.6296,-3.4346,-3.2491,-3.0872,-2.9178,-2.8259,-2.7695,-2.742,-2.7129,-2.6998,-2.6793,-2.6515,-2.6208,-2.5988,-2.5842,-2.5491,-2.5579,-2.5725,-2.574,-2.5769,-2.5783,-2.5564,-2.5266,-2.4549,-2.416,-2.3543,-2.2212,-2.1438,-2.1026,-2.105,-2.1207,-2.1209,-2.1172,-2.1197,-2.0967,-2.0871,-2.0798,-2.0834,-2.0738,-2.0678,-2.0665,-2.0828,-2.0979,-2.0955,-2.0735,-2.0505,-2.0309,-1.9835,-1.9437,-1.9173,-1.8993,-1.8972,-1.8832,-1.8681,-1.853,-1.8498,-1.8455,-1.8433,-1.8433,-1.8433,-1.8433,-1.8315,-1.8003,-1.7873,-1.7723,-1.7647,-1.7451,-1.7529,-1.755,-1.735,-1.7202,-1.7068,-1.678,-1.6332,-1.5875,-1.5252,-1.4997,-1.4875,-1.4866,-1.4866,-1.467,-1.4408,-1.4211,-1.4071,-1.4399,-1.5229,-4.7364,-4.7232,-4.7232,-4.6965,-4.6496,-4.5551,-4.4846,-4.4411,-4.3719,-4.3093,-4.2398,-4.1467,-4.0605,-3.9927,-3.9262,-3.8678,-3.8113,-3.8526,-3.8526,-3.8231,-3.8097,-3.7682,-3.7609,-3.7368,-3.6789,-3.6702,-3.6431,-3.6005,-3.5957,-3.4846,-3.2979,-3.1578,-2.9751,-2.8691,-2.784,-2.7478,-2.7274,-2.7056,-2.6954,-2.6837,-2.6559,-2.6252,-2.6179,-2.6061,-2.5696,-2.5842,-2.612,-2.6135,-2.6091,-2.5993,-2.5676,-2.5084,-2.4372,-2.3927,-2.3024,-2.1815,-2.1478,-2.1292,-2.1316,-2.1354,-2.145,-2.1486,-2.1486,-2.1233,-2.1052,-2.0943,-2.0847,-2.0738,-2.069,-2.0747,-2.0992,-2.1155,-2.1049,-2.0955,-2.088,-2.0802,-2.0296,-1.978,-1.9481,-1.9271,-1.9144,-1.9004,-1.8842,-1.8681,-1.8562,-1.8573,-1.8509,-1.8433,-1.8433,-1.8433,-1.8315,-1.8078,-1.8024,-1.7891,-1.7805,-1.7641,-1.7531,-1.7432,-1.7286,-1.7167,-1.71,-1.6626,-1.6049,-1.5595,-1.5214,-1.4997,-1.4866,-1.4866,-1.4866,-1.4604,-1.4342,-1.4015,-1.3752,-1.3621,-1.4782,-4.7497,-4.7497,-4.7497,-4.7298,-4.6831,-4.5619,-4.4937,-4.4709,-4.3974,-4.284,-4.1622,-4.1176,-4.0095,-3.9129,-3.8707,-3.8287,-3.7901,-3.7999,-3.7928,-3.8057,-3.752,-3.6945,-3.6205,-3.5525,-3.5371,-3.4296,-3.3914,-3.4552,-3.3863,-3.2961,-3.2,-3.0801,-2.9806,-2.8619,-2.755,-2.7202,-2.7056,-2.7071,-2.6925,-2.6793,-2.6339,-2.6061,-2.5915,-2.5754,-2.5754,-2.5915,-2.6296,-2.6369,-2.6152,-2.5969,-2.5613,-2.4918,-2.4042,-2.3261,-2.2262,-2.1882,-2.1594,-2.1571,-2.1535,-2.1619,-2.1631,-2.1607,-2.1523,-2.1378,-2.1245,-2.1122,-2.0989,-2.0738,-2.0678,-2.0665,-2.0828,-2.1381,-2.1558,-2.1426,-2.1266,-2.1193,-2.0828,-2.0295,-1.9801,-1.9582,-1.9338,-1.9198,-1.9101,-1.8939,-1.867,-1.8692,-1.8584,-1.8455,-1.8433,-1.8433,-1.8267,-1.8175,-1.8036,-1.7935,-1.7771,-1.7549,-1.7339,-1.724,-1.7182,-1.6991,-1.6827,-1.6323,-1.5623,-1.5328,-1.5139,-1.4988,-1.4866,-1.4866,-1.48,-1.4473,-1.4211,-1.3818,-1.3555,-1.3293,-1.453,-4.7497,-4.7497,-4.7497,-4.7431,-4.7232,-4.6429,-4.5663,-4.5051,-4.3814,-4.2538,-4.1268,-3.9674,-3.8714,-3.8253,-3.7509,-3.6969,-3.667,-3.7055,-3.6638,-3.6538,-3.638,-3.5916,-3.525,-3.4663,-3.4209,-3.3988,-3.3637,-3.324,-3.277,-3.193,-3.1014,-3.002,-2.8963,-2.7913,-2.7274,-2.6998,-2.6998,-2.6998,-2.6954,-2.6793,-2.6427,-2.6369,-2.631,-2.6252,-2.6296,-2.6327,-2.6619,-2.6721,-2.633,-2.5995,-2.5524,-2.4484,-2.3197,-2.2278,-2.1775,-2.1583,-2.1691,-2.1752,-2.1812,-2.1897,-2.1969,-2.1945,-2.186,-2.1631,-2.1426,-2.1268,-2.105,-2.0774,-2.0665,-2.0665,-2.0947,-2.1595,-2.2058,-2.1912,-2.1677,-2.1528,-2.1282,-2.0692,-2.0162,-1.983,-1.9595,-1.9424,-1.9327,-1.9133,-1.8875,-1.8692,-1.8541,-1.8374,-1.8433,-1.8363,-1.8363,-1.8186,-1.7998,-1.7886,-1.7652,-1.7541,-1.7282,-1.7174,-1.7076,-1.6927,-1.6627,-1.6166,-1.5615,-1.5272,-1.5082,-1.4969,-1.4913,-1.4866,-1.4735,-1.4408,-1.408,-1.3752,-1.349,-1.3293,-1.4716,-4.7497,-4.7497,-4.7497,-4.7497,-4.7364,-4.6674,-4.6136,-4.546,-4.3353,-4.1884,-4.0963,-3.9188,-3.7897,-3.731,-3.6423,-3.6127,-3.5907,-3.6091,-3.6257,-3.6036,-3.5321,-3.4703,-3.418,-3.35,-3.2277,-3.1929,-3.1807,-3.1454,-3.1454,-3.0605,-2.9536,-2.9035,-2.7985,-2.742,-2.7071,-2.6998,-2.6998,-2.6998,-2.6998,-2.6822,-2.6559,-2.6515,-2.65,-2.65,-2.6559,-2.6561,-2.6358,-2.6399,-2.5946,-2.5332,-2.4655,-2.3844,-2.2838,-2.2166,-2.1922,-2.1946,-2.1969,-2.2042,-2.209,-2.2237,-2.2346,-2.2186,-2.2017,-2.1716,-2.1619,-2.1366,-2.1026,-2.0762,-2.0678,-2.0665,-2.1328,-2.1936,-2.2275,-2.2294,-2.2127,-2.183,-2.1136,-2.0365,-2.0045,-1.9897,-1.9671,-1.9585,-1.9456,-1.9219,-1.8972,-1.8735,-1.8573,-1.8374,-1.8433,-1.8363,-1.8293,-1.8153,-1.7942,-1.758,-1.7228,-1.7217,-1.7228,-1.7137,-1.7017,-1.6717,-1.6349,-1.6046,-1.563,-1.5413,-1.5233,-1.5063,-1.5007,-1.4932,-1.4613,-1.4202,-1.394,-1.3752,-1.349,-1.349,-1.4977,-4.7497,-4.7497,-4.7497,-4.7497,-4.7431,-4.6808,-4.6473,-4.5843,-4.3032,-4.1368,-4.0586,-3.9044,-3.753,-3.6645,-3.6201,-3.6201,-3.6201,-3.6182,-3.6164,-3.5794,-3.4892,-3.4148,-3.3046,-3.1745,-3.0838,-3.0079,-2.9774,-2.9735,-2.9783,-2.8988,-2.851,-2.8099,-2.771,-2.7347,-2.7129,-2.6998,-2.6998,-2.6998,-2.6954,-2.6837,-2.6691,-2.6559,-2.6559,-2.6544,-2.6502,-2.6272,-2.6008,-2.5726,-2.5345,-2.4536,-2.3783,-2.3078,-2.2621,-2.2212,-2.2237,-2.2249,-2.2237,-2.2285,-2.2309,-2.2309,-2.2346,-2.2273,-2.1993,-2.1824,-2.1716,-2.1402,-2.0991,-2.0856,-2.0702,-2.0995,-2.1592,-2.2082,-2.2409,-2.248,-2.2279,-2.1916,-2.1,-2.0147,-2.0014,-1.9919,-1.9854,-1.9704,-1.951,-1.9273,-1.9047,-1.881,-1.8638,-1.8519,-1.8363,-1.8293,-1.8223,-1.8012,-1.7731,-1.7298,-1.6875,-1.6875,-1.7026,-1.6815,-1.6654,-1.6336,-1.6091,-1.5927,-1.5744,-1.5621,-1.5451,-1.5262,-1.5063,-1.4969,-1.4594,-1.4089,-1.394,-1.3744,-1.349,-1.3744,-1.5238,-4.7497,-4.7497,-4.7497,-4.7497,-4.7497,-4.7298,-4.6965,-4.6046,-4.3794,-4.2052,-4.0443,-3.8608,-3.7034,-3.6201,-3.6201,-3.6201,-3.6201,-3.6201,-3.6201,-3.5997,-3.4641,-3.3799,-3.2719,-3.1121,-3.0098,-2.9513,-2.9107,-2.9059,-2.8972,-2.833,-2.7957,-2.8057,-2.742,-2.7129,-2.7056,-2.6998,-2.6998,-2.6998,-2.6998,-2.6925,-2.6925,-2.6822,-2.6705,-2.672,-2.6764,-2.6358,-2.6005,-2.58,-2.4918,-2.3883,-2.3005,-2.2558,-2.2408,-2.2346,-2.2346,-2.2346,-2.2346,-2.2346,-2.2346,-2.2346,-2.2346,-2.2235,-2.2029,-2.1788,-2.1607,-2.1317,-2.1062,-2.0856,-2.082,-2.1139,-2.1674,-2.2102,-2.2397,-2.2152,-2.1898,-2.1306,-2.0531,-2.0284,-2.0177,-2.0059,-1.9876,-1.9661,-1.9478,-1.9252,-1.9036,-1.881,-1.8616,-1.8498,-1.8433,-1.8293,-1.8153,-1.7801,-1.752,-1.7157,-1.6805,-1.6664,-1.6744,-1.6532,-1.6381,-1.6324,-1.6177,-1.6002,-1.5898,-1.5782,-1.5555,-1.5309,-1.5129,-1.5205,-1.4649,-1.4218,-1.4024,-1.3809,-1.3481,-1.394,-1.5294]}]]